[[{"header":{"parameterUnit":"m.s-1","parameterCategory":1,"la1":30.6,"la2":29.2853,"lo1":-89.7004,"lo2":-87.6739,"dy":0.0162,"dx":0.0183,"nx":112,"ny":82,"refTime":"2023-09-25T00:00:00:Z","depth":0,"parameterNumber":2,"parameterNumberName":"U-component_of_WINDS"},"data":[0.0,0.0,0.0,0.0,0.0,0.0,0.0,0.0,0.0,0.0,0.0,0.0,0.0,0.0,0.0,0.0,0.0,0.0,0.0,0.0,0.0,0.0,0.0,0.0,0.0,0.0,0.0,0.0,0.0,0.0,0.0,0.0,0.0,0.0,0.0,0.0,0.0,0.0,0.0,0.0,0.0,0.0,0.0,0.0,0.0,0.0,0.0,0.0,0.0,0.0,0.0,0.0,0.0,0.0,0.0,0.0,0.0,0.0,0.0,0.0,0.0,0.0,0.0,0.0,0.0,0.0,0.0,0.0,0.0,0.0,0.0,0.0,0.0,0.0,0.0,0.0,0.0,0.0,0.0,0.0,0.0,0.0,0.0,0.0,0.0,0.0,0.0,0.0,0.0,0.0,-1.0374,-0.9604,-0.843,-0.7648,-0.7456,-0.8188,-0.9215,-1.0527,0.0,0.0,0.0,0.0,0.0,0.0,0.0,0.0,0.0,0.0,0.0,0.0,0.0,0.0,0.0,0.0,0.0,0.0,0.0,0.0,0.0,0.0,0.0,0.0,0.0,0.0,0.0,0.0,0.0,0.0,0.0,0.0,0.0,0.0,0.0,0.0,0.0,0.0,0.0,0.0,0.0,0.0,0.0,0.0,0.0,0.0,0.0,0.0,0.0,0.0,0.0,0.0,0.0,0.0,0.0,0.0,0.0,0.0,0.0,0.0,0.0,0.0,0.0,0.0,0.0,0.0,0.0,0.0,0.0,0.0,0.0,0.0,0.0,0.0,0.0,0.0,0.0,0.0,0.0,0.0,0.0,0.0,0.0,0.0,0.0,0.0,0.0,0.0,0.0,0.0,0.0,0.0,0.0,0.0,0.0,0.0,0.0,0.0,0.0,0.0,0.0,0.0,0.0,0.0,-0.9289,-0.791,-0.7493,-0.7021,-0.6313,-0.8204,-0.9393,-0.9296,0.0,0.0,0.0,0.0,0.0,0.0,0.0,0.0,0.0,0.0,0.0,0.0,0.0,0.0,0.0,0.0,0.0,0.0,0.0,0.0,0.0,0.0,0.0,0.0,0.0,0.0,0.0,0.0,0.0,0.0,0.0,0.0,0.0,0.0,0.0,0.0,0.0,0.0,0.0,0.0,0.0,0.0,0.0,0.0,0.0,0.0,0.0,0.0,0.0,0.0,0.0,0.0,0.0,0.0,0.0,0.0,0.0,0.0,0.0,0.0,0.0,0.0,0.0,0.0,0.0,0.0,0.0,0.0,0.0,0.0,0.0,0.0,0.0,0.0,0.0,0.0,0.0,0.0,0.0,0.0,0.0,0.0,0.0,0.0,0.0,0.0,0.0,0.0,0.0,0.0,0.0,0.0,0.0,0.0,0.0,0.0,0.0,0.0,0.0,0.0,0.0,0.0,0.0,-0.934,-0.8334,-0.7538,-0.6821,-0.6189,-0.5712,-0.7784,-0.8841,-0.8179,-1.0684,0.0,0.0,0.0,0.0,0.0,0.0,0.0,0.0,0.0,0.0,0.0,0.0,0.0,0.0,0.0,0.0,0.0,0.0,0.0,0.0,0.0,0.0,0.0,0.0,0.0,0.0,0.0,0.0,0.0,0.0,0.0,0.0,0.0,0.0,0.0,0.0,0.0,0.0,0.0,0.0,0.0,0.0,0.0,0.0,0.0,0.0,0.0,0.0,0.0,0.0,0.0,0.0,0.0,0.0,0.0,0.0,0.0,0.0,0.0,0.0,0.0,0.0,0.0,0.0,0.0,0.0,0.0,0.0,0.0,0.0,0.0,0.0,0.0,0.0,0.0,0.0,0.0,0.0,0.0,0.0,0.0,0.0,0.0,0.0,0.0,0.0,0.0,0.0,0.0,0.0,0.0,0.0,0.0,0.0,0.0,0.0,0.0,0.0,0.0,0.0,0.0,0.0,-0.8257,-0.7497,-0.7148,-0.619,-0.5456,-0.5174,-0.753,-0.8548,-0.7492,-1.0867,0.0,0.0,0.0,0.0,0.0,0.0,0.0,0.0,0.0,0.0,0.0,0.0,0.0,0.0,0.0,0.0,0.0,0.0,0.0,0.0,0.0,0.0,0.0,0.0,0.0,0.0,0.0,0.0,0.0,0.0,0.0,0.0,0.0,0.0,0.0,0.0,0.0,0.0,0.0,0.0,0.0,0.0,0.0,0.0,0.0,0.0,0.0,0.0,0.0,0.0,0.0,0.0,0.0,0.0,0.0,0.0,0.0,0.0,0.0,0.0,0.0,0.0,0.0,0.0,0.0,0.0,0.0,0.0,0.0,0.0,0.0,0.0,0.0,0.0,0.0,0.0,0.0,0.0,0.0,0.0,0.0,0.0,0.0,0.0,0.0,0.0,0.0,0.0,0.0,0.0,0.0,0.0,0.0,0.0,0.0,0.0,0.0,0.0,0.0,0.0,0.0,0.0,-0.7553,-0.6861,-0.6108,-0.5482,-0.4963,-0.4516,-0.7807,-0.9221,-0.7587,-1.1587,0.0,0.0,0.0,0.0,0.0,0.0,0.0,0.0,0.0,0.0,0.0,0.0,0.0,0.0,0.0,0.0,0.0,0.0,0.0,0.0,0.0,0.0,0.0,0.0,0.0,0.0,0.0,0.0,0.0,0.0,0.0,0.0,0.0,0.0,0.0,0.0,0.0,0.0,0.0,0.0,0.0,0.0,0.0,0.0,0.0,0.0,0.0,0.0,0.0,0.0,0.0,0.0,0.0,0.0,0.0,0.0,0.0,0.0,0.0,0.0,0.0,0.0,0.0,0.0,0.0,0.0,0.0,0.0,0.0,0.0,0.0,0.0,0.0,0.0,0.0,0.0,0.0,0.0,0.0,0.0,0.0,0.0,0.0,0.0,0.0,0.0,0.0,0.0,0.0,0.0,0.0,0.0,0.0,0.0,0.0,0.0,0.0,0.0,0.0,0.0,0.0,0.0,-0.722,-0.6347,-0.5661,-0.4875,-0.4332,-0.417,-0.7292,-0.8729,-0.7504,0.0,0.0,0.0,0.0,0.0,0.0,0.0,0.0,0.0,0.0,0.0,0.0,0.0,0.0,0.0,0.0,0.0,0.0,0.0,0.0,0.0,0.0,0.0,0.0,0.0,0.0,0.0,0.0,0.0,0.0,0.0,0.0,0.0,0.0,0.0,0.0,0.0,0.0,0.0,0.0,0.0,0.0,0.0,0.0,0.0,0.0,0.0,0.0,0.0,0.0,0.0,0.0,0.0,0.0,0.0,0.0,0.0,0.0,0.0,0.0,0.0,0.0,0.0,0.0,0.0,0.0,0.0,0.0,0.0,0.0,0.0,0.0,0.0,0.0,0.0,0.0,0.0,0.0,0.0,0.0,0.0,0.0,0.0,0.0,0.0,0.0,0.0,0.0,0.0,0.0,0.0,0.0,0.0,0.0,0.0,0.0,0.0,0.0,0.0,0.0,0.0,0.0,-0.7975,-0.6673,-0.5609,-0.4974,-0.4142,-0.3691,-0.3844,-0.6669,-0.8297,-0.7934,0.0,0.0,0.0,0.0,0.0,0.0,0.0,0.0,0.0,0.0,0.0,0.0,0.0,0.0,0.0,0.0,0.0,0.0,0.0,0.0,0.0,0.0,0.0,0.0,0.0,0.0,0.0,0.0,0.0,0.0,0.0,0.0,0.0,0.0,0.0,0.0,0.0,0.0,0.0,0.0,0.0,0.0,0.0,0.0,0.0,0.0,0.0,0.0,0.0,0.0,0.0,0.0,0.0,0.0,0.0,0.0,0.0,0.0,0.0,0.0,0.0,0.0,0.0,0.0,0.0,0.0,0.0,0.0,0.0,0.0,0.0,0.0,0.0,0.0,0.0,0.0,0.0,0.0,0.0,0.0,0.0,0.0,0.0,0.0,0.0,0.0,0.0,0.0,0.0,0.0,0.0,0.0,0.0,0.0,0.0,0.0,0.0,0.0,0.0,0.0,0.0,0.0,-0.7155,-0.5776,-0.4635,-0.3957,-0.3232,-0.297,-0.3467,-0.6073,-0.8059,0.0,0.0,0.0,0.0,0.0,0.0,0.0,0.0,0.0,0.0,0.0,0.0,0.0,0.0,0.0,0.0,0.0,0.0,0.0,0.0,0.0,0.0,0.0,0.0,0.0,0.0,0.0,0.0,0.0,0.0,0.0,0.0,0.0,0.0,0.0,0.0,0.0,0.0,0.0,0.0,0.0,0.0,0.0,0.0,0.0,0.0,0.0,0.0,0.0,0.0,0.0,0.0,0.0,0.0,0.0,0.0,0.0,0.0,0.0,0.0,0.0,0.0,0.0,0.0,0.0,0.0,0.0,0.0,0.0,0.0,0.0,0.0,0.0,0.0,0.0,0.0,0.0,0.0,0.0,0.0,0.0,0.0,0.0,0.0,0.0,0.0,0.0,0.0,0.0,0.0,0.0,0.0,0.0,0.0,0.0,0.0,0.0,0.0,0.0,0.0,0.0,0.0,0.0,-0.6512,-0.5239,-0.4095,-0.3159,-0.2579,-0.2477,-0.3043,-0.5456,-0.7599,-0.9178,0.0,0.0,0.0,0.0,0.0,0.0,0.0,0.0,0.0,0.0,0.0,0.0,0.0,0.0,0.0,0.0,0.0,0.0,0.0,0.0,0.0,0.0,0.0,0.0,0.0,0.0,0.0,0.0,0.0,0.0,0.0,0.0,0.0,0.0,0.0,0.0,0.0,0.0,0.0,0.0,0.0,0.0,0.0,0.0,0.0,0.0,0.0,0.0,0.0,0.0,0.0,0.0,0.0,0.0,0.0,0.0,0.0,0.0,0.0,0.0,0.0,0.0,0.0,0.0,0.0,0.0,0.0,0.0,0.0,0.0,0.0,0.0,0.0,0.0,0.0,0.0,0.0,0.0,0.0,0.0,0.0,0.0,0.0,0.0,0.0,0.0,0.0,0.0,0.0,0.0,0.0,0.0,0.0,0.0,0.0,0.0,0.0,0.0,0.0,0.0,0.0,0.0,-0.5956,-0.4633,-0.3431,-0.235,-0.1873,-0.1851,-0.2383,-0.4611,-0.6856,-0.8999,0.0,0.0,0.0,0.0,0.0,0.0,0.0,0.0,0.0,0.0,0.0,0.0,0.0,0.0,0.0,0.0,0.0,0.0,0.0,0.0,0.0,0.0,0.0,0.0,0.0,0.0,0.0,0.0,0.0,0.0,0.0,0.0,0.0,0.0,0.0,0.0,0.0,0.0,0.0,0.0,0.0,0.0,0.0,0.0,0.0,0.0,0.0,0.0,0.0,0.0,0.0,0.0,0.0,0.0,0.0,0.0,0.0,0.0,0.0,0.0,0.0,0.0,0.0,0.0,0.0,0.0,0.0,0.0,0.0,0.0,0.0,0.0,0.0,0.0,0.0,0.0,0.0,0.0,0.0,0.0,0.0,0.0,0.0,0.0,0.0,0.0,0.0,0.0,0.0,0.0,0.0,0.0,0.0,0.0,0.0,0.0,0.0,0.0,0.0,0.0,0.0,0.0,-0.553,-0.4043,-0.2704,-0.1573,-0.1202,-0.1213,-0.1583,-0.3627,-0.5921,-0.8414,0.0,0.0,0.0,0.0,0.0,0.0,0.0,0.0,0.0,0.0,0.0,0.0,0.0,0.0,0.0,0.0,0.0,0.0,0.0,0.0,0.0,0.0,0.0,0.0,0.0,0.0,0.0,0.0,0.0,0.0,0.0,0.0,0.0,0.0,0.0,0.0,0.0,0.0,0.0,0.0,0.0,0.0,0.0,0.0,0.0,0.0,0.0,0.0,0.0,0.0,0.0,0.0,0.0,0.0,0.0,0.0,0.0,0.0,0.0,0.0,-1.5943,-1.5459,0.0,0.0,0.0,0.0,0.0,0.0,0.0,0.0,0.0,0.0,0.0,0.0,0.0,0.0,0.0,0.0,0.0,0.0,0.0,0.0,0.0,0.0,0.0,0.0,0.0,0.0,0.0,0.0,0.0,0.0,0.0,0.0,0.0,0.0,0.0,0.0,0.0,0.0,0.0,0.0,-0.531,-0.3703,-0.234,-0.1143,-0.0789,-0.0749,-0.1047,-0.2858,-0.5009,-0.7449,-0.9818,0.0,0.0,0.0,0.0,0.0,0.0,0.0,0.0,0.0,0.0,0.0,0.0,0.0,0.0,0.0,0.0,0.0,0.0,0.0,0.0,0.0,0.0,0.0,0.0,0.0,0.0,0.0,0.0,0.0,0.0,0.0,0.0,0.0,0.0,0.0,0.0,0.0,0.0,0.0,0.0,0.0,0.0,0.0,0.0,0.0,0.0,0.0,0.0,0.0,0.0,0.0,0.0,0.0,0.0,0.0,0.0,0.0,0.0,0.0,-1.688,-1.6508,0.0,0.0,0.0,0.0,0.0,0.0,0.0,0.0,0.0,0.0,0.0,0.0,0.0,0.0,0.0,0.0,0.0,0.0,0.0,0.0,0.0,0.0,0.0,0.0,0.0,0.0,0.0,0.0,0.0,0.0,0.0,0.0,0.0,0.0,0.0,0.0,0.0,0.0,0.0,0.0,-0.5476,-0.3616,-0.2039,-0.0841,-0.0518,-0.0499,-0.0676,-0.2137,-0.4011,-0.6278,-0.8697,0.0,0.0,0.0,0.0,0.0,0.0,0.0,0.0,0.0,0.0,0.0,0.0,0.0,0.0,0.0,0.0,0.0,0.0,0.0,0.0,0.0,0.0,0.0,0.0,0.0,0.0,0.0,0.0,0.0,0.0,0.0,0.0,0.0,0.0,0.0,0.0,0.0,0.0,0.0,0.0,0.0,0.0,0.0,0.0,0.0,0.0,0.0,0.0,0.0,0.0,0.0,0.0,0.0,-1.896,-1.8121,-1.6525,-1.6232,-1.558,-1.4677,-1.499,-1.5438,-1.5854,-1.5532,0.0,0.0,0.0,0.0,0.0,0.0,0.0,0.0,0.0,0.0,0.0,0.0,0.0,0.0,0.0,0.0,0.0,0.0,0.0,0.0,0.0,0.0,-1.19,-1.1206,-1.0913,-1.1622,-1.4535,0.0,0.0,0.0,0.0,0.0,0.0,0.0,0.0,0.0,0.0,0.0,-0.5671,-0.3531,-0.1805,-0.0626,-0.0325,-0.0283,-0.0337,-0.1396,-0.2931,-0.4939,-0.7293,-0.9636,0.0,0.0,0.0,0.0,0.0,0.0,0.0,0.0,0.0,0.0,0.0,0.0,0.0,0.0,0.0,0.0,0.0,0.0,0.0,0.0,0.0,0.0,0.0,0.0,0.0,0.0,0.0,0.0,0.0,0.0,0.0,0.0,0.7503,0.6568,0.0,0.0,0.0,0.0,0.0,0.0,0.0,0.0,0.0,0.0,0.0,0.0,0.0,-2.0454,-2.0572,-2.0372,-1.9418,-1.773,-1.9163,-1.7169,-1.2183,-1.0592,-0.9078,-0.7717,-0.7258,0.0,-1.4603,-1.4227,0.0,0.0,0.0,0.0,0.0,0.0,0.0,0.0,0.0,0.0,0.0,0.0,0.0,0.0,0.0,0.0,0.0,0.0,0.0,0.0,0.0,0.0,-1.0354,-0.9104,-0.8888,-0.9336,-1.078,-1.3479,-1.5963,-1.6993,-1.8038,-1.8756,0.0,0.0,0.0,0.0,0.0,0.0,-0.5311,-0.3252,-0.1698,-0.055,-0.014,0.0102,0.0202,-0.06,-0.1731,-0.3233,-0.5483,-0.783,-1.0218,-1.2173,0.0,0.0,0.0,0.0,0.0,0.0,0.0,0.0,0.0,0.0,0.0,0.0,0.0,0.0,0.0,0.0,0.0,0.0,0.0,0.0,0.0,0.0,0.0,0.0,0.0,0.0,0.0,0.0,0.0,0.7674,0.5495,0.3791,0.1505,-0.0703,0.0,0.0,0.0,0.0,0.0,0.0,0.0,0.0,0.0,-1.9834,-2.0456,-2.024,-1.9068,-1.7622,-1.5426,-1.2492,-1.1298,-0.8504,-0.4351,-0.3019,-0.1617,-0.0196,0.0161,-0.1111,-0.378,-0.7557,-0.9285,-0.9655,0.0,0.0,0.0,0.0,-1.9168,-2.1042,-2.2742,-2.3267,-2.32,-2.3232,0.0,0.0,0.0,0.0,0.0,0.0,0.0,-1.3383,-1.1487,-0.9823,-0.8375,-0.7531,-0.7088,-0.7126,-0.8151,-0.9805,-1.1857,-1.449,-1.5929,-1.6673,-1.6578,-1.6208,0.0,0.0,0.0,-0.798,-0.505,-0.306,-0.1439,-0.0352,0.0102,0.0403,0.0571,0.0267,-0.0363,-0.1356,-0.3278,-0.5391,-0.7667,-1.0075,-1.2459,0.0,0.0,0.0,0.0,0.0,0.0,0.0,0.0,0.0,0.0,0.0,0.0,0.0,0.0,0.0,0.0,0.0,0.0,0.0,0.0,0.0,0.0,0.0,0.0,0.0,0.0,0.0,0.0,0.4957,0.2676,0.0209,-0.1722,-0.3616,0.0,0.0,0.0,0.0,0.0,0.0,-1.7539,-1.8627,-1.9432,-1.9985,-1.9219,-1.7602,-1.5158,-1.243,-0.9291,-0.5639,-0.2195,0.1003,0.3941,0.5708,0.6842,0.74,0.758,0.7665,0.7113,0.009,-0.3269,-0.4143,-0.5883,-0.7878,-1.0225,-1.3923,-1.7103,-1.9891,-2.199,-2.296,-2.3183,-2.2758,-2.179,-2.0701,-2.0293,0.0,0.0,0.0,0.0,-1.1216,-0.9677,-0.7991,-0.654,-0.6095,-0.5511,-0.5303,-0.6009,-0.65,-0.7928,-1.1694,-1.3362,-1.4053,-1.3848,-1.368,0.0,-1.1233,-0.9096,-0.6823,-0.448,-0.2646,-0.1165,-0.0102,0.0403,0.0772,0.1008,0.1104,0.0897,0.0361,-0.1136,-0.2926,-0.5008,-0.775,-1.0527,-1.3322,0.0,0.0,0.0,0.0,0.0,0.0,0.0,0.0,0.0,0.0,0.0,0.0,0.0,0.0,0.0,0.0,0.0,0.0,0.0,0.0,0.0,0.0,0.0,0.0,0.0,0.0,0.0,0.0,0.0,-0.3351,-0.548,0.0,0.0,0.0,0.0,-1.2551,-1.4403,-1.6575,-1.9143,-1.9172,-1.8719,-1.787,-1.5081,-1.1922,-0.8406,-0.4608,-0.1057,0.2257,0.5746,0.8818,1.1485,1.561,1.6558,1.4956,1.5088,1.502,1.4224,0.7182,0.3621,0.2394,0.0286,-0.1778,-0.4164,-0.9224,-1.3331,-1.6717,-1.9435,-2.133,-2.2309,-2.0771,-1.9514,-1.8353,-1.7185,-1.6161,0.0,0.0,-1.0626,-0.8917,-0.7452,-0.6133,-0.5099,-0.4604,-0.4246,-0.4015,-0.414,-0.4337,-0.5459,-0.884,-1.0329,-1.0987,-1.0823,0.0,-1.0301,-0.8624,-0.7124,-0.5411,-0.3257,-0.1943,-0.0828,0.017,0.0804,0.1306,0.1642,0.1871,0.1963,0.1821,0.0816,-0.0599,-0.2506,-0.5342,-0.849,-1.1931,-1.4025,0.0,0.0,0.0,0.0,0.0,0.0,0.0,0.0,0.0,0.0,0.0,0.0,0.0,0.0,0.0,0.0,0.0,0.0,0.0,0.0,0.0,0.0,0.0,0.0,0.0,0.0,0.0,0.0,-0.7909,-0.8709,0.0,-1.1284,-1.1162,-1.1443,-1.2511,-1.5169,-1.545,-1.247,-1.3352,-1.2329,-0.8729,-0.5665,-0.2758,-0.0072,0.3545,0.7087,1.0491,1.353,1.6168,1.8447,2.0134,2.0675,2.034,2.0323,2.0154,1.9678,1.7161,1.3507,0.9278,0.729,0.509,0.2603,-0.0583,-0.4544,-0.8566,-1.086,-1.3126,-1.5077,-1.527,-1.5064,-1.4536,-1.3571,-1.2614,-1.1491,-0.9456,-0.7632,-0.6079,-0.4975,-0.385,-0.2909,-0.2561,-0.2167,-0.1857,-0.1851,-0.1846,-0.2266,-0.376,-0.576,-0.7223,-0.7293,-0.7231,-0.6862,-0.5873,-0.4819,-0.3599,-0.219,-0.1098,-0.0145,0.061,0.1174,0.1707,0.2109,0.2504,0.2768,0.2798,0.215,0.1103,-0.0347,-0.3048,-0.6099,-0.9456,-1.1802,-1.3738,0.0,0.0,0.0,0.0,0.0,0.0,0.0,0.0,0.0,0.0,0.0,0.0,0.0,0.0,0.0,0.0,0.0,0.0,0.0,0.0,0.0,0.0,0.0,0.0,0.0,-0.8156,-1.0906,-1.2375,-1.2091,-1.1934,-1.2348,-1.1736,-1.1021,-1.0264,-1.3861,-1.3157,-0.6436,-0.5986,-0.4344,-0.0853,0.1423,0.4443,0.8301,1.1427,1.4485,1.7494,1.9698,2.1573,2.3083,2.2957,2.3082,2.3366,2.3329,2.3179,2.2987,2.321,2.0789,1.6697,1.4143,1.189,0.9656,0.6635,0.2726,-0.1503,-0.5006,-0.7283,-0.877,-0.9606,-0.9795,-0.9626,-0.9115,-0.846,-0.7581,-0.6144,-0.4701,-0.3426,-0.2597,-0.1685,-0.0861,-0.0543,-0.0134,0.0222,0.0354,0.0443,0.0398,0.0088,-0.2047,-0.3902,-0.4085,-0.4003,-0.3752,-0.3296,-0.2597,-0.184,-0.0978,-0.0187,0.0533,0.108,0.1609,0.2109,0.251,0.2973,0.3274,0.341,0.297,0.2285,0.128,-0.1221,-0.3951,-0.6963,-1.0103,-1.2348,-1.3668,0.0,0.0,0.0,0.0,0.0,0.0,0.0,0.0,0.0,0.0,0.0,0.0,0.0,0.0,0.0,0.0,0.0,0.0,0.0,0.0,0.0,0.0,0.0,-1.1089,-1.1844,-1.3659,-1.6496,-1.5524,-1.4484,-1.4147,-1.1806,-0.901,-0.5875,-1.0258,-0.9498,-0.1323,0.246,0.4696,0.5338,0.5914,0.9556,1.6458,1.8818,2.0974,2.2982,2.4099,2.4818,2.5187,2.4456,2.4142,2.4127,2.4127,2.4141,2.417,2.4843,2.4943,2.4341,2.0598,1.8423,1.6799,1.2088,0.8042,0.4022,-0.2333,-0.4276,-0.398,-0.4033,-0.3864,-0.3648,-0.3946,-0.3772,-0.3324,-0.2645,-0.1861,-0.0994,-0.0296,0.0341,0.0901,0.1372,0.1789,0.2184,0.249,0.2583,0.2541,0.2406,0.0531,-0.1104,-0.1286,-0.1331,-0.1244,-0.089,-0.0645,0.0,0.0354,0.071,0.1099,0.1583,0.2109,0.251,0.2782,0.3241,0.3532,0.3602,0.334,0.2907,0.2311,0.0145,-0.2219,-0.4657,-0.8961,-1.1417,-1.1885,0.0,0.0,0.0,0.0,0.0,0.0,0.0,0.0,0.0,0.0,0.0,0.0,0.0,0.0,0.0,0.0,0.0,0.0,0.0,0.0,0.0,-1.5221,-1.5523,-1.3839,-1.5711,-1.731,-1.7441,-1.4459,-1.1874,-1.0589,-0.6322,-0.2662,-0.0281,-0.2029,0.1414,1.2003,1.0115,1.077,1.5265,1.6925,1.8979,2.1583,2.2755,2.3755,2.4569,2.4938,2.5148,2.5194,2.4899,2.4788,2.4834,2.4822,2.4846,2.4911,2.5092,2.5107,2.4814,2.308,2.1845,2.0789,1.8721,1.457,0.9348,0.5276,0.2859,0.1514,0.1025,0.0686,0.0385,-0.0129,-0.0088,0.0137,0.0417,0.1095,0.1764,0.2089,0.2627,0.3099,0.3438,0.3797,0.4105,0.4388,0.4295,0.4123,0.3943,0.2937,0.177,0.0622,0.0267,0.0134,0.0268,0.0419,0.0674,0.1136,0.1452,0.1737,0.2075,0.2444,0.2779,0.301,0.3175,0.3303,0.3392,0.3039,0.2656,0.2229,0.0524,-0.1984,-0.522,-0.7496,-0.8807,0.0,0.0,0.0,0.0,0.0,0.0,0.0,0.0,0.0,0.0,0.0,0.0,0.0,0.0,0.0,0.0,0.0,0.0,0.0,0.0,0.0,0.0,-1.7157,-1.6308,-1.4247,-1.5683,-1.6175,-1.4015,-1.0543,-0.7243,-0.4489,-0.0329,0.3377,0.6275,0.5996,0.948,1.8198,1.604,1.6455,2.0644,2.222,2.3397,2.4303,2.476,2.5086,2.5234,2.5227,2.5178,2.5118,2.4968,2.4947,2.5013,2.4981,2.4998,2.5027,2.4965,2.4935,2.4834,0.0,0.0,0.0,0.0,1.7374,1.2989,1.0366,0.8074,0.6165,0.5346,0.4647,0.4029,0.3306,0.3138,0.317,0.3034,0.3351,0.3786,0.3959,0.4244,0.4599,0.5048,0.5287,0.5522,0.5911,0.5763,0.5508,0.5241,0.4625,0.0,0.263,0.1917,0.1521,0.1521,0.1617,0.1794,0.2034,0.2185,0.2338,0.2537,0.2838,0.3039,0.3175,0.3274,0.0,0.0,0.0,0.2401,0.1692,0.0316,0.0,0.0,0.0,-0.6222,-0.6574,-0.6338,0.0,0.0,-0.7939,-0.7656,0.0,0.0,0.0,0.0,0.0,0.0,0.0,0.0,0.0,0.0,0.0,0.0,0.0,0.0,0.0,0.0,-1.7282,-1.5251,-1.2416,-1.2027,-1.0935,-0.8015,-0.4644,-0.1165,0.2402,0.5837,0.9328,1.285,1.3315,1.5306,1.9547,2.0189,0.0,0.0,0.0,2.4371,2.5302,2.5367,2.5333,2.5272,2.5128,2.5012,2.4955,2.4813,2.4798,2.4861,2.478,2.4743,2.4719,2.4603,2.4489,2.4429,2.4493,2.4205,2.3438,2.048,1.7726,1.5184,1.3351,0.0,0.0,0.8767,0.7883,0.708,0.6267,0.5906,0.5682,0.5208,0.5172,0.5335,0.5508,0.5535,0.5722,0.6339,0.6489,0.664,0.7133,0.7013,0.6673,0.6296,0.5667,0.5079,0.4481,0.3524,0.2818,0.2818,0.287,0.2901,0.2933,0.2908,0.2918,0.297,0.0,0.0,0.3344,0.3456,0.3437,0.329,0.2897,0.2114,0.0961,-0.0084,-0.1152,-0.2293,-0.3128,-0.3778,-0.4117,-0.3777,-0.3491,-0.3257,-0.4618,-0.496,0.0,0.0,0.0,0.0,0.0,0.0,0.0,0.0,0.0,0.0,0.0,0.0,0.0,0.0,0.0,-1.7058,-1.4179,-1.0783,-0.7064,-0.27,-0.0862,-0.3478,0.1775,0.5417,0.4871,1.1378,1.5821,1.6279,1.7757,1.9093,2.0134,2.0862,2.1738,2.2754,2.3669,2.4537,2.5363,2.5298,2.5217,2.5128,2.4898,0.0,2.4666,2.4543,2.451,2.4575,2.4508,2.4456,2.4403,2.4247,2.3888,2.3422,2.3802,2.3086,2.1628,2.0008,1.7853,1.5506,1.3887,1.2373,1.1022,1.0167,0.932,0.8501,0.7963,0.7607,0.0,0.6997,0.6952,0.702,0.7069,0.7149,0.727,0.7529,0.7717,0.7896,0.8105,0.777,0.7282,0.6924,0.6148,0.5449,0.5009,0.4136,0.3565,0.3646,0.3581,0.3578,0.3671,0.365,0.3599,0.3554,0.3695,0.3728,0.3639,0.3612,0.3471,0.3222,0.2698,0.1974,0.1005,0.0519,-0.0177,-0.1026,-0.1426,-0.169,-0.1818,-0.1504,-0.1154,-0.08,-0.2121,-0.2411,0.0,0.0,0.0,0.0,0.0,0.0,0.0,0.0,0.0,0.0,0.0,-1.8749,-1.8035,0.0,-1.5063,-1.2683,-0.8882,-0.4648,-0.0219,0.5266,0.7864,0.5231,0.9083,1.2415,1.3585,1.7643,2.0128,1.9974,2.0826,2.1369,2.1406,2.1738,2.2354,2.3221,2.3767,2.4447,2.5244,2.5148,2.5037,2.491,2.4697,2.4556,2.451,2.4373,2.4356,2.4428,2.4284,2.4136,2.4022,2.3717,2.3294,2.2772,2.2726,2.1962,2.0747,1.9434,1.7835,1.6114,1.4779,1.352,1.2417,1.1668,1.0924,1.0165,0.9606,0.9176,0.8806,0.8397,0.8247,0.815,0.815,0.8096,0.8096,0.8315,0.8368,0.8474,0.8633,0.8423,0.8088,0.7605,0.6984,0.6361,0.5766,0.5135,0.47,0.4478,0.4493,0.4536,0.4512,0.4502,0.4438,0.4302,0.4392,0.4398,0.4226,0.3899,0.3586,0.3282,0.2838,0.2296,0.1688,0.1325,0.0849,0.0224,0.0,-0.0179,-0.0357,0.0089,0.0465,0.0804,0.0512,0.0371,0.0,0.0,0.0,0.0,0.0,0.0,0.0,-2.1681,-2.22,-2.113,-1.9649,-1.8011,-1.6245,-1.3293,-1.0001,-0.6649,-0.2292,0.233,0.7067,1.2228,1.5345,1.4895,1.646,1.8814,2.2039,2.2693,2.2903,2.2863,2.2697,2.2562,2.2481,2.2583,2.2949,2.3636,2.3911,2.4372,2.501,2.4962,2.4836,2.4642,2.4512,2.4408,2.4355,2.421,2.4192,2.4266,2.3996,2.3792,2.3624,2.3182,2.2799,2.2337,2.1698,2.0974,2.0135,1.8919,1.7746,1.6629,1.549,1.4501,1.3563,1.2939,1.2255,1.1519,1.099,1.0525,1.002,0.9517,0.9204,0.8928,0.8935,0.8732,0.8586,0.8804,0.8798,0.8738,0.9008,0.8956,0.8696,0.8248,0.7798,0.7238,0.6431,0.6076,0.5712,0.5193,0.5334,0.5408,0.5197,0.5264,0.5235,0.5001,0.5001,0.4909,0.4649,0.4128,0.3693,0.3392,0.3116,0.2821,0.2415,0.2105,0.1748,0.1254,0.1164,0.103,0.076,0.1309,0.1693,0.201,0.2635,0.2628,0.5429,-0.1054,-0.8059,-1.1878,-1.7195,-2.1803,0.0,-2.3233,-2.2557,-2.0329,-1.7355,-1.4078,-1.0586,-0.6467,-0.2519,0.0859,0.5296,0.9847,1.4092,1.7893,2.0989,2.3008,2.3165,2.3245,2.3566,2.3842,2.3844,2.3443,2.2911,2.2532,2.2426,2.3035,2.3427,2.3512,2.4242,2.4647,2.4749,2.4685,2.4572,2.4424,2.4284,2.4229,2.4228,2.4036,2.3917,2.3858,2.3594,2.3319,2.3077,2.2825,2.2463,2.1982,2.118,2.032,1.9411,1.8541,1.7599,1.6582,1.5457,1.4593,1.3884,1.3457,1.2745,1.1977,1.1819,1.1217,1.0565,1.0198,0.9829,0.9458,0.9361,0.9159,0.8956,0.9106,0.9061,0.9008,0.9309,0.9159,0.8912,0.872,0.8197,0.7517,0.6875,0.6423,0.604,0.5663,0.569,0.5677,0.5468,0.5573,0.5544,0.5288,0.5152,0.4901,0.4459,0.4041,0.3742,0.3588,0.3435,0.3132,0.2684,0.2598,0.2328,0.1748,0.1884,0.1884,0.1658,0.2231,0.2704,0.2968,0.3491,0.3565,0.3293,-0.279,-0.8672,-1.501,-1.9708,-2.2598,-2.1969,-2.0831,-1.8972,-1.5858,-1.2047,-0.7997,-0.3667,0.0757,0.4956,0.8588,1.2258,1.5787,1.9,2.1434,2.3381,2.4778,2.4869,2.4803,2.4749,2.4803,2.4726,2.4454,2.4049,2.3785,2.369,2.3905,2.4027,2.4008,2.4344,2.453,2.4532,2.4497,2.4409,2.4284,2.4229,2.4152,2.4074,2.3837,2.3584,2.3324,2.3175,2.2927,2.2632,2.2436,2.2084,2.1584,2.0878,2.0093,1.9163,1.8274,1.7381,1.6466,1.5635,1.4949,1.434,1.3978,1.3409,1.2793,1.2491,1.2008,1.1427,1.1065,1.0557,1.0095,0.9947,0.9577,0.9263,0.9413,0.9309,0.9316,0.9577,0.9472,0.9268,0.9062,0.8543,0.7858,0.722,0.669,0.6238,0.5769,0.5752,0.5754,0.5624,0.5686,0.5647,0.5348,0.5086,0.4795,0.4503,0.4081,0.3806,0.3656,0.3575,0.3353,0.2996,0.2904,0.2682,0.2239,0.2449,0.249,0.2347,0.2906,0.326,0.3482,0.3847,0.4,0.3526,-0.2001,-0.715,-1.5516,-1.935,-2.07,-1.9285,-1.6641,-1.3457,-0.9781,-0.5412,-0.0883,0.3657,0.7988,1.1989,1.5352,1.7929,2.024,2.2295,2.3561,2.4507,2.5072,2.5253,2.5322,2.5348,2.5303,2.5231,2.5069,2.4818,2.4639,2.4528,2.4393,2.4321,2.4284,2.4321,2.4321,2.4321,2.434,2.4284,2.421,2.4152,2.4054,2.3937,2.3624,2.3259,2.2919,2.2842,2.2605,2.2304,2.2084,2.1688,2.1134,2.0483,1.9722,1.8869,1.7987,1.7188,1.6466,1.5824,1.5277,1.4801,1.4444,1.3978,1.342,1.3016,1.254,1.2026,1.1619,1.0964,1.0411,1.0265,0.9792,0.9413,0.9621,0.9569,0.9517,0.9792,0.9681,0.9496,0.922,0.8659,0.7955,0.7291,0.6711,0.6155,0.5604,0.5516,0.5545,0.5644,0.5627,0.5541,0.5282,0.4925,0.4626,0.4368,0.4056,0.3836,0.3704,0.3619,0.3506,0.3269,0.3146,0.297,0.2655,0.2893,0.2967,0.2867,0.3388,0.3731,0.3828,0.4128,0.4415,0.8368,0.2483,-0.3693,-1.1842,-1.4672,-1.5385,-1.5131,-1.1006,-0.6156,-0.2299,0.2413,0.7107,1.1219,1.5061,1.8358,2.0602,2.1868,2.2873,2.3712,2.4229,2.4629,2.4968,2.508,2.5126,2.5198,2.5201,2.5157,2.5006,2.4746,2.4524,2.4318,2.4192,2.4078,2.4016,2.4074,2.4113,2.4113,2.417,2.419,2.419,2.3996,2.3876,2.3795,2.3324,2.297,2.2712,2.2569,2.2371,2.2096,2.1811,2.1308,2.0665,1.9904,1.9089,1.8266,1.7558,1.7034,1.6595,1.6001,1.5558,1.522,1.4789,1.4258,1.3716,1.3314,1.2696,1.2026,1.1619,1.0863,1.0198,1.0051,0.9636,0.9316,0.9688,0.9681,0.9666,0.9947,0.9681,0.9361,0.9249,0.8501,0.7723,0.7007,0.6355,0.5729,0.5188,0.4894,0.4935,0.5438,0.5353,0.5176,0.513,0.4736,0.4368,0.3968,0.3836,0.3748,0.3622,0.3581,0.3552,0.341,0.3405,0.3285,0.3,0.3246,0.3376,0.327,0.3844,0.4085,0.4092,0.4501,0.4736,0.8378,0.3711,-0.0754,-0.7994,-0.9229,-0.8187,-0.62,-0.0081,0.5476,0.6615,1.021,1.4199,1.7567,2.0222,2.2183,2.3097,2.342,2.3656,2.4002,2.4192,2.4456,2.4823,2.4968,2.5038,2.5,2.5076,2.5004,2.4697,2.4458,2.4248,2.4058,2.3959,2.3899,2.3876,2.3976,2.4054,2.4094,2.417,2.419,2.4208,2.3917,2.3624,2.3324,2.3028,2.2738,2.2432,2.226,2.1998,2.1688,2.1354,2.0878,2.0208,1.9477,1.875,1.8028,1.7462,1.7031,1.662,1.6188,1.5836,1.5513,1.5096,1.4547,1.3988,1.3457,1.2842,1.2126,1.1628,1.0863,1.0154,1.0051,0.9681,0.942,0.9844,0.9844,0.9732,0.9829,0.9458,0.8981,0.856,0.7877,0.716,0.6541,0.6002,0.5556,0.5067,0.4801,0.4751,0.4952,0.4853,0.4719,0.4719,0.4373,0.4092,0.3996,0.3767,0.3705,0.3714,0.3721,0.3695,0.3691,0.3661,0.3624,0.3482,0.3724,0.385,0.385,0.417,0.4392,0.4504,0.4714,0.5014,0.9561,0.5806,0.2665,-0.2525,-0.2948,-0.1182,0.2203,0.807,1.3411,1.5401,1.7568,1.984,2.2115,2.3465,2.4229,2.4232,2.3951,2.3744,2.3764,2.3792,2.3989,2.4498,2.4678,2.4741,2.4718,2.47,2.4626,2.4403,2.4192,2.3959,2.3735,2.3667,2.3642,2.3602,2.3813,2.3976,2.4016,2.4151,2.4151,2.4036,2.3795,2.3445,2.2995,2.2773,2.248,2.2123,2.1899,2.1615,2.1229,2.0845,2.0296,1.963,1.8902,1.8263,1.7639,1.7144,1.6791,1.6547,1.6362,1.6013,1.5671,1.5198,1.4582,1.3931,1.3304,1.2598,1.1927,1.1427,1.0702,1.0035,0.9947,0.9681,0.9465,0.9784,0.974,0.9577,0.9458,0.8981,0.8343,0.7759,0.7128,0.6539,0.5991,0.5559,0.5183,0.4791,0.4665,0.4687,0.4734,0.4637,0.4502,0.4502,0.4259,0.4068,0.402,0.3886,0.3825,0.3866,0.3873,0.3892,0.3888,0.3891,0.3869,0.3822,0.4012,0.4164,0.4271,0.4474,0.4688,0.4853,0.5069,0.5395,1.1846,0.8681,0.6371,0.4168,0.4055,0.5543,0.9717,1.3398,1.7578,2.3413,2.4081,2.3897,2.4898,2.4919,2.4663,2.4174,2.3619,2.3236,2.3141,2.3111,2.332,2.4006,2.4192,2.4318,2.4372,2.4155,2.4044,2.4155,2.3905,2.3631,2.3392,2.3371,2.336,2.3289,2.3602,2.3816,2.3896,2.4094,2.4074,2.3795,2.3671,2.3312,2.2773,2.2588,2.2215,2.1751,2.1479,2.115,2.0795,2.0258,1.963,1.8887,1.8238,1.7625,1.7115,1.665,1.6436,1.6362,1.6349,1.6088,1.5647,1.504,1.434,1.3627,1.2803,1.2049,1.1377,1.0972,1.0344,0.9769,0.9792,0.9577,0.9413,0.9562,0.9361,0.9099,0.8778,0.8196,0.7503,0.6961,0.6372,0.5778,0.5336,0.4959,0.4632,0.4519,0.4519,0.4574,0.4842,0.4659,0.4516,0.4516,0.4328,0.4136,0.4033,0.4129,0.4125,0.4029,0.4033,0.3999,0.4039,0.4042,0.4053,0.4021,0.4135,0.4301,0.4515,0.4688,0.4853,0.5179,0.5508,0.5887,1.1415,0.9443,0.8062,0.7647,0.9142,1.1562,1.4788,1.8059,2.1238,2.4019,2.4767,2.5158,2.589,2.5533,2.4891,2.4283,2.4,2.3522,2.252,2.2677,2.3088,2.3666,2.3926,2.4099,2.4174,2.402,2.3878,2.375,2.3414,2.317,2.3109,2.3151,2.3193,2.3217,2.3558,2.3795,2.3896,2.4054,2.4016,2.3795,2.3602,2.3218,2.2652,2.2292,2.1836,2.1275,2.0894,2.0481,2.0035,1.9507,1.8887,1.8288,1.7706,1.7201,1.6765,1.6392,1.6144,1.5913,1.568,1.549,1.5311,1.4479,1.3779,1.3054,1.2236,1.156,1.0972,1.0514,1.0035,0.9666,0.9673,0.9361,0.9159,0.9256,0.8949,0.8474,0.809,0.7503,0.6907,0.6322,0.5668,0.512,0.4904,0.4684,0.4519,0.4519,0.4519,0.4515,0.4574,0.4539,0.4515,0.4515,0.433,0.4192,0.4137,0.4087,0.407,0.413,0.4137,0.4204,0.4344,0.4351,0.4368,0.4353,0.4522,0.4632,0.4791,0.5011,0.534,0.5782,0.6086,0.6509,1.0543,0.9742,0.9527,1.0425,1.2805,1.5623,1.8297,2.1084,2.3502,2.47,2.5515,2.6049,2.6149,2.5748,2.5126,2.4317,2.3862,2.3285,2.2292,2.2512,2.2936,2.3289,2.3606,2.3837,2.3959,2.3876,2.3747,2.3531,2.3218,2.3003,2.2902,2.2919,2.297,2.302,2.3371,2.3646,2.3837,2.3917,2.3855,2.3664,2.3463,2.3025,2.2368,2.1903,2.1336,2.0682,2.0246,1.9808,1.9317,1.8765,1.8249,1.7706,1.7146,1.671,1.6337,1.5944,1.5691,1.5424,1.4903,1.4663,1.4433,1.3826,1.3112,1.2335,1.171,1.1065,1.0573,1.0308,0.994,0.9562,0.951,0.9204,0.8896,0.8791,0.8368,0.7889,0.7461,0.6977,0.6376,0.5727,0.5179,0.4794,0.4688,0.4632,0.4629,0.468,0.4629,0.4574,0.4574,0.4519,0.4519,0.4519,0.4392,0.4341,0.4341,0.4263,0.425,0.4338,0.4341,0.4379,0.4515,0.4519,0.4519,0.4574,0.4739,0.4904,0.5234,0.5496,0.5882,0.6386,0.6686,0.7052,0.9855,1.0116,1.0983,1.2685,1.5451,1.8332,2.0533,2.2884,2.4764,2.531,2.6067,2.6443,2.5941,2.5576,2.5094,2.4245,2.3571,2.2971,2.2388,2.2654,2.2958,2.3102,2.3342,2.3571,2.3795,2.3747,2.362,2.3455,2.3188,2.2995,2.279,2.2712,2.2738,2.285,2.3217,2.3526,2.3774,2.3774,2.3646,2.3458,2.3212,2.2704,2.1994,2.1425,2.0782,2.0035,1.9543,1.908,1.8592,1.8068,1.7571,1.7105,1.6625,1.6207,1.5856,1.5355,1.5096,1.4869,1.4165,1.3742,1.342,1.3122,1.2442,1.166,1.1175,1.0667,1.0265,1.0265,0.9888,0.951,0.9361,0.8988,0.8567,0.8215,0.7788,0.7306,0.6987,0.6554,0.6009,0.5289,0.4908,0.4743,0.4691,0.4691,0.4743,0.4901,0.4794,0.4691,0.4691,0.4574,0.4519,0.4519,0.4519,0.4519,0.4519,0.4519,0.4519,0.4519,0.4519,0.4519,0.4519,0.4519,0.4577,0.4743,0.4904,0.523,0.5673,0.5987,0.6421,0.7041,0.7295,0.761,1.0829,1.1684,1.2801,1.4381,1.7231,1.998,2.134,2.3506,2.5312,2.5522,2.5615,2.5599,2.5502,2.4737,2.399,2.3667,2.3883,2.3786,2.2893,2.3161,2.3523,2.3636,2.3576,2.3616,2.3855,2.381,2.3725,2.3584,2.3116,2.279,2.2632,2.2605,2.2816,2.3193,2.3336,2.3481,2.3631,2.358,2.3463,2.3253,2.2781,2.2169,2.15,2.0798,2.0058,1.9354,1.8755,1.8212,1.772,1.7325,1.6909,1.6441,1.6051,1.5712,1.5355,1.488,1.4558,1.4269,1.3695,1.3276,1.2852,1.2353,1.1909,1.1418,1.082,1.047,1.0265,0.9955,0.9584,0.9263,0.9113,0.8468,0.7883,0.7777,0.7413,0.6987,0.6933,0.6544,0.5996,0.5391,0.512,0.4963,0.4743,0.4691,0.4743,0.4901,0.4794,0.4691,0.4691,0.4574,0.4519,0.4519,0.4519,0.4519,0.4519,0.4519,0.4519,0.4519,0.4519,0.4574,0.4688,0.4688,0.4798,0.5018,0.5344,0.5673,0.61,0.6647,0.7133,0.7563,0.7889,0.8209,1.3289,1.4096,1.5145,1.695,1.9104,2.1139,2.2543,2.4212,2.5526,2.5598,2.5725,2.5693,2.5264,2.4658,2.4121,2.3816,2.3887,2.3919,2.3756,2.4005,2.4228,2.4305,2.4025,2.3987,2.4426,2.4021,2.3703,2.3566,2.3091,2.2738,2.2623,2.2497,2.2561,2.2773,2.2935,2.306,2.3129,2.3056,2.2908,2.2625,2.2113,2.15,2.0798,2.0097,1.9346,1.8612,1.804,1.753,1.7047,1.6667,1.6225,1.5788,1.5478,1.5073,1.4674,1.4326,1.3999,1.3695,1.3286,1.2958,1.2666,1.2116,1.1719,1.1326,1.0769,1.047,1.0265,1.0007,0.9532,0.9061,0.8844,0.8203,0.7568,0.7521,0.7252,0.6982,0.6815,0.6485,0.6046,0.5441,0.5117,0.4956,0.4849,0.4794,0.4849,0.5069,0.4959,0.4794,0.4794,0.4629,0.4519,0.4519,0.4519,0.4519,0.4519,0.4519,0.4519,0.4519,0.4574,0.4684,0.4794,0.4956,0.5175,0.5563,0.5837,0.6268,0.6745,0.7182,0.7616,0.8043,0.8315,0.8527,1.5708,1.6442,1.7405,1.9185,2.0732,2.2167,2.3546,2.4783,2.5609,2.5586,2.5732,2.5628,2.4838,2.439,2.4071,2.3905,2.3671,2.3752,2.4531,2.462,2.471,2.49,2.4538,2.4521,2.5103,2.4356,2.3804,2.3682,2.3005,2.2535,2.2453,2.2287,2.2215,2.2248,2.2446,2.2571,2.2581,2.2493,2.2269,2.1919,2.1425,2.0782,2.0058,1.9346,1.8636,1.7907,1.734,1.6854,1.6454,1.602,1.5579,1.522,1.4858,1.449,1.4035,1.3763,1.3525,1.3286,1.2968,1.2783,1.2578,1.2076,1.1628,1.1276,1.082,1.0514,1.0213,0.9947,0.9427,0.8844,0.858,0.7996,0.7413,0.7311,0.7198,0.7085,0.6761,0.6485,0.6046,0.55,0.5171,0.4956,0.4901,0.4897,0.4956,0.5183,0.5014,0.4897,0.4897,0.4736,0.457,0.457,0.4515,0.4519,0.4519,0.4519,0.4519,0.4519,0.4688,0.4853,0.5066,0.5281,0.5668,0.6168,0.6436,0.6864,0.745,0.7723,0.8049,0.8421,0.858,0.8692,1.7162,1.8067,1.9098,2.0147,2.1765,2.329,2.3922,2.4907,2.5659,2.5539,2.5139,2.4588,2.3781,2.3088,2.2779,2.337,2.3124,2.3401,2.4853,2.4681,2.4631,2.5195,2.5099,2.5162,2.5608,2.4864,2.4304,2.4212,2.2777,2.1899,2.194,2.1899,2.1899,2.201,2.2039,2.2124,2.2248,2.2068,2.1761,2.1364,2.0716,2.0058,1.9346,1.8511,1.7854,1.7353,1.6685,1.6182,1.5876,1.5534,1.5096,1.4662,1.4373,1.4035,1.361,1.3362,1.319,1.3075,1.2832,1.2627,1.2421,1.2026,1.1719,1.1377,1.0871,1.0462,1.0095,0.9569,0.9047,0.8573,0.8321,0.7794,0.7311,0.7144,0.7198,0.7149,0.6761,0.6544,0.6218,0.5673,0.5403,0.5183,0.4956,0.4897,0.4897,0.4956,0.4901,0.4897,0.4897,0.4901,0.4846,0.4846,0.4625,0.4519,0.4519,0.4632,0.4688,0.4688,0.4908,0.5179,0.5508,0.5782,0.6218,0.6825,0.7079,0.745,0.7818,0.815,0.8421,0.8573,0.8745,0.8804,1.9247,1.9698,2.0391,2.1743,2.2697,2.3568,2.4592,2.5245,2.559,2.5424,2.4945,2.4345,2.3569,2.3193,2.2988,2.2975,2.3158,2.3763,2.503,2.5161,2.5472,2.6444,2.6048,2.5917,2.644,2.5316,2.4436,2.4105,2.2839,2.2004,2.1859,2.1503,2.1308,2.1276,2.1462,2.1554,2.1475,2.1354,2.1071,2.0583,1.9934,1.9251,1.8511,1.7814,1.7186,1.6595,1.6008,1.5567,1.522,1.4812,1.4408,1.4104,1.38,1.3573,1.3306,1.3152,1.3065,1.2929,1.2783,1.2627,1.2421,1.2026,1.1678,1.1267,1.082,1.0411,0.9991,0.9517,0.8995,0.8573,0.8374,0.7949,0.7467,0.7252,0.7198,0.7036,0.6598,0.6327,0.6005,0.5513,0.5293,0.5128,0.4956,0.4956,0.5014,0.5014,0.5014,0.5014,0.5014,0.4956,0.4897,0.4897,0.4739,0.4632,0.4632,0.4688,0.4691,0.4691,0.5022,0.5348,0.5723,0.6055,0.6549,0.7149,0.7306,0.767,0.8203,0.8479,0.8732,0.8949,0.9252,0.9239,2.063,2.0886,2.1377,2.2747,2.3362,2.3909,2.5015,2.5426,2.5503,2.5311,2.4843,2.422,2.35,2.3354,2.3254,2.2838,2.3164,2.3807,2.4811,2.5053,2.5586,2.6735,2.6403,2.6247,2.6792,2.5478,2.4247,2.35,2.2673,2.2011,2.147,2.1127,2.0868,2.0695,2.0877,2.0926,2.0764,2.0614,2.0308,1.9959,1.9199,1.8447,1.772,1.7102,1.6509,1.5913,1.54,1.4994,1.4674,1.4222,1.3847,1.3621,1.3382,1.321,1.3036,1.2978,1.2929,1.2832,1.2627,1.248,1.2274,1.1877,1.1418,1.0964,1.0557,1.0198,0.9784,0.9368,0.8844,0.844,0.8362,0.8057,0.7695,0.7505,0.73,0.7012,0.6621,0.6346,0.607,0.568,0.5522,0.5369,0.5198,0.5215,0.5238,0.5128,0.5128,0.5128,0.5124,0.5069,0.5014,0.5014,0.4908,0.4857,0.4691,0.4743,0.4798,0.4798,0.5238,0.5622,0.5941,0.6381,0.6869,0.7413,0.7574,0.7931,0.8555,0.8747,0.9,0.9379,0.9586,0.9573,2.0877,2.1366,2.209,2.2917,2.375,2.4523,2.5081,2.5362,2.5434,2.5239,2.4721,2.4111,2.3422,2.3301,2.3214,2.292,2.2902,2.319,2.3983,2.4128,2.4473,2.5484,2.5808,2.6062,2.6458,2.5104,2.3718,2.2518,2.2148,2.1606,2.0654,2.0738,2.0695,2.0392,2.0292,2.0208,2.0208,1.9808,1.9604,1.961,1.852,1.772,1.7073,1.6337,1.58,1.5389,1.4766,1.4408,1.4176,1.3752,1.3467,1.3218,1.3113,1.3027,1.2881,1.2725,1.2676,1.2676,1.2382,1.2126,1.1828,1.1427,1.0913,1.0344,0.9925,0.971,0.951,0.8956,0.854,0.823,0.8275,0.8055,0.7773,0.779,0.7547,0.7186,0.6883,0.6713,0.6538,0.6426,0.6208,0.6072,0.5908,0.575,0.5454,0.5124,0.5242,0.5242,0.5128,0.5242,0.5297,0.5297,0.5297,0.5132,0.4743,0.4849,0.4956,0.5069,0.5673,0.6109,0.6381,0.6869,0.73,0.767,0.7842,0.825,0.8968,0.8968,0.9223,0.9679,0.9686,0.9686,2.0712,2.1337,2.213,2.2743,2.3587,2.4392,2.4877,2.5158,2.5226,2.4985,2.44,2.3892,2.3675,2.3431,2.3151,2.2794,2.2503,2.2495,2.3136,2.3266,2.3881,2.5346,2.5732,2.5589,2.4992,2.4265,2.3657,2.3258,2.2532,2.204,2.178,2.0922,2.0266,1.9863,1.9909,1.9823,1.9645,1.9303,1.8921,1.8481,1.7788,1.7005,1.6194,1.5712,1.5175,1.4582,1.4176,1.3894,1.361,1.3344,1.321,1.3113,1.292,1.2783,1.2735,1.2529,1.2382,1.2224,1.1877,1.1578,1.1267,1.071,1.0293,0.9925,0.9517,0.9361,0.9263,0.891,0.879,0.8686,0.849,0.836,0.8172,0.7898,0.7558,0.732,0.7255,0.7016,0.6837,0.6957,0.6785,0.6625,0.6456,0.6456,0.6348,0.6056,0.5998,0.5944,0.5659,0.5659,0.5659,0.5534,0.5659,0.5501,0.5037,0.5073,0.5183,0.5242,0.5965,0.6492,0.6651,0.7146,0.7638,0.8098,0.8161,0.8483,0.9125,0.9336,0.976,1.0342,1.0074,0.998,2.0478,2.1181,2.2005,2.2591,2.343,2.4204,2.4639,2.4898,2.4967,2.4676,2.4095,2.3613,2.3446,2.3062,2.2623,2.2117,2.1763,2.1726,2.2046,2.2317,2.3055,2.4474,2.4969,2.4741,2.3655,2.3347,2.3098,2.292,2.2423,2.2047,2.1831,2.0932,2.0157,1.9622,1.9516,1.9369,1.9058,1.8679,1.8173,1.7598,1.7073,1.6256,1.5274,1.5062,1.4593,1.3941,1.3705,1.3478,0.0,1.3123,1.2978,1.2929,1.2735,1.2578,1.2431,1.2126,1.1927,1.1719,1.1267,1.0964,1.0659,1.0138,0.9777,0.9465,0.9159,0.9061,0.9036,0.8991,0.8934,0.8901,0.8883,0.8711,0.85,0.8232,0.807,0.788,0.7819,0.7696,0.7629,0.7691,0.7558,0.738,0.7264,0.719,0.6957,0.6653,0.6413,0.6177,0.5949,0.5953,0.5949,0.5936,0.6246,0.6329,0.5901,0.5711,0.5673,0.584,0.652,0.7027,0.7391,0.7784,0.8162,0.8575,0.8575,0.8853,0.9479,0.9842,1.0263,1.0618,1.0374,1.0281,0.0,2.0926,2.179,2.2485,2.3267,2.3952,2.4346,2.461,0.0,2.4309,2.3797,2.3271,2.2841,2.233,2.1738,2.0887,2.0693,2.0665,2.0677,2.1262,2.2033,2.295,2.3664,2.3667,2.2534,2.2282,2.2095,2.1793,2.1841,2.1699,2.1084,2.0724,2.0273,1.9638,1.9145,1.8736,1.8461,1.7988,1.7434,1.6833,1.6362,1.5543,1.4392,1.4376,1.4093,1.3573,1.3314,1.3142,1.3085,1.2929,1.2783,1.2676,1.2529,1.2274,1.2026,1.1628,1.1377,1.1116,1.0557,1.0249,1.0095,0.9673,0.933,0.899,0.8891,0.8838,0.8891,0.911,0.9043,0.8966,0.9325,0.9039,0.8737,0.8843,0.8835,0.877,0.8576,0.8705,0.877,0.8576,0.8392,0.8234,0.8234,0.7812,0.7305,0.7,0.6518,0.6099,0.5985,0.605,0.6233,0.6457,0.714,0.75,0.7275,0.6609,0.6434,0.6835,0.7193,0.7706,0.8404,0.8557,0.8806,0.903,0.9088,0.9398,0.9916,1.0365,1.0624,1.0624,1.0561,1.0561,1.9406,0.0,2.1658,2.2175,2.2888,2.3538,0.0,2.4081,2.41,2.3771,2.349,2.313,2.2535,2.1554,2.057,1.9667,1.8935,1.8428,1.8371,2.0114,2.1512,2.1882,2.247,2.2609,2.1856,2.1506,2.1326,2.1326,2.1375,2.1403,2.1458,2.0609,2.0059,1.992,1.8563,1.7882,1.7948,1.7557,1.706,1.6454,1.5844,1.5164,1.4387,1.4082,1.3678,1.322,1.3162,1.3027,1.2774,1.2783,1.2627,1.2372,1.2126,1.1877,1.1569,1.1175,1.0769,1.0403,1.0079,0.9769,0.9517,0.9211,0.9159,0.9138,0.9138,0.9084,0.9097,0.9163,0.9394,0.9648,0.9541,0.955,0.9464,0.9262,0.921,0.9151,0.8952,0.8888,0.8958,0.8888,0.8784,0.8617,0.8431,0.8122,0.7766,0.7437,0.6998,0.6677,0.6544,0.6617,0.681,0.6994,0.7634,0.807,0.8131,0.7719,0.7523,0.764,0.8241,0.8685,0.8865,0.911,0.9406,0.9606,0.985,1.0069,1.0203,1.0465,1.0624,1.0624,1.0428,1.0371,1.8959,1.9954,2.1023,2.1549,2.2173,2.2785,2.3211,2.345,2.353,2.327,2.3057,2.265,2.1769,2.0486,1.9192,1.8031,1.7263,1.7011,1.7644,1.9553,2.0788,2.0782,2.1529,2.1771,2.1027,2.0835,2.0785,2.0848,2.0934,2.1019,2.1326,2.0297,1.9646,1.9588,1.8044,1.731,1.7516,1.7047,1.6539,1.5976,1.5433,1.4812,1.4093,1.3763,1.3392,1.3036,1.3036,1.2881,1.2676,1.2627,1.2421,1.2076,1.1769,1.1427,1.1074,1.0667,1.0358,1.0128,0.9841,0.9582,0.9288,0.9323,0.9274,0.921,0.9406,0.9539,0.9639,0.9639,0.9755,0.991,0.9792,0.9813,0.9734,0.9402,0.9338,0.9332,0.9081,0.9081,0.9081,0.9017,0.8894,0.8738,0.8657,0.8271,0.7935,0.7603,0.727,0.7043,0.7077,0.7195,0.7461,0.7857,0.8366,0.8826,0.9011,0.8995,0.8859,0.8615,0.8992,0.9315,0.9569,0.9775,0.9977,1.018,1.0371,1.0428,1.0428,1.0561,1.0624,1.0624,1.0371,1.0301,1.8553,1.9177,1.9958,2.0716,2.1269,2.1764,2.2251,2.2591,2.2745,2.2591,2.2421,2.1874,2.0556,1.9087,1.7568,1.5991,1.5482,1.5881,1.733,1.8971,1.9924,1.9688,2.0673,2.1058,2.0182,2.022,2.0334,2.0461,2.0536,2.0673,2.0885,1.9834,1.9152,1.8989,1.747,1.6752,1.6934,1.6398,1.592,1.5501,1.4994,1.4408,1.3763,1.3478,1.32,1.2881,1.2881,1.2774,1.2578,1.248,1.2175,1.1728,1.1377,1.0972,1.0573,1.0164,1.0045,1.0024,0.9791,0.9528,0.9352,0.9599,0.9539,0.9362,0.9673,0.9894,1.0119,1.0058,1.0004,0.994,0.999,0.9862,0.967,0.9338,0.9332,0.9332,0.9017,0.9081,0.9221,0.9003,0.882,0.8766,0.8737,0.8298,0.7884,0.7751,0.7477,0.7414,0.7707,0.7861,0.8239,0.8891,0.935,0.9661,0.9868,1.0219,1.0179,0.9642,0.9562,0.9792,1.0295,1.0364,1.0434,1.0624,1.0624,1.0645,1.0692,1.0692,1.0648,1.0695,1.0502,1.0367,1.7679,1.7814,1.8249,1.9576,2.0091,2.0396,2.0829,2.1171,2.1357,2.1082,2.1179,2.0651,1.8419,1.6989,1.5441,1.3314,1.3219,1.391,1.5539,1.7366,1.853,1.8488,1.9632,2.0217,1.9768,1.9811,2.0016,2.0233,2.0283,2.0334,2.0472,1.9348,1.8634,1.8516,1.6839,1.5876,1.5688,1.5567,1.5344,1.4994,1.4444,1.3978,1.3621,1.3306,1.2978,1.2725,1.2725,1.2529,1.2175,1.2026,1.1678,1.1167,1.0922,1.0514,1.0141,1.0219,1.002,0.977,0.9697,0.967,0.9626,0.9666,0.982,0.9933,0.9859,1.0076,1.0236,0.9926,1.0053,1.0186,0.9919,0.9664,0.946,0.9145,0.9081,0.8952,0.8641,0.8829,0.9015,0.8831,0.8668,0.8544,0.8424,0.8037,0.7826,0.7756,0.7967,0.8234,0.8741,0.9081,0.9462,0.9808,1.0353,1.0541,1.027,1.0652,1.0737,1.0445,1.0431,1.0451,1.0555,1.0561,1.0561,1.0624,1.0624,1.0681,1.0929,1.0929,1.1056,1.1289,1.0957,1.0827,1.7256,1.7186,1.7297,1.7853,1.8446,1.9024,1.9481,1.9794,1.9946,1.976,1.972,1.9017,1.6717,1.5287,1.3859,1.204,1.2137,1.3119,1.501,1.6706,1.7816,1.7957,1.8992,1.9608,1.9295,1.946,1.972,2.0093,2.008,2.0131,2.0182,1.9255,1.848,1.7929,1.6584,1.5544,1.4869,1.4628,1.4536,1.4536,1.4025,1.361,1.3266,1.3055,1.2832,1.248,1.248,1.2274,1.1977,1.1828,1.1578,1.1175,1.082,1.0462,1.0156,1.0191,1.0143,1.0034,1.0154,1.0086,0.9951,1.0154,1.01,1.0013,0.9985,1.0014,0.9996,0.9688,0.974,0.9786,0.9472,0.9274,0.9081,0.8765,0.8829,0.8829,0.8705,0.887,0.8986,0.8705,0.8485,0.8364,0.815,0.8042,0.797,0.811,0.8399,0.8781,0.9076,0.9447,0.9811,1.0146,1.0597,1.0831,1.0711,1.1015,1.1035,1.0651,1.0624,1.0624,1.0624,1.0715,1.0795,1.0795,1.0949,1.1096,1.1229,1.1229,1.1296,1.1423,1.1155,1.1093,1.6883,1.685,1.6705,1.6392,1.6995,1.7732,1.8057,1.8285,1.8437,1.8484,1.8033,1.706,1.5139,1.3496,1.2003,1.0927,1.1438,1.2577,1.4501,1.6091,1.7166,1.7421,1.842,1.9023,1.8923,1.921,1.9525,1.9888,1.9939,1.9888,1.9823,1.9044,1.8263,1.7506,1.6448,1.5423,1.4568,1.4079,1.3868,1.4035,1.3668,1.3334,1.2977,1.2871,1.2578,1.2175,1.2175,1.2026,1.1728,1.1619,1.1427,1.1175,1.082,1.0514,1.0341,1.0275,1.0275,1.0457,1.058,1.0415,1.0268,1.0485,1.0285,0.9971,0.9895,0.9798,0.9676,0.9438,0.9332,0.9203,0.8899,0.8759,0.8635,0.8447,0.8576,0.8787,0.8842,0.8997,0.8956,0.8658,0.8403,0.8159,0.8069,0.8105,0.8254,0.8472,0.8837,0.9218,0.9323,0.974,1.0078,1.0359,1.0829,1.1121,1.1259,1.1325,1.1236,1.0788,1.0762,1.0762,1.0762,1.0975,1.1096,1.1096,1.1316,1.1456,1.153,1.153,1.1563,1.163,1.1427,1.1357,1.6511,1.6479,1.6349,1.5969,1.6207,1.657,1.6506,1.6498,1.6646,1.7127,1.608,1.4697,1.3582,1.1167,0.9344,0.9504,1.0533,1.1831,1.3176,1.488,1.6088,1.6264,1.7568,1.8544,1.8607,1.9105,1.9473,1.9617,1.9617,1.95,1.9291,1.8494,1.7836,1.7427,1.6309,1.5483,1.5039,1.4277,1.376,1.3467,1.3258,1.3075,1.2881,1.2627,1.2332,1.1927,1.1778,1.1569,1.1318,1.1226,1.1074,1.0922,1.0624,1.0539,1.0558,1.054,1.0622,1.0766,1.0611,1.0561,1.0555,1.0364,1.0275,1.0179,0.9703,0.953,0.942,0.8969,0.8723,0.8492,0.8289,0.8236,0.8236,0.8236,0.8376,0.8641,0.9059,0.898,0.8848,0.8923,0.8436,0.8004,0.8049,0.8232,0.8456,0.868,0.9216,0.9664,0.9798,1.0179,1.0541,1.0647,1.1217,1.1713,1.1864,1.1583,1.141,1.1363,1.1363,1.1363,1.1363,1.1383,1.1396,1.1396,1.1416,1.1563,1.1837,1.1837,1.1977,1.2238,1.2018,1.1944,1.5849,1.5917,1.5913,1.5367,1.5277,1.5367,1.5599,1.5475,1.5276,1.5085,1.4132,1.2883,1.1383,1.0118,0.9479,1.0126,1.1152,1.2443,1.3827,1.5071,1.6094,1.6578,1.7488,1.8238,1.8672,1.8999,1.9251,1.9473,1.9303,1.904,1.8655,1.8212,1.7531,1.6727,1.6127,1.5479,1.4724,1.4092,1.3681,1.3452,1.3155,1.2881,1.2627,1.248,1.2126,1.1628,1.1628,1.1427,1.1175,1.1217,1.1175,1.0997,1.0701,1.0529,1.0444,1.0547,1.0636,1.0688,1.0624,1.0624,1.0561,1.0371,1.0238,1.004,0.9652,0.9563,0.9541,0.9231,0.927,0.9286,0.8781,0.8169,0.7954,0.8644,0.8739,0.882,0.9203,0.9247,0.9109,0.8772,0.85,0.8165,0.794,0.8106,0.825,0.8475,0.878,0.9084,0.916,0.9745,1.0204,1.0181,1.1131,1.1822,1.2151,1.2037,1.1971,1.1971,1.1623,1.1423,1.1423,1.1603,1.1703,1.1703,1.1877,1.2024,1.2138,1.2138,1.2191,1.2305,1.2231,1.2157,1.5686,1.5579,1.5457,1.4858,1.4501,1.4362,1.4617,1.4501,1.4093,1.342,1.2415,1.1269,0.9967,0.9705,0.9895,1.0463,1.1509,1.2664,1.3979,1.5031,1.5904,1.675,1.7496,1.8171,1.8726,1.8946,1.9093,1.921,1.8934,1.8548,1.8061,1.7788,1.7192,1.6318,1.6032,1.5557,1.4889,1.4344,1.3952,1.3701,1.3231,1.286,1.248,1.2274,1.1977,1.1578,1.1427,1.1267,1.1175,1.1124,1.0972,1.0759,1.0748,1.0509,1.0286,1.0534,1.065,1.0624,1.0624,1.0624,1.0575,1.0412,1.0264,1.0108,0.9831,0.9846,0.991,0.9714,0.9794,0.9956,0.9604,0.8933,0.8497,0.9203,0.9253,0.9224,0.94,0.9291,0.9108,0.8522,0.8303,0.8021,0.7646,0.7795,0.8021,0.8169,0.853,0.8803,0.8803,0.9536,1.0247,1.0627,1.1368,1.1996,1.2438,1.2358,1.2305,1.2305,1.1924,1.1703,1.1703,1.1897,1.2004,1.2004,1.2291,1.2445,1.2445,1.2445,1.2445,1.2438,1.2345,1.2305,1.6016,1.5522,1.4971,1.4433,1.3909,1.3532,1.3409,1.3385,1.3144,1.2271,1.0866,0.9764,0.9567,0.9803,1.0107,1.0214,1.1279,1.2406,1.3283,1.4354,1.5472,1.6655,1.7545,1.8267,1.8744,1.904,1.9093,1.8798,1.8506,1.8061,1.7523,1.7179,1.6786,1.6296,1.6056,1.5826,1.5672,1.5123,1.457,1.4077,1.3546,1.303,1.248,1.2076,1.1828,1.1678,1.1276,1.1175,1.1276,1.0879,1.0419,1.0067,1.0617,1.053,1.0147,1.0643,1.0744,1.0624,1.0624,1.0624,1.0608,1.0437,1.0397,1.0387,1.0152,1.023,1.0329,1.0148,1.0184,1.0402,1.0707,1.0532,1.0122,0.9793,0.9935,0.9985,0.948,0.9098,0.8739,0.8197,0.7783,0.7407,0.7257,0.7561,0.7783,0.7787,0.8494,0.9025,0.9113,0.9857,1.08,1.2172,1.2167,1.2305,1.2752,1.2478,1.2305,1.2305,1.2305,1.2305,1.2305,1.2305,1.2311,1.2311,1.2599,1.2829,1.2829,1.2829,1.2829,1.2822,1.2452,1.2311,1.4791,1.4328,1.3899,1.3379,1.2909,1.2638,1.2598,1.2657,1.2403,1.1486,1.0559,0.9866,0.9728,0.9941,1.0261,1.0834,1.1736,1.2798,1.4054,1.4943,1.5946,1.7124,1.7776,1.8267,1.8744,1.8786,1.8655,1.8321,1.7843,1.7357,1.6909,1.656,1.6228,1.5904,1.5788,1.5662,1.5478,1.5057,1.4717,1.458,1.3638,1.2919,1.248,1.2175,1.1927,1.1678,1.1469,1.1226,1.0989,1.068,1.0348,1.0132,1.0617,1.0569,1.026,1.0657,1.0744,1.0624,1.0624,1.0695,1.0882,1.0699,1.0776,1.0937,1.079,1.0754,1.0797,1.0791,1.0833,1.0819,1.0843,1.0716,1.0519,1.0053,0.9623,0.9244,0.8913,0.8558,0.8148,0.7749,0.7557,0.7407,0.7257,0.7569,0.7919,0.8277,0.8737,0.9433,1.0555,1.0924,1.1503,1.2675,1.2689,1.2759,1.3073,1.2792,1.2612,1.2612,1.2612,1.2612,1.2612,1.2612,1.2719,1.2939,1.3026,1.3073,1.3073,1.3073,1.3073,1.3073,1.2979,1.2939,1.4072,1.3424,1.2948,1.2482,1.2147,1.1968,1.2175,1.2206,1.1999,1.1267,1.0717,1.0318,1.0184,1.032,1.0621,1.1059,1.1932,1.2941,1.4057,1.5063,1.6117,1.7245,1.7827,1.8278,1.8506,1.8398,1.8116,1.76,1.7101,1.6616,1.6161,1.5931,1.571,1.5498,1.5556,1.5536,1.541,1.5109,1.4904,1.4719,1.3825,1.3212,1.2749,1.2273,1.1927,1.1778,1.1477,1.1107,1.0737,1.0524,1.0247,1.0066,1.0453,1.047,1.0269,1.0573,1.0688,1.0645,1.0695,1.0842,1.1035,1.106,1.1127,1.1236,1.1206,1.1083,1.1013,1.1019,1.0875,1.0726,1.0484,1.0179,0.9974,0.9902,0.9518,0.9062,0.8456,0.8161,0.7952,0.7536,0.7484,0.7484,0.7407,0.7854,0.8334,0.8681,0.9472,1.0437,1.1729,1.1987,1.2371,1.3208,1.3147,1.3139,1.33,1.3106,1.2933,1.2933,1.2933,1.2986,1.31,1.2993,1.3019,1.3206,1.332,1.3387,1.3387,1.3387,1.3387,1.338,1.3267,1.3213,1.3752,1.2764,1.208,1.1719,1.1569,1.1619,1.2026,1.2026,1.1877,1.1628,1.1226,1.0867,1.0777,1.0885,1.1001,1.1145,1.1992,1.2903,1.3729,1.4963,1.6115,1.713,1.7852,1.8224,1.805,1.7886,1.7512,1.6765,1.6425,1.5968,1.541,1.5362,1.5303,1.5215,1.5303,1.541,1.541,1.5264,1.5013,1.4609,1.4128,1.3624,1.3186,1.2344,1.1881,1.1831,1.1311,1.089,1.0499,1.0364,1.0158,0.9921,1.0214,1.0275,1.0187,1.0461,1.0645,1.0698,1.0902,1.1029,1.1162,1.148,1.1455,1.1304,1.1335,1.1186,1.1037,1.0812,1.0426,1.011,0.9927,0.9316,0.8825,0.9327,0.9383,0.9185,0.8175,0.8054,0.7949,0.7561,0.7557,0.7633,0.7859,0.8485,0.9025,0.9375,1.0637,1.1853,1.2674,1.2966,1.3307,1.3652,1.3509,1.3434,1.3599,1.3414,1.3253,1.3253,1.3253,1.3367,1.3552,1.3394,1.326,1.3293,1.3547,1.3687,1.3687,1.3687,1.3687,1.3674,1.3414,1.3293,1.3172,1.2227,1.161,1.1418,1.1551,1.1832,1.2323,1.2431,1.2342,1.1877,1.1326,1.0947,1.1021,1.0883,1.0986,1.1641,1.2227,1.3143,1.4728,1.5545,1.6454,1.7594,1.7895,1.7897,1.7634,1.7346,1.6944,1.6275,1.5999,1.5662,1.5264,1.5264,1.5205,1.5215,1.5303,1.541,1.541,1.5264,1.5108,1.4887,1.4077,1.3534,1.3313,1.2485,1.1922,1.1564,1.1301,1.0915,1.0499,1.0355,1.0198,1.0114,1.0409,1.0524,1.0474,1.0598,1.0701,1.0909,1.0969,1.1296,1.1703,1.1617,1.1584,1.1556,1.1242,1.0887,1.0588,1.0368,1.0056,0.9669,0.9513,0.9221,0.8917,0.8661,0.8438,0.8138,0.7884,0.7833,0.7859,0.7783,0.8093,0.8475,0.8475,0.9339,1.0401,1.1508,1.2248,1.2905,1.3385,1.3561,1.3652,1.3997,1.3944,1.3911,1.3988,1.3721,1.3547,1.3547,1.3547,1.3581,1.3641,1.3499,1.3661,1.3895,1.3961,1.3988,1.3988,1.3988,1.3988,1.3988,1.3928,1.3901,1.3015,1.2086,1.1519,1.1569,1.1751,1.208,1.252,1.2695,1.2656,1.2332,1.1877,1.1477,1.1477,1.1377,1.1469,1.1977,1.2452,1.3145,1.4422,1.5329,1.6155,1.6916,1.7278,1.7346,1.7078,1.6786,1.6332,1.572,1.5556,1.5274,1.4862,1.5039,1.5098,1.5098,1.5254,1.5313,1.5313,1.502,1.4843,1.4775,1.3847,1.3175,1.2564,1.2197,1.1781,1.1351,1.1127,1.0833,1.047,1.034,1.0316,1.0347,1.0501,1.0712,1.0768,1.0768,1.0949,1.1223,1.1363,1.1617,1.1891,1.1814,1.1665,1.1484,1.1111,1.0588,1.0143,0.9997,0.9609,0.9301,0.916,0.8917,0.867,0.8685,0.8461,0.8232,0.8241,0.8318,0.847,0.8775,0.9079,0.9387,0.9685,1.0595,1.1736,1.2843,1.3218,1.3483,1.3828,1.3913,1.3913,1.4088,1.4088,1.4088,1.4088,1.3948,1.3854,1.3854,1.3854,1.3854,1.3854,1.3854,1.3928,1.4082,1.4088,1.4088,1.4088,1.4088,1.4088,1.4088,1.4088,1.4088,1.3265,1.2359,1.1808,1.1995,1.2157,1.2344,1.2676,1.2852,1.291,1.2783,1.2421,1.2126,1.2026,1.1977,1.2076,1.2372,1.2657,1.3123,1.3878,1.4896,1.5647,1.5964,1.6461,1.6701,1.6503,1.6228,1.5778,1.5215,1.5215,1.5039,1.4634,1.4862,1.5029,1.497,1.5098,1.5156,1.5088,1.4666,1.441,1.435,1.3571,1.2627,1.1675,1.1821,1.1605,1.1142,1.0957,1.0725,1.0546,1.0431,1.0458,1.0624,1.0678,1.0782,1.1002,1.1049,1.1256,1.1536,1.1784,1.1904,1.1984,1.1931,1.1706,1.1335,1.0812,1.0368,0.9927,0.9743,0.9504,0.9337,0.9311,0.9089,0.8944,0.9236,0.9165,0.9003,0.8927,0.9079,0.9382,0.9916,1.0143,1.038,1.1027,1.1834,1.2662,1.358,1.3704,1.3822,1.4088,1.4088,1.4088,1.4088,1.4088,1.4088,1.4088,1.4088,1.4088,1.4088,1.4088,1.4088,1.4088,1.4088,1.4088,1.4088,1.4088,1.4088,1.4088,1.4088,1.4088,1.4088,1.4088,1.4088,1.4281,1.3356,1.2712,1.2615,1.2706,1.2842,1.3027,1.3036,1.3036,1.2881,1.2529,1.2274,1.2382,1.2323,1.2372,1.2813,1.3035,1.3504,1.4503,1.4821,1.5207,1.5967,1.5942,1.5887,1.6016,1.5836,1.5614,1.5215,1.5215,1.5098,1.4921,1.5098,1.5098,1.497,1.5029,1.4961,1.4775,1.43,1.401,1.3881,1.3103,1.2282,1.1618,1.1636,1.1396,1.1019,1.1059,1.0961,1.0746,1.0627,1.0584,1.0651,1.0835,1.0962,1.1022,1.1276,1.1557,1.1817,1.1857,1.2037,1.2178,1.1842,1.1558,1.126,1.0519,1.0218,1.0111,1.0015,1.0203,1.0526,1.0757,1.073,1.0703,1.0744,1.0614,1.0363,0.9841,0.9916,1.0143,1.0594,1.0962,1.1415,1.2126,1.2596,1.3,1.3572,1.3838,1.4088,1.4088,1.4088,1.4088,1.4088,1.4088,1.4088,1.4088,1.4088,1.4088,1.4088,1.4088,1.4088,1.4088,1.4088,1.4088,1.4088,1.4088,1.4088,1.4088,1.4088,1.4088,1.4088,1.4088,1.4088,1.4399,1.3888,1.3584,1.3421,1.3254,1.3204,1.324,1.3258,1.322,1.3027,1.2832,1.2627,1.2725,1.2676,1.2725,1.3027,1.3113,1.3357,1.3938,1.4187,1.4542,1.5321,1.5342,1.5447,1.5738,1.5662,1.543,1.5215,1.5215,1.5156,1.5039,1.5039,1.5029,1.4843,1.4666,1.4428,1.4181,1.3709,1.3224,1.285,1.2367,1.1872,1.131,1.1185,1.1044,1.0918,1.0933,1.087,1.0681,1.0624,1.0719,1.0815,1.0942,1.1196,1.1503,1.163,1.1857,1.2111,1.2111,1.2191,1.2231,1.1929,1.1706,1.1484,1.0887,1.0663,1.057,1.0667,1.0874,1.1134,1.1547,1.1588,1.1576,1.1718,1.1715,1.1648,1.157,1.1176,1.1085,1.1626,1.1954,1.2394,1.3022,1.3206,1.3391,1.3848,1.4001,1.4088,1.4088,1.4088,1.4088,1.4088,1.4088,1.4088,1.4088,1.4088,1.4088,1.4088,1.4088,1.4088,1.4088,1.4088,1.4088,1.4088,1.4088,1.4088,1.4088,1.4088,1.4088,1.4088,1.4255,1.4329,1.4631,1.4512,1.4606,1.442,1.4114,1.3912,1.3944,1.3654,1.3369,1.3283,1.3057,1.2881,1.2881,1.2881,1.2929,1.3085,1.3085,1.3172,1.3324,1.3559,1.3942,1.4601,1.475,1.5012,1.5555,1.5478,1.5362,1.5264,1.5215,1.5156,1.5039,1.497,1.4843,1.4597,1.424,1.389,1.3528,1.2981,1.2428,1.1872,1.1747,1.1428,1.0996,1.0946,1.0853,1.0853,1.0853,1.0796,1.0739,1.0755,1.0909,1.1109,1.1189,1.1483,1.1877,1.1951,1.2118,1.2305,1.2305,1.2305,1.2305,1.2077,1.1929,1.1706,1.1335,1.1111,1.1103,1.1479,1.1599,1.1843,1.2292,1.2409,1.241,1.255,1.2612,1.2571,1.281,1.2383,1.1993,1.2608,1.2795,1.3006,1.3454,1.3512,1.3714,1.3941,1.4041,1.4088,1.4088,1.4088,1.4088,1.4088,1.4088,1.4088,1.4088,1.4088,1.4088,1.4088,1.4088,1.4088,1.4088,1.4088,1.4088,1.4088,1.4162,1.4162,1.4088,1.4162,1.4195,1.4202,1.4496,1.4629,1.5356,1.5564,1.5956,1.5685,1.5448,1.5311,1.5378,1.4367,1.3462,1.365,1.3263,1.2881,1.2881,1.2881,1.2929,1.3085,1.3085,1.3113,1.3218,1.3172,1.3422,1.4255,1.4204,1.4502,1.5332,1.541,1.541,1.541,1.5264,1.5215,1.5215,1.4902,1.4597,1.4249,1.3761,1.3338,1.2867,1.2182,1.1677,1.1365,1.1303,1.1178,1.0814,1.1094,1.1093,1.0969,1.0969,1.0969,1.0995,1.1269,1.139,1.143,1.1717,1.1844,1.1904,1.2178,1.2285,1.2305,1.2305,1.2305,1.2305,1.2077,1.2003,1.1929,1.1484,1.1484,1.1721,1.2144,1.2548,1.2965,1.3484,1.3522,1.3536,1.353,1.3333,1.3134,1.2969,1.3028,1.3087,1.3186,1.3186,1.32,1.3227,1.346,1.3647,1.3585,1.3908,1.4088,1.4088,1.4088,1.4088,1.4088,1.4088,1.4088,1.4088,1.4088,1.4088,1.4088,1.4088,1.4088,1.4088,1.4088,1.4088,1.4088,1.4355,1.4362,1.4088,1.4362,1.4496,1.4502,1.4803,1.4943,1.644,1.7034,1.7534,1.7102,1.7106,1.6916,1.5924,1.515,1.4573,1.4043,1.3731,1.3442,1.3076,1.2978,1.2929,1.2978,1.2978,1.2978,1.3007,1.3204,1.3547,1.4125,1.4385,1.4775,1.5352,1.541,1.541,1.541,1.5254,1.5156,1.5098,1.4547,1.4121,1.3761,1.3147,1.2605,1.2174,1.1677,1.1428,1.1303,1.1052,1.103,1.103,1.1073,1.1162,1.1283,1.1476,1.145,1.1276,1.1383,1.1536,1.1724,1.183,1.1984,1.2164,1.2265,1.2305,1.2305,1.2305,1.2305,1.2298,1.2231,1.2157,1.215,1.2003,1.2003,1.2168,1.2762,1.3008,1.3251,1.3794,1.3906,1.3957,1.3948,1.3848,1.3774,1.3692,1.34,1.3267,1.3454,1.3487,1.3547,1.3741,1.3861,1.3928,1.3928,1.4021,1.4088,1.4088,1.4088,1.4088,1.4088,1.4088,1.4088,1.4088,1.4088,1.4088,1.4088,1.4088,1.4088,1.4088,1.4088,1.4175,1.4362,1.4469,1.4469,1.4362,1.4663,1.4803,1.481,1.5104,1.5146,1.6732,1.7604,1.8339,1.8126,1.8328,1.8237,1.6915,1.617,1.5542,1.4748,1.4317,1.3982,1.3461,1.3402,1.3362,1.2978,1.2881,1.2881,1.2881,1.3242,1.3662,1.4029,1.4521,1.4951,1.5371,1.541,1.5362,1.5362,1.5137,1.4911,1.4675,1.4061,1.3519,1.3025,1.2482,1.1988,1.1622,1.1303,1.1115,1.1115,1.0967,1.0931,1.1127,1.1263,1.1396,1.159,1.1884,1.185,1.1583,1.1677,1.1837,1.2011,1.2011,1.2131,1.2305,1.2305,1.2305,1.2305,1.2305,1.2305,1.2305,1.2305,1.2305,1.2305,1.2305,1.2371,1.2532,1.3081,1.3253,1.3418,1.3981,1.4088,1.4088,1.4088,1.4088,1.4088,1.4088,1.3781,1.3561,1.3754,1.3794,1.3854,1.4055,1.4088,1.4088,1.4088,1.4088,1.4088,1.4088,1.4088,1.4088,1.4088,1.4088,1.4088,1.4088,1.4088,1.4088,1.4088,1.4088,1.4088,1.4088,1.4182,1.4322,1.4516,1.4716,1.4816,1.4816,1.501,1.511,1.5117,1.5312,1.5258,0.0,0.0,0.0,1.8645,1.9032,1.9177,1.8389,1.7323,1.6371,1.5663,1.505,1.4487,1.4033,1.4316,1.4284,1.3155,1.2969,1.292,1.292,1.3281,1.3691,1.4048,1.4531,1.4971,1.5371,1.541,1.5362,1.5215,1.4902,1.4478,1.401,1.3511,1.2903,1.212,1.1747,1.1498,1.1303,1.0996,1.0807,1.0821,1.092,1.1002,1.1035,1.161,1.187,1.1897,1.2178,1.2144,1.1904,1.2184,1.2305,1.2305,1.2305,1.2305,1.2305,1.2305,1.2305,1.2305,1.2305,1.2305,1.2305,1.2305,1.2305,1.2305,1.2305,1.2512,1.2889,1.312,1.344,1.3689,1.3988,1.4088,1.4088,1.4088,1.4088,1.4088,1.4088,1.4088,1.4088,1.4088,1.4088,1.4088,1.4088,1.4095,1.4102,1.4102,1.4108,1.4115,1.4115,1.4115,1.4115,1.4115,1.4108,1.4102,1.4102,1.4088,1.4088,1.4088,1.4088,1.4088,1.4095,1.4369,1.4529,1.4543,1.5104,1.5398,1.5411,1.5411,1.5411,1.5418,1.5416,1.5159,1.6125,0.0,0.0,0.0,0.0,0.0,1.8523,1.7862,1.7205,1.6599,1.6113,1.5691,1.5142,1.5163,1.506,1.4553,1.4214,1.3913,1.3789,1.416,1.4473,1.459,1.498,1.5235,1.5254,1.5264,1.5137,1.4834,1.4538,1.4121,1.3631,1.285,1.2243,1.1747,1.1622,1.156,1.1498,1.1185,1.1107,1.1323,1.1087,1.1216,1.163,1.1797,1.1984,1.2184,1.2265,1.2258,1.2191,1.2271,1.2305,1.2305,1.2305,1.2305,1.2305,1.2305,1.2305,1.2305,1.2305,1.2305,1.2305,1.2305,1.2305,1.2378,1.256,1.2757,1.2889,1.3382,1.3501,1.3681,1.4001,1.4088,1.4088,1.4088,1.4088,1.4088,1.4088,1.4088,1.4088,1.4088,1.4088,1.4088,1.4088,1.4262,1.4402,1.4402,1.4583,1.4723,1.4723,1.4723,1.4723,1.4723,1.4529,1.4402,1.4402,1.4208,1.4088,1.4088,1.4088,1.4182,1.4389,1.4476,1.4723,1.5144,1.5311,1.5504,1.5712,1.5712,1.5712,1.5712,1.5324,1.4885,1.5403,1.6488,1.7409,1.8045,0.0,0.0,1.8674,1.8309,1.7836,1.742,1.7047,1.6667,1.6219,1.6284,1.6297,1.5775,1.575,1.5475,1.453,1.4676,1.4897,1.4897,1.5166,1.5254,1.5156,1.497,1.4725,1.4359,1.4061,1.37,1.3155,1.2359,1.1809,1.1685,1.156,1.1498,1.1498,1.1122,1.1085,1.1383,1.1249,1.1416,1.187,1.1997,1.2144,1.2305,1.2305,1.2305,1.2305,1.2305,1.2305,1.2305,1.2305,1.2305,1.2305,1.2305,1.2305,1.2305,1.2305,1.2305,1.2305,1.2305,1.2305,1.2338,1.2682,1.2905,1.3033,1.346,1.3701,1.3895,1.4188,1.4175,1.4115,1.4242,1.4175,1.4122,1.4242,1.4269,1.4229,1.4115,1.4182,1.4269,1.4269,1.4509,1.4703,1.4703,1.485,1.4963,1.4963,1.4963,1.4963,1.4963,1.481,1.4656,1.4529,1.4362,1.4269,1.4269,1.4269,1.4396,1.4696,1.4823,1.5044,1.5391,1.5518,1.5658,1.5832,1.5832,1.5737,1.5458,1.5274,1.479,1.4313,1.5382,1.6436,1.6974,1.8004,0.0,1.8892,1.8698,1.8462,1.8324,1.8023,1.7723,1.7447,1.7707,1.7799,1.7124,1.7542,1.7231,1.5337,1.5169,1.5216,1.5167,1.5225,1.5204,1.498,1.4656,1.43,1.3821,1.3519,1.3155,1.2621,1.1934,1.1622,1.174,1.1428,1.1303,1.1303,1.0996,1.0958,1.1338,1.1431,1.1666,1.2002,1.2257,1.2298,1.2305,1.2305,1.2305,1.2305,1.2305,1.2305,1.2305,1.2305,1.2305,1.2305,1.2305,1.2305,1.2305,1.2305,1.2305,1.2305,1.2305,1.2325,1.2425,1.2722,1.2994,1.3287,1.3554,1.3913,1.4195,1.4449,1.4335,1.4215,1.4462,1.4335,1.4222,1.4469,1.4529,1.4469,1.4229,1.4389,1.4569,1.4569,1.4816,1.501,1.501,1.5037,1.5064,1.5064,1.5064,1.5064,1.5064,1.503,1.4903,1.4643,1.4583,1.4569,1.4569,1.4569,1.4703,1.4997,1.5257,1.5411,1.5444,1.5698,1.5832,1.5832,1.5832,1.5547,1.5178,1.5178,1.47,1.3678,1.4477,1.529,1.5975,1.7051,0.0,1.8617,1.8955,1.9368,1.9821,1.9818,1.9702,1.971,1.9826,1.9804,1.9551,1.9402,1.8684,1.68,1.6717,1.6638,1.6098,1.5838,1.5451,1.4812,1.4478,1.4061,1.3571,1.3094,1.2744,1.2629,1.1934,1.1622,1.1622,1.131,1.1185,1.1303,1.1122,1.139,1.1999,1.1945,1.206,1.2444,1.2498,1.2452,1.2305,1.2305,1.2305,1.2305,1.2305,1.2305,1.2305,1.2305,1.2305,1.2305,1.2305,1.2305,1.2305,1.2305,1.2305,1.2305,1.2305,1.2465,1.2768,1.304,1.3312,1.3552,1.3898,1.4249,1.4449,1.4502,1.4636,1.4751,1.4529,1.4643,1.4751,1.4529,1.4683,1.4872,1.4865,1.4836,1.4877,1.4877,1.5117,1.5311,1.5311,1.5511,1.5658,1.5658,1.5658,1.5658,1.5658,1.5451,1.5291,1.5231,1.501,1.4877,1.4877,1.4877,1.501,1.5297,1.5364,1.5504,1.5738,1.5798,1.5832,1.5832,1.5832,1.5642,1.5452,1.5452,1.507,1.3184,1.3858,1.461,1.5223,1.6456,0.0,0.0,1.9145,1.9721,2.0461,2.0535,2.0447,2.0689,2.0746,2.0689,2.0574,2.0701,2.0384,1.9221,1.8339,1.7626,1.7195,1.6572,1.5937,1.5463,1.4889,1.4399,1.4013,1.3279,1.2947,1.3121,1.2289,1.1824,1.1714,1.1387,1.124,1.1303,1.1517,1.1855,1.238,1.2438,1.2593,1.2746,1.2673,1.2526,1.2305,1.2305,1.2305,1.2305,1.2305,1.2305,1.2305,1.2305,1.2305,1.2305,1.2305,1.2305,1.2305,1.2305,1.2305,1.2325,1.2478,1.2625,1.2896,1.3265,1.3649,1.3895,1.4048,1.4195,1.4349,1.4643,1.4791,1.4791,1.4883,1.499,1.4945,1.4937,1.5093,1.5214,1.5351,1.5398,1.5351,1.5204,1.5424,1.5611,1.5611,1.5732,1.5832,1.5832,1.5832,1.5832,1.5832,1.5698,1.5558,1.5404,1.5264,1.5177,1.5177,1.5177,1.5311,1.5605,1.5611,1.5678,1.5825,1.5832,1.5832,1.5832,1.5832,1.573,1.554,1.554,1.5261,1.2832,1.3496,1.4165,1.457,1.5989,1.749,0.0,0.0,0.0,2.0845,2.0997,2.1003,2.1375,2.1445,2.1432,2.135,2.1849,2.2094,2.1591,2.0165,1.8951,1.8469,1.7594,1.6828,1.6453,1.5532,1.4911,1.4715,1.3899,1.3541,1.383,1.2846,1.2142,1.1877,1.1519,1.1339,1.1481,1.2032,1.2439,1.2816,1.3038,1.3106,1.3046,1.2746,1.2526,1.2305,1.2305,1.2305,1.2305,1.2305,1.2305,1.2305,1.2305,1.2305,1.2305,1.2305,1.2305,1.2305,1.2305,1.2338,1.2425,1.2741,1.2903,1.3019,1.3561,1.3895,1.4088,1.4088,1.4128,1.4262,1.4832,1.4845,1.4834,1.5278,1.5319,1.5268,1.5449,1.5537,1.5651,1.588,1.5927,1.5752,1.5518,1.5671,1.5832,1.5832,1.5927,1.5927,1.5927,1.5927,1.5927,1.5927,1.5832,1.5732,1.5504,1.5478,1.5478,1.5478,1.5478,1.5585,1.5818,1.5832,1.5832,1.5832,1.5832,1.5832,1.5832,1.5832,1.5737,1.554,1.554,1.5452,1.2881,1.3496,1.4087,1.4199,1.576,1.7409,1.7936,0.0,2.0534,2.1432,0.0,2.2128,2.2614,0.0,0.0,2.283,2.3219,2.3366,2.2986,2.2484,2.1599,2.0037,1.9178,1.8262,1.7203,1.6086,1.5431,1.5366,1.498,1.4728,1.4574,1.3459,1.2632,1.2259,1.1645,1.1602,1.2282,1.2626,1.324,1.4041,1.3855,1.3666,1.3419,1.3046,1.2673,1.2305,1.2305,1.2305,1.2305,1.2305,1.2305,1.2305,1.2305,1.2305,1.2305,1.2305,1.2305,1.2305,1.2305,1.2478,1.2775,1.2808,1.3106,1.3601,1.3935,1.4062,1.4088,1.4088,1.4269,1.4543,1.4945,1.5192,1.5324,1.5378,1.5765,1.6033,1.5821,1.6085,1.6379,1.6218,1.6109,1.6089,1.5785,1.5805,1.5927,1.6123,1.6123,1.6218,1.6494,1.6312,1.6123,1.6123,1.5927,1.5812,1.5785,1.5778,1.5778,1.5778,1.5778,1.5792,1.5832,1.5832,1.5832,1.5832,1.5832,1.5832,1.5832,1.5832,1.5825,1.5737,1.5737,1.5737,1.2881,1.3496,1.4077,1.4077,1.5614,1.7284,1.776,1.8977,2.0237,2.1135,0.0,0.0,0.0,0.0,0.0,0.0,2.3617,2.3867,2.3542,2.3511,2.2956,2.1272,2.0281,1.9354,1.8356,1.7527,1.7017,1.7017,1.6169,1.5526,1.5353,1.4238,1.3461,1.2967,1.2653,1.2714,1.317,1.3792,1.4285,1.4694,1.4636,1.4403,1.3848,1.3433,1.2987,1.2452,1.2452,1.2378,1.2305,1.2305,1.2305,1.2305,1.2305,1.2305,1.2305,1.2305,1.2305,1.2325,1.2498,1.2721,1.2882,1.3153,1.3554,1.3928,1.4048,1.4088,1.4088,1.4088,1.4273,1.4634,1.5062,1.5438,1.5773,1.623,1.6476,1.6648,1.67,1.6793,1.6791,1.6501,1.6305,1.6116,1.6028,1.6028,1.6123,1.64,1.64,1.6494,1.6588,1.6494,1.6407,1.6224,1.6123,1.5933,1.5832,1.5832,1.5832,1.5832,1.5832,1.5832,1.5832,1.5832,1.5832,1.5832,1.5832,1.5832,1.5832,1.5832,1.5832,1.5832,1.5832,1.5832,1.2832,1.3445,1.4087,1.4077,1.5556,1.7096,1.7533,1.8605,1.9791,2.0677,2.1187,0.0,0.0,0.0,2.2969,2.3138,0.0,2.4132,2.3737,2.3968,2.3697,2.2395,2.1264,2.0328,1.9673,1.899,1.8547,1.837,1.732,1.6455,1.6086,1.5103,1.4272,1.3862,1.3699,1.3832,1.4205,1.4875,1.5266,1.5377,1.5329,1.4887,1.4201,1.3725,1.3214,1.2673,1.2599,1.2526,1.2305,1.2305,1.2305,1.2305,1.2305,1.2351,1.2425,1.2425,1.2452,1.2446,1.2822,1.2926,1.308,1.3594,1.3908,1.4088,1.4088,1.4142,1.4208,1.4208,1.4446,1.4867,1.5402,1.5817,1.6259,1.6993,1.7318,1.7434,1.752,1.7434,1.716,1.6871,1.6595,1.6501,1.6588,1.64,1.6407,1.677,1.6864,1.6871,1.6871,1.6871,1.6683,1.6312,1.6224,1.6123,1.5825,1.5832,1.5832,1.5832,1.5832,1.5832,1.5832,1.5832,1.5832,1.5832,1.5832,1.5832,1.5832,1.5832,1.5832,1.5832,1.5832,1.5832,1.2686,1.3343,1.4043,1.4087,1.5556,1.7034,1.7274,1.8338,1.9441,2.0031,2.0677,2.1376,2.2249,2.2702,2.303,2.3343,2.4017,0.0,0.0,2.3968,2.3959,2.3327,2.2187,2.1335,2.1093,2.0307,1.9584,1.9033,1.8411,1.7699,1.6913,1.5848,1.5179,1.4975,1.4479,1.4613,1.5528,1.568,1.5943,1.6254,1.572,1.5163,1.4569,1.3855,1.3273,1.29,1.2673,1.2526,1.2305,1.2305,1.2305,1.2305,1.2305,1.2478,1.2808,1.2808,1.2798,1.281,1.3077,1.338,1.3667,1.3975,1.4082,1.4088,1.4088,1.4282,1.4502,1.4502,1.4879,1.5425,1.5923,1.6471,1.7014,1.7517,1.8056,1.8342,1.8079,1.8087,1.7893,1.7419,1.7153,1.716,1.7598,1.7044,1.677,1.7239,1.7527,1.7628,1.7628,1.7434,1.7145,1.6683,1.6312,1.6123,1.5825,1.5832,1.5832,1.5832,1.5832,1.5832,1.5832,1.5832,1.5832,1.5832,1.5832,1.5832,1.5832,1.5832,1.5832,1.5832,1.5832,1.5832,0.0,1.3292,1.4043,1.4087,1.5272,1.6463,1.6769,1.7471,1.828,1.9043,1.9969,2.0865,2.1717,2.2515,2.3078,2.3198,2.3455,2.3535,0.0,2.3523,2.3751,2.3677,2.3007,2.2466,2.2381,2.1366,2.0606,2.0254,1.9311,1.8423,1.7743,1.7097,1.6508,1.61,1.5764,1.5799,1.6267,1.6138,1.6122,1.6149,1.5728,1.5163,1.4593,1.4137,1.3572,1.3119,1.29,1.2599,1.2305,1.2305,1.2305,1.2318,1.2518,1.2735,1.2822,1.2822,1.2896,1.3135,1.336,1.3687,1.3955,1.4055,1.4088,1.4122,1.4315,1.4442,1.4556,1.492,1.5404,1.5979,1.6701,1.7364,1.804,1.8748,1.9047,1.9206,1.908,1.8727,1.8265,1.7893,1.7613,1.7606,1.7893,1.7986,1.8079,1.8071,1.7994,1.7908,1.7721,1.7434,1.7145,1.6676,1.6494,1.6305,1.5832,1.5832,1.5832,1.5832,1.5832,1.5832,1.5832,1.5832,1.5832,1.5832,1.5832,1.5832,1.5832,1.5832,1.5832,1.5832,1.5832,1.5832,1.2382,1.3023,0.0,1.3863,1.4939,1.6019,1.6306,1.7012,1.775,1.8495,1.9659,2.0791,2.1569,2.2511,2.3198,2.3138,2.3033,2.2912,0.0,2.3052,2.3548,2.3948,2.3593,2.3298,2.315,2.2041,2.1131,2.07,1.9603,1.8791,1.8354,1.7816,1.7367,1.7153,1.6754,1.6621,1.6811,1.6482,1.6184,1.6009,1.5525,1.5029,1.4522,1.4152,1.3725,1.3193,1.2966,1.2666,1.2305,1.2305,1.2305,1.2331,1.2708,1.2889,1.2926,1.3026,1.326,1.3547,1.3734,1.3928,1.4088,1.4088,1.4088,1.4142,1.4436,1.4589,1.4906,1.5466,1.6077,1.6824,1.7629,1.8443,1.9191,1.9886,1.9968,1.9852,1.9629,1.9088,1.8542,1.8265,1.8164,1.8257,1.8542,1.8912,1.9004,1.8635,1.8458,1.8179,1.7721,1.7434,1.7052,1.6494,1.6494,1.6305,1.5832,1.5832,1.5832,1.5832,1.5832,1.5832,1.5832,1.5832,1.5832,1.5832,1.5832,1.5832,1.5832,1.5832,1.5832,1.5832,1.5832,1.5832]},{"header":{"parameterUnit":"m.s-1","parameterCategory":1,"la1":30.6,"la2":29.2853,"lo1":-89.7004,"lo2":-87.6739,"dy":0.0162,"dx":0.0183,"nx":112,"ny":82,"refTime":"2023-09-25T00:00:00:Z","depth":0,"parameterNumber":3,"parameterNumberName":"V-component_of_WINDS"},"data":[0.0,0.0,0.0,0.0,0.0,0.0,0.0,0.0,0.0,0.0,0.0,0.0,0.0,0.0,0.0,0.0,0.0,0.0,0.0,0.0,0.0,0.0,0.0,0.0,0.0,0.0,0.0,0.0,0.0,0.0,0.0,0.0,0.0,0.0,0.0,0.0,0.0,0.0,0.0,0.0,0.0,0.0,0.0,0.0,0.0,0.0,0.0,0.0,0.0,0.0,0.0,0.0,0.0,0.0,0.0,0.0,0.0,0.0,0.0,0.0,0.0,0.0,0.0,0.0,0.0,0.0,0.0,0.0,0.0,0.0,0.0,0.0,0.0,0.0,0.0,0.0,0.0,0.0,0.0,0.0,0.0,0.0,0.0,0.0,0.0,0.0,0.0,0.0,0.0,0.0,1.1076,1.1599,1.0838,0.9789,0.8502,0.5976,0.3173,0.0115,0.0,0.0,0.0,0.0,0.0,0.0,0.0,0.0,0.0,0.0,0.0,0.0,0.0,0.0,0.0,0.0,0.0,0.0,0.0,0.0,0.0,0.0,0.0,0.0,0.0,0.0,0.0,0.0,0.0,0.0,0.0,0.0,0.0,0.0,0.0,0.0,0.0,0.0,0.0,0.0,0.0,0.0,0.0,0.0,0.0,0.0,0.0,0.0,0.0,0.0,0.0,0.0,0.0,0.0,0.0,0.0,0.0,0.0,0.0,0.0,0.0,0.0,0.0,0.0,0.0,0.0,0.0,0.0,0.0,0.0,0.0,0.0,0.0,0.0,0.0,0.0,0.0,0.0,0.0,0.0,0.0,0.0,0.0,0.0,0.0,0.0,0.0,0.0,0.0,0.0,0.0,0.0,0.0,0.0,0.0,0.0,0.0,0.0,0.0,0.0,0.0,0.0,0.0,0.0,1.1678,1.1839,1.1761,1.102,0.9359,0.7322,0.4256,-0.0142,0.0,0.0,0.0,0.0,0.0,0.0,0.0,0.0,0.0,0.0,0.0,0.0,0.0,0.0,0.0,0.0,0.0,0.0,0.0,0.0,0.0,0.0,0.0,0.0,0.0,0.0,0.0,0.0,0.0,0.0,0.0,0.0,0.0,0.0,0.0,0.0,0.0,0.0,0.0,0.0,0.0,0.0,0.0,0.0,0.0,0.0,0.0,0.0,0.0,0.0,0.0,0.0,0.0,0.0,0.0,0.0,0.0,0.0,0.0,0.0,0.0,0.0,0.0,0.0,0.0,0.0,0.0,0.0,0.0,0.0,0.0,0.0,0.0,0.0,0.0,0.0,0.0,0.0,0.0,0.0,0.0,0.0,0.0,0.0,0.0,0.0,0.0,0.0,0.0,0.0,0.0,0.0,0.0,0.0,0.0,0.0,0.0,0.0,0.0,0.0,0.0,0.0,0.0,1.3464,1.3401,1.353,1.2897,1.2147,1.1272,0.7683,0.3913,0.0268,-0.2913,0.0,0.0,0.0,0.0,0.0,0.0,0.0,0.0,0.0,0.0,0.0,0.0,0.0,0.0,0.0,0.0,0.0,0.0,0.0,0.0,0.0,0.0,0.0,0.0,0.0,0.0,0.0,0.0,0.0,0.0,0.0,0.0,0.0,0.0,0.0,0.0,0.0,0.0,0.0,0.0,0.0,0.0,0.0,0.0,0.0,0.0,0.0,0.0,0.0,0.0,0.0,0.0,0.0,0.0,0.0,0.0,0.0,0.0,0.0,0.0,0.0,0.0,0.0,0.0,0.0,0.0,0.0,0.0,0.0,0.0,0.0,0.0,0.0,0.0,0.0,0.0,0.0,0.0,0.0,0.0,0.0,0.0,0.0,0.0,0.0,0.0,0.0,0.0,0.0,0.0,0.0,0.0,0.0,0.0,0.0,0.0,0.0,0.0,0.0,0.0,0.0,0.0,1.5208,1.5118,1.507,1.3984,1.3172,1.2887,0.8437,0.4216,0.0837,-0.2836,0.0,0.0,0.0,0.0,0.0,0.0,0.0,0.0,0.0,0.0,0.0,0.0,0.0,0.0,0.0,0.0,0.0,0.0,0.0,0.0,0.0,0.0,0.0,0.0,0.0,0.0,0.0,0.0,0.0,0.0,0.0,0.0,0.0,0.0,0.0,0.0,0.0,0.0,0.0,0.0,0.0,0.0,0.0,0.0,0.0,0.0,0.0,0.0,0.0,0.0,0.0,0.0,0.0,0.0,0.0,0.0,0.0,0.0,0.0,0.0,0.0,0.0,0.0,0.0,0.0,0.0,0.0,0.0,0.0,0.0,0.0,0.0,0.0,0.0,0.0,0.0,0.0,0.0,0.0,0.0,0.0,0.0,0.0,0.0,0.0,0.0,0.0,0.0,0.0,0.0,0.0,0.0,0.0,0.0,0.0,0.0,0.0,0.0,0.0,0.0,0.0,0.0,1.6197,1.6163,1.5605,1.4861,1.4114,1.34,1.0551,0.6547,0.1287,-0.1116,0.0,0.0,0.0,0.0,0.0,0.0,0.0,0.0,0.0,0.0,0.0,0.0,0.0,0.0,0.0,0.0,0.0,0.0,0.0,0.0,0.0,0.0,0.0,0.0,0.0,0.0,0.0,0.0,0.0,0.0,0.0,0.0,0.0,0.0,0.0,0.0,0.0,0.0,0.0,0.0,0.0,0.0,0.0,0.0,0.0,0.0,0.0,0.0,0.0,0.0,0.0,0.0,0.0,0.0,0.0,0.0,0.0,0.0,0.0,0.0,0.0,0.0,0.0,0.0,0.0,0.0,0.0,0.0,0.0,0.0,0.0,0.0,0.0,0.0,0.0,0.0,0.0,0.0,0.0,0.0,0.0,0.0,0.0,0.0,0.0,0.0,0.0,0.0,0.0,0.0,0.0,0.0,0.0,0.0,0.0,0.0,0.0,0.0,0.0,0.0,0.0,0.0,1.7113,1.6643,1.6559,1.5461,1.4626,1.4307,1.0511,0.6459,0.2438,0.0,0.0,0.0,0.0,0.0,0.0,0.0,0.0,0.0,0.0,0.0,0.0,0.0,0.0,0.0,0.0,0.0,0.0,0.0,0.0,0.0,0.0,0.0,0.0,0.0,0.0,0.0,0.0,0.0,0.0,0.0,0.0,0.0,0.0,0.0,0.0,0.0,0.0,0.0,0.0,0.0,0.0,0.0,0.0,0.0,0.0,0.0,0.0,0.0,0.0,0.0,0.0,0.0,0.0,0.0,0.0,0.0,0.0,0.0,0.0,0.0,0.0,0.0,0.0,0.0,0.0,0.0,0.0,0.0,0.0,0.0,0.0,0.0,0.0,0.0,0.0,0.0,0.0,0.0,0.0,0.0,0.0,0.0,0.0,0.0,0.0,0.0,0.0,0.0,0.0,0.0,0.0,0.0,0.0,0.0,0.0,0.0,0.0,0.0,0.0,0.0,0.0,1.8788,1.7731,1.7009,1.7205,1.5875,1.4942,1.4863,1.11,0.7276,0.3827,0.0,0.0,0.0,0.0,0.0,0.0,0.0,0.0,0.0,0.0,0.0,0.0,0.0,0.0,0.0,0.0,0.0,0.0,0.0,0.0,0.0,0.0,0.0,0.0,0.0,0.0,0.0,0.0,0.0,0.0,0.0,0.0,0.0,0.0,0.0,0.0,0.0,0.0,0.0,0.0,0.0,0.0,0.0,0.0,0.0,0.0,0.0,0.0,0.0,0.0,0.0,0.0,0.0,0.0,0.0,0.0,0.0,0.0,0.0,0.0,0.0,0.0,0.0,0.0,0.0,0.0,0.0,0.0,0.0,0.0,0.0,0.0,0.0,0.0,0.0,0.0,0.0,0.0,0.0,0.0,0.0,0.0,0.0,0.0,0.0,0.0,0.0,0.0,0.0,0.0,0.0,0.0,0.0,0.0,0.0,0.0,0.0,0.0,0.0,0.0,0.0,0.0,1.9136,1.8043,1.73,1.7488,1.6065,1.5101,1.5015,1.2662,0.9478,0.0,0.0,0.0,0.0,0.0,0.0,0.0,0.0,0.0,0.0,0.0,0.0,0.0,0.0,0.0,0.0,0.0,0.0,0.0,0.0,0.0,0.0,0.0,0.0,0.0,0.0,0.0,0.0,0.0,0.0,0.0,0.0,0.0,0.0,0.0,0.0,0.0,0.0,0.0,0.0,0.0,0.0,0.0,0.0,0.0,0.0,0.0,0.0,0.0,0.0,0.0,0.0,0.0,0.0,0.0,0.0,0.0,0.0,0.0,0.0,0.0,0.0,0.0,0.0,0.0,0.0,0.0,0.0,0.0,0.0,0.0,0.0,0.0,0.0,0.0,0.0,0.0,0.0,0.0,0.0,0.0,0.0,0.0,0.0,0.0,0.0,0.0,0.0,0.0,0.0,0.0,0.0,0.0,0.0,0.0,0.0,0.0,0.0,0.0,0.0,0.0,0.0,0.0,1.9323,1.8734,1.8097,1.7689,1.6756,1.5862,1.5127,1.3172,1.0364,0.6607,0.0,0.0,0.0,0.0,0.0,0.0,0.0,0.0,0.0,0.0,0.0,0.0,0.0,0.0,0.0,0.0,0.0,0.0,0.0,0.0,0.0,0.0,0.0,0.0,0.0,0.0,0.0,0.0,0.0,0.0,0.0,0.0,0.0,0.0,0.0,0.0,0.0,0.0,0.0,0.0,0.0,0.0,0.0,0.0,0.0,0.0,0.0,0.0,0.0,0.0,0.0,0.0,0.0,0.0,0.0,0.0,0.0,0.0,0.0,0.0,0.0,0.0,0.0,0.0,0.0,0.0,0.0,0.0,0.0,0.0,0.0,0.0,0.0,0.0,0.0,0.0,0.0,0.0,0.0,0.0,0.0,0.0,0.0,0.0,0.0,0.0,0.0,0.0,0.0,0.0,0.0,0.0,0.0,0.0,0.0,0.0,0.0,0.0,0.0,0.0,0.0,0.0,1.9481,1.9114,1.8513,1.7854,1.7105,1.6243,1.5264,1.378,1.1466,0.8103,0.0,0.0,0.0,0.0,0.0,0.0,0.0,0.0,0.0,0.0,0.0,0.0,0.0,0.0,0.0,0.0,0.0,0.0,0.0,0.0,0.0,0.0,0.0,0.0,0.0,0.0,0.0,0.0,0.0,0.0,0.0,0.0,0.0,0.0,0.0,0.0,0.0,0.0,0.0,0.0,0.0,0.0,0.0,0.0,0.0,0.0,0.0,0.0,0.0,0.0,0.0,0.0,0.0,0.0,0.0,0.0,0.0,0.0,0.0,0.0,0.0,0.0,0.0,0.0,0.0,0.0,0.0,0.0,0.0,0.0,0.0,0.0,0.0,0.0,0.0,0.0,0.0,0.0,0.0,0.0,0.0,0.0,0.0,0.0,0.0,0.0,0.0,0.0,0.0,0.0,0.0,0.0,0.0,0.0,0.0,0.0,0.0,0.0,0.0,0.0,0.0,0.0,1.9606,1.9228,1.8653,1.7978,1.7185,1.6322,1.5387,1.4414,1.2626,0.9765,0.0,0.0,0.0,0.0,0.0,0.0,0.0,0.0,0.0,0.0,0.0,0.0,0.0,0.0,0.0,0.0,0.0,0.0,0.0,0.0,0.0,0.0,0.0,0.0,0.0,0.0,0.0,0.0,0.0,0.0,0.0,0.0,0.0,0.0,0.0,0.0,0.0,0.0,0.0,0.0,0.0,0.0,0.0,0.0,0.0,0.0,0.0,0.0,0.0,0.0,0.0,0.0,0.0,0.0,0.0,0.0,0.0,0.0,0.0,0.0,-1.5599,-1.6078,0.0,0.0,0.0,0.0,0.0,0.0,0.0,0.0,0.0,0.0,0.0,0.0,0.0,0.0,0.0,0.0,0.0,0.0,0.0,0.0,0.0,0.0,0.0,0.0,0.0,0.0,0.0,0.0,0.0,0.0,0.0,0.0,0.0,0.0,0.0,0.0,0.0,0.0,0.0,0.0,1.9647,1.9276,1.8721,1.805,1.7208,1.633,1.5453,1.4705,1.3307,1.1043,0.7705,0.0,0.0,0.0,0.0,0.0,0.0,0.0,0.0,0.0,0.0,0.0,0.0,0.0,0.0,0.0,0.0,0.0,0.0,0.0,0.0,0.0,0.0,0.0,0.0,0.0,0.0,0.0,0.0,0.0,0.0,0.0,0.0,0.0,0.0,0.0,0.0,0.0,0.0,0.0,0.0,0.0,0.0,0.0,0.0,0.0,0.0,0.0,0.0,0.0,0.0,0.0,0.0,0.0,0.0,0.0,0.0,0.0,0.0,0.0,-1.5949,-1.5942,0.0,0.0,0.0,0.0,0.0,0.0,0.0,0.0,0.0,0.0,0.0,0.0,0.0,0.0,0.0,0.0,0.0,0.0,0.0,0.0,0.0,0.0,0.0,0.0,0.0,0.0,0.0,0.0,0.0,0.0,0.0,0.0,0.0,0.0,0.0,0.0,0.0,0.0,0.0,0.0,1.9581,1.9273,1.8619,1.7499,1.6965,1.634,1.5474,1.4965,1.3987,1.2321,0.9408,0.0,0.0,0.0,0.0,0.0,0.0,0.0,0.0,0.0,0.0,0.0,0.0,0.0,0.0,0.0,0.0,0.0,0.0,0.0,0.0,0.0,0.0,0.0,0.0,0.0,0.0,0.0,0.0,0.0,0.0,0.0,0.0,0.0,0.0,0.0,0.0,0.0,0.0,0.0,0.0,0.0,0.0,0.0,0.0,0.0,0.0,0.0,0.0,0.0,0.0,0.0,0.0,0.0,-1.488,-1.6244,-1.7112,-1.7948,-1.8568,-1.887,-1.7093,-1.6555,-1.7076,-1.8429,0.0,0.0,0.0,0.0,0.0,0.0,0.0,0.0,0.0,0.0,0.0,0.0,0.0,0.0,0.0,0.0,0.0,0.0,0.0,0.0,0.0,0.0,1.3044,1.3594,1.2948,1.1827,1.0464,0.0,0.0,0.0,0.0,0.0,0.0,0.0,0.0,0.0,0.0,0.0,1.9301,1.9051,1.8329,1.6863,1.6559,1.6189,1.5465,1.519,1.4571,1.3479,1.1123,0.8563,0.0,0.0,0.0,0.0,0.0,0.0,0.0,0.0,0.0,0.0,0.0,0.0,0.0,0.0,0.0,0.0,0.0,0.0,0.0,0.0,0.0,0.0,0.0,0.0,0.0,0.0,0.0,0.0,0.0,0.0,0.0,0.0,-2.0756,-2.1152,0.0,0.0,0.0,0.0,0.0,0.0,0.0,0.0,0.0,0.0,0.0,0.0,0.0,-0.9375,-0.9538,-1.135,-1.3159,-1.4877,-1.6806,-1.8172,-1.9032,-1.9407,-1.958,-1.959,-1.9806,0.0,-1.9735,-2.0319,0.0,0.0,0.0,0.0,0.0,0.0,0.0,0.0,0.0,0.0,0.0,0.0,0.0,0.0,0.0,0.0,0.0,0.0,0.0,0.0,0.0,0.0,1.535,1.5378,1.5165,1.494,1.4837,1.203,0.9497,0.9468,0.9591,1.0236,0.0,0.0,0.0,0.0,0.0,0.0,1.8674,1.8208,1.7633,1.6788,1.6015,1.5527,1.5409,1.5262,1.49,1.4287,1.261,1.0582,0.8238,0.5262,0.0,0.0,0.0,0.0,0.0,0.0,0.0,0.0,0.0,0.0,0.0,0.0,0.0,0.0,0.0,0.0,0.0,0.0,0.0,0.0,0.0,0.0,0.0,0.0,0.0,0.0,0.0,0.0,0.0,-2.0526,-2.0507,-2.0452,-2.0257,-2.0124,0.0,0.0,0.0,0.0,0.0,0.0,0.0,0.0,0.0,-0.9039,-0.9648,-1.048,-1.1571,-1.3706,-1.5426,-1.6729,-1.7906,-1.8554,-1.866,-1.8288,-1.8033,-1.7929,-1.8456,-1.8834,-1.9222,-2.1048,-2.2008,-2.2339,0.0,0.0,0.0,0.0,-1.4642,-1.1012,-0.6845,-0.327,-0.0354,0.1167,0.0,0.0,0.0,0.0,0.0,0.0,0.0,1.3738,1.5383,1.6268,1.6797,1.6915,1.6597,1.6389,1.6712,1.5244,1.358,1.2596,1.2445,1.2793,1.3727,1.538,0.0,0.0,0.0,1.9505,1.8523,1.8043,1.7323,1.6109,1.5625,1.5405,1.54,1.531,1.5113,1.4762,1.3655,1.218,1.0314,0.7627,0.5678,0.0,0.0,0.0,0.0,0.0,0.0,0.0,0.0,0.0,0.0,0.0,0.0,0.0,0.0,0.0,0.0,0.0,0.0,0.0,0.0,0.0,0.0,0.0,0.0,0.0,0.0,0.0,0.0,-1.9698,-1.9662,-1.9139,-1.92,-1.9273,0.0,0.0,0.0,0.0,0.0,0.0,-1.0591,-0.9645,-0.9165,-0.9319,-1.0929,-1.2555,-1.4073,-1.5768,-1.6935,-1.7616,-1.7874,-1.7667,-1.707,-1.6233,-1.6022,-1.6331,-1.6162,-1.6532,-1.7496,-2.0644,-2.2202,-2.2632,-2.2546,-2.2094,-2.1198,-1.8902,-1.5332,-1.0969,-0.6357,-0.1757,0.2334,0.4424,0.5031,0.497,0.5154,0.0,0.0,0.0,0.0,1.587,1.7279,1.7843,1.8092,1.835,1.8024,1.776,1.8091,1.7858,1.7099,1.5448,1.5169,1.5336,1.5652,1.6818,0.0,1.8975,1.9507,1.9402,1.8307,1.797,1.7207,1.5566,1.5385,1.5371,1.5377,1.5312,1.5208,1.5035,1.4428,1.3475,1.209,1.0055,0.8225,0.6678,0.0,0.0,0.0,0.0,0.0,0.0,0.0,0.0,0.0,0.0,0.0,0.0,0.0,0.0,0.0,0.0,0.0,0.0,0.0,0.0,0.0,0.0,0.0,0.0,0.0,0.0,0.0,0.0,0.0,-1.6658,-1.6866,0.0,0.0,0.0,0.0,-1.4502,-1.2247,-1.0257,-0.8623,-0.9299,-1.0058,-1.0684,-1.3226,-1.5123,-1.6234,-1.6477,-1.6685,-1.6861,-1.6115,-1.5274,-1.4374,-1.357,-1.4205,-1.5829,-1.3947,-1.3703,-1.4989,-1.8833,-2.08,-2.1429,-2.1873,-2.1979,-2.1674,-2.0007,-1.5403,-0.9362,-0.4801,0.1258,0.7249,0.9194,0.9623,0.9453,0.9922,1.1107,0.0,0.0,1.6131,1.7596,1.856,1.9159,1.9541,1.9744,1.9764,1.9732,1.9687,1.9564,1.9037,1.7635,1.7535,1.7754,1.7923,0.0,1.9475,1.9485,1.9979,1.968,1.779,1.7745,1.7246,1.5585,1.535,1.5315,1.5303,1.5237,1.5166,1.5105,1.4939,1.4441,1.352,1.2585,1.0915,0.8432,0.9064,0.0,0.0,0.0,0.0,0.0,0.0,0.0,0.0,0.0,0.0,0.0,0.0,0.0,0.0,0.0,0.0,0.0,0.0,0.0,0.0,0.0,0.0,0.0,0.0,0.0,0.0,0.0,0.0,-1.1295,-1.238,0.0,-1.4507,-1.5017,-1.4581,-1.2843,-1.082,-0.9514,-0.9186,-0.863,-0.9503,-1.2126,-1.3593,-1.5062,-1.6504,-1.6159,-1.5551,-1.4708,-1.2952,-1.1164,-0.9399,-0.788,-0.7322,-0.7504,-0.7147,-0.8041,-0.9865,-1.1685,-1.4935,-1.8813,-1.9627,-2.0229,-2.046,-1.9093,-1.3679,-0.6514,-0.3012,0.3826,1.131,1.3157,1.3743,1.3794,1.3992,1.4835,1.5889,1.6799,1.7872,1.8849,1.9412,1.9805,2.0064,2.0131,2.0196,2.0208,2.0149,2.0091,1.9891,1.9345,1.8989,1.8817,1.8875,1.9212,1.9512,1.9669,1.9511,1.8958,1.7835,1.7329,1.664,1.5515,1.5346,1.5276,1.5245,1.5166,1.512,1.5094,1.5062,1.4842,1.4449,1.4188,1.3383,1.1994,1.2062,1.1942,0.0,0.0,0.0,0.0,0.0,0.0,0.0,0.0,0.0,0.0,0.0,0.0,0.0,0.0,0.0,0.0,0.0,0.0,0.0,0.0,0.0,0.0,0.0,0.0,0.0,-0.7606,-0.665,-0.7002,-0.8744,-1.0651,-1.2511,-1.3863,-1.3794,-1.1807,-0.9796,-0.875,-0.894,-0.7766,-0.8571,-1.1825,-1.3264,-1.4531,-1.5694,-1.4495,-1.3043,-1.1361,-0.877,-0.639,-0.4278,-0.2616,-0.1412,-0.0765,-0.1529,-0.2897,-0.4572,-0.5305,-0.8294,-1.2697,-1.5571,-1.7139,-1.7693,-1.632,-1.0935,-0.3436,0.2565,0.9156,1.5189,1.6555,1.6965,1.6927,1.7053,1.7539,1.819,1.891,1.958,2.02,2.0776,2.083,2.0763,2.0735,2.0546,2.035,2.027,2.0288,2.0289,2.0234,1.9895,1.9616,1.9638,1.9675,1.9764,1.9964,1.9397,1.8679,1.7922,1.7108,1.628,1.5451,1.5306,1.5245,1.5204,1.5121,1.5078,1.5068,1.5101,1.5062,1.5004,1.5518,1.5702,1.5457,1.4978,1.4651,1.4466,0.0,0.0,0.0,0.0,0.0,0.0,0.0,0.0,0.0,0.0,0.0,0.0,0.0,0.0,0.0,0.0,0.0,0.0,0.0,0.0,0.0,0.0,0.0,-0.3206,-0.2789,-0.281,-0.4075,-0.6154,-0.866,-1.161,-1.3701,-1.3874,-1.1408,-0.9156,-0.7761,-0.7501,-0.6712,-0.7336,-0.968,-1.2261,-1.3647,-1.3688,-1.1419,-0.912,-0.6862,-0.3655,-0.1138,0.066,0.1925,0.2911,0.3606,0.2323,0.1371,0.0686,-0.0217,-0.1362,-0.3205,-0.9714,-1.278,-1.3362,-1.1775,-0.721,-0.0088,1.1863,1.7151,1.8722,1.939,1.9205,1.877,1.8969,1.9183,1.9603,2.0789,2.1266,2.1676,2.2635,2.2322,2.172,2.1656,2.0978,2.0352,2.0277,2.0305,2.033,2.0327,2.0266,2.0224,2.0291,2.0308,2.0333,2.0391,1.9696,0.0,1.8004,1.7114,1.6232,1.5387,1.5245,1.5204,1.5197,1.5085,1.5,1.5003,1.5064,1.5133,1.5236,1.664,1.7752,1.8505,1.7683,1.6847,1.6061,0.0,0.0,0.0,0.0,0.0,0.0,0.0,0.0,0.0,0.0,0.0,0.0,0.0,0.0,0.0,0.0,0.0,0.0,0.0,0.0,0.0,0.0631,0.2842,0.115,0.2559,0.2703,-0.0152,-0.3272,-0.6855,-1.1061,-1.221,-1.2393,-1.1696,-0.7847,-0.4735,-0.2882,-0.4556,-0.6535,-0.8637,-0.943,-0.9514,-0.8885,-0.6525,-0.4296,-0.2204,0.0381,0.2311,0.3597,0.4446,0.4931,0.4996,0.4433,0.3935,0.3501,0.2859,0.2528,0.1844,-0.3966,-0.7098,-0.8137,-0.7093,-0.1692,0.6365,1.5432,1.8847,1.9237,1.9563,1.9636,1.9586,1.9687,2.0234,2.0898,2.1226,2.1808,2.2411,2.2736,2.2621,2.2404,2.2335,2.2098,2.1884,2.1809,2.135,2.0966,2.102,2.0573,2.0235,2.0342,2.0408,2.0449,2.0467,1.9214,1.8171,1.7933,1.6597,1.5548,1.525,1.5215,1.5177,1.5133,1.5099,1.5052,1.4992,1.5107,1.5457,1.6116,1.714,1.8114,1.8983,1.8437,1.7957,0.0,0.0,0.0,0.0,0.0,0.0,0.0,0.0,0.0,0.0,0.0,0.0,0.0,0.0,0.0,0.0,0.0,0.0,0.0,0.0,0.0,0.0,0.5782,0.791,0.7776,0.8649,0.7414,0.2282,-0.0299,-0.3933,-0.9738,-1.0757,-1.0629,-0.9572,-0.6075,-0.3057,-0.0954,-0.1898,-0.3273,-0.4956,-0.5335,-0.5187,-0.4559,-0.2657,-0.0766,0.0991,0.3042,0.444,0.5167,0.5937,0.6105,0.5832,0.571,0.5542,0.532,0.5136,0.5186,0.4996,0.0,0.0,0.0,0.0,0.5687,1.1902,1.7423,1.9614,2.0009,2.0304,2.0535,2.0725,2.0873,2.1313,2.1861,2.2294,2.2762,2.3248,2.3655,2.3467,2.3121,2.3007,2.2673,2.2355,2.2256,2.1891,2.1493,2.1218,2.0861,0.0,2.0319,2.0379,2.0471,2.0471,1.8955,1.782,1.7853,1.6319,1.5192,1.516,1.5127,1.5107,1.5099,1.5078,0.0,0.0,0.0,1.6309,1.7575,1.8083,0.0,0.0,0.0,1.9008,1.8826,1.8804,0.0,0.0,2.1094,2.2234,0.0,0.0,0.0,0.0,0.0,0.0,0.0,0.0,0.0,0.0,0.0,0.0,0.0,0.0,0.0,0.0,1.0487,1.2968,1.4797,1.4333,1.1079,0.3653,0.2055,-0.1155,-0.8109,-0.9342,-0.8698,-0.6267,-0.3944,-0.1947,-0.0384,0.1014,0.0,0.0,0.0,-0.1064,-0.0718,0.0443,0.1716,0.3159,0.4714,0.566,0.5991,0.6707,0.6761,0.6372,0.6524,0.6514,0.645,0.6881,0.7138,0.7063,0.4706,0.4105,0.5089,0.955,1.3116,1.6071,1.8208,0.0,0.0,2.1166,2.1511,2.1789,2.2036,2.2237,2.2577,2.3492,2.382,2.4064,2.4846,2.446,2.3834,2.3658,2.3009,2.2416,2.2285,2.2241,2.1998,2.1255,2.1148,2.0956,2.0212,2.0242,2.0372,2.0372,1.8924,1.7812,1.7767,1.6285,1.5191,1.5101,0.0,0.0,1.5083,1.5118,1.5502,1.6352,1.6644,1.7529,1.9136,1.9238,1.9536,2.0124,2.0031,1.9898,1.9791,1.966,2.0585,2.246,2.2201,2.3086,0.0,0.0,0.0,0.0,0.0,0.0,0.0,0.0,0.0,0.0,0.0,0.0,0.0,0.0,0.0,1.303,1.5139,1.6214,1.6054,1.5509,1.2333,0.4788,0.0904,-0.2957,-0.7573,-0.7893,-0.6962,-0.4938,-0.1632,0.1042,0.283,0.3491,0.32,0.1891,0.1707,0.1608,0.1551,0.238,0.3432,0.4714,0.5977,0.0,0.7015,0.7503,0.761,0.7396,0.7551,0.7652,0.7753,0.8231,0.911,1.0003,0.8022,0.8062,0.9573,1.1904,1.4201,1.6411,1.8098,1.9328,2.0196,2.0618,2.1057,2.1443,2.1586,2.2251,0.0,2.3247,2.3851,2.4482,2.4651,2.4526,2.4348,2.4248,2.4107,2.3946,2.3877,2.3392,2.275,2.1962,2.1441,2.0883,2.0088,2.0106,2.0215,2.0161,1.9319,1.8405,1.765,1.6636,1.5746,1.5095,1.496,1.4952,1.5014,1.5643,1.6155,1.6385,1.7785,1.8783,1.9173,1.9817,2.0234,2.0423,2.0399,2.034,2.027,2.0237,2.114,2.2896,2.3086,2.3941,0.0,0.0,0.0,0.0,0.0,0.0,0.0,0.0,0.0,0.0,0.0,0.5332,0.8554,0.0,1.4232,1.6831,1.7526,1.7499,1.6756,1.4566,1.0824,0.4814,0.2476,-0.0406,-0.4877,-0.4317,-0.3008,-0.1353,0.1183,0.3289,0.4599,0.4819,0.4548,0.3834,0.3499,0.3436,0.366,0.4152,0.498,0.6095,0.6907,0.7391,0.761,0.8037,0.815,0.7996,0.8362,0.8666,0.8922,0.9703,1.0677,1.1665,1.1146,1.1739,1.309,1.4778,1.6414,1.7975,1.926,2.0235,2.0975,2.1379,2.179,2.2176,2.236,2.2856,2.3398,2.3548,2.3952,2.4356,2.4356,2.4374,2.4374,2.4321,2.4303,2.4266,2.421,2.3953,2.3325,2.2087,2.1655,2.1134,1.9945,1.9855,1.9962,1.9993,1.9268,1.8535,1.8098,1.7254,1.6564,1.6196,1.6111,1.613,1.6196,1.706,1.7627,1.7706,1.8988,1.9769,1.9791,2.021,2.0471,2.0507,2.0508,2.0487,2.0446,2.0449,2.1323,2.3013,2.3451,2.4314,0.0,0.0,0.0,0.0,0.0,0.0,0.0,-0.0899,0.2529,0.581,0.8493,1.1091,1.406,1.6126,1.7859,1.9173,1.8668,1.7699,1.6648,1.3113,0.9084,0.4912,0.4449,0.2812,-0.1493,-0.0347,0.11,0.2201,0.3646,0.4796,0.5501,0.5578,0.5562,0.5457,0.5028,0.5014,0.5487,0.5706,0.6308,0.7241,0.767,0.7931,0.809,0.8573,0.8626,0.8533,0.9211,0.9673,1.0028,1.1057,1.1868,1.2638,1.3558,1.455,1.566,1.7109,1.8377,1.9471,2.0462,2.1198,2.1811,2.2186,2.2571,2.2977,2.317,2.3364,2.3606,2.3855,2.3978,2.404,2.4058,2.4154,2.4247,2.419,2.4171,2.4172,2.4094,2.4113,2.373,2.2209,2.2019,2.1634,2.009,1.9873,1.992,1.99,1.9235,1.8707,1.8584,1.7914,1.7393,1.7299,1.7299,1.7407,1.766,1.843,1.9,1.9234,1.9953,2.0392,2.0404,2.0458,2.0492,2.0509,2.0494,2.0501,2.0494,2.0662,2.1515,2.2979,2.3584,2.4488,-2.3282,-2.1947,-1.9218,-1.4734,-0.9385,-0.3894,0.0,0.5204,0.8434,1.0981,1.3317,1.5498,1.7359,1.8388,1.9132,1.9669,1.8779,1.7228,1.498,1.2413,0.9565,0.6273,0.4871,0.3422,0.1493,0.2611,0.351,0.3556,0.4453,0.5202,0.5643,0.6172,0.6442,0.6355,0.6496,0.672,0.6864,0.702,0.7337,0.7818,0.8302,0.858,0.8699,0.9106,0.9361,0.9458,1.0198,1.0812,1.1318,1.1819,1.2452,1.3208,1.4354,1.5452,1.6579,1.7518,1.8545,1.9588,2.0512,2.1135,2.1584,2.1853,2.2298,2.2764,2.2825,2.3126,2.3453,2.3594,2.3728,2.3858,2.3917,2.4016,2.4113,2.4036,2.4074,2.4094,2.3937,2.4016,2.3838,2.2866,2.2831,2.2467,2.0849,2.0686,2.0557,1.9913,1.9682,1.932,1.8608,1.8372,1.7993,1.7296,1.7255,1.7673,1.8574,1.8809,1.9249,2.0092,2.0258,2.0346,2.039,2.0421,2.0434,2.0492,2.05,2.05,2.0499,2.1231,2.2022,2.2934,2.3709,2.4587,-2.0499,-1.7869,-1.3812,-0.9334,-0.3166,0.2975,0.7404,1.0614,1.3223,1.4983,1.6281,1.7347,1.8228,1.8246,1.8022,1.7607,1.649,1.4916,1.2696,1.0454,0.8165,0.572,0.4609,0.3707,0.2929,0.3707,0.4415,0.4809,0.5663,0.6317,0.6737,0.7251,0.7518,0.7512,0.7617,0.7676,0.7735,0.7783,0.799,0.8302,0.858,0.885,0.9061,0.951,1.0072,1.0753,1.1116,1.1619,1.2224,1.2501,1.3074,1.3884,1.4824,1.584,1.6954,1.788,1.8803,1.9711,2.0376,2.0861,2.126,2.1524,2.1882,2.2271,2.2419,2.2703,2.3045,2.3199,2.3435,2.3638,2.3721,2.3852,2.3976,2.3896,2.3937,2.3955,2.3852,2.3894,2.368,2.2859,2.285,2.2661,2.1578,2.1544,2.1577,2.1343,2.0396,1.9582,1.9295,1.9195,1.9064,1.8805,1.8817,1.9054,1.9506,1.9619,1.9813,2.0219,2.0273,2.0311,2.0347,2.0341,2.0371,2.0444,2.1089,2.1438,2.1434,2.2075,2.2835,2.3651,2.3951,2.4559,-1.5122,-1.1646,-0.6935,-0.2284,0.363,0.9162,1.2584,1.4852,1.6471,1.7288,1.7564,1.7575,1.7393,1.6747,1.591,1.489,1.3819,1.2464,1.0694,0.8926,0.7143,0.5386,0.468,0.4294,0.4015,0.4405,0.4904,0.5673,0.6534,0.7182,0.7616,0.8103,0.8374,0.848,0.8434,0.8434,0.8434,0.8381,0.848,0.8633,0.885,0.9113,0.9309,1.0028,1.0846,1.1678,1.1828,1.2274,1.2813,1.3074,1.3684,1.4525,1.5365,1.633,1.7366,1.8224,1.9006,1.9711,2.0254,2.0646,2.0942,2.1214,2.1524,2.1899,2.2096,2.2392,2.2738,2.2927,2.3247,2.3522,2.3607,2.3786,2.3896,2.3813,2.3834,2.3855,2.3786,2.381,2.3653,2.3111,2.3161,2.3102,2.2439,2.2476,2.2574,2.2476,2.1329,2.0514,2.0527,2.0289,2.015,2.024,2.0129,2.0039,2.0117,2.0162,2.0205,2.023,2.0265,2.0404,2.0641,2.0739,2.0805,2.0867,2.1978,2.254,2.2533,2.3014,2.3554,2.4171,2.434,2.4726,-0.6192,-0.2651,0.1596,0.6872,1.0709,1.3853,1.6441,1.7443,1.7752,1.7466,1.6899,1.6056,1.4754,1.3861,1.2974,1.1895,1.1202,1.0424,0.94,0.8461,0.7354,0.5937,0.5445,0.5226,0.5069,0.4956,0.5175,0.5946,0.6804,0.7498,0.8078,0.8508,0.8883,0.9159,0.9061,0.8956,0.8956,0.8857,0.8804,0.8804,0.9211,0.9465,0.9614,1.0753,1.1578,1.2076,1.2382,1.2657,1.3016,1.3563,1.4305,1.5152,1.6046,1.7037,1.8028,1.8664,1.9169,1.9603,2.0115,2.046,2.0663,2.0926,2.1339,2.1738,2.194,2.2326,2.2738,2.2927,2.3295,2.3594,2.3678,2.385,2.3955,2.3828,2.381,2.3774,2.3721,2.381,2.3917,2.3939,2.4174,2.4126,2.3468,2.3512,2.3411,2.2696,2.2541,2.2492,2.2436,2.1673,2.1153,2.1164,2.0515,2.0117,2.018,2.0205,2.0222,2.0285,2.0312,2.0674,2.1528,2.1806,2.1982,2.2043,2.3093,2.3647,2.3642,2.3931,2.409,2.4128,2.4889,2.5243,-0.0146,0.3663,0.7835,1.1259,1.4914,1.7861,1.8665,1.8574,1.7912,1.6476,1.4786,1.3068,1.1463,1.0303,0.9473,0.9098,0.9344,0.9438,0.8974,0.8508,0.7652,0.6362,0.5937,0.5723,0.5714,0.5732,0.6119,0.6907,0.7711,0.8408,0.8935,0.9197,0.9354,0.9465,0.9263,0.9113,0.9008,0.8857,0.8804,0.8811,0.9361,1.0028,1.0753,1.1418,1.2026,1.2627,1.2852,1.3218,1.3684,1.4201,1.4892,1.5788,1.6562,1.7409,1.8266,1.8808,1.925,1.9632,1.999,2.027,2.0494,2.0778,2.1166,2.154,2.1853,2.2243,2.2685,2.2944,2.3295,2.3634,2.3678,2.381,2.3915,2.3765,2.3765,2.3789,2.3728,2.3858,2.402,2.4174,2.4425,2.4564,2.4412,2.453,2.4555,2.4361,2.3339,2.2592,2.2569,2.235,2.2199,2.2199,2.1493,2.1051,2.105,2.0576,2.0488,2.1062,2.11,2.1501,2.2354,2.2477,2.2562,2.2624,2.3515,2.397,2.397,2.459,2.4909,2.4908,2.5128,2.5209,0.7043,1.0314,1.3708,1.6408,1.8616,2.0043,1.9721,1.8449,1.6635,1.4299,1.185,0.9623,0.7995,0.7286,0.712,0.7582,0.8717,0.9533,0.9481,0.9252,0.8613,0.7315,0.6902,0.6745,0.6681,0.6966,0.7295,0.7753,0.8508,0.9197,0.971,0.9925,1.0035,1.0079,0.9621,0.9263,0.9159,0.891,0.891,0.9106,0.9614,1.0438,1.1528,1.1918,1.2461,1.3162,1.342,1.3836,1.4387,1.4937,1.5644,1.6471,1.7244,1.7947,1.8669,1.9124,1.9487,1.972,1.9848,2.0131,2.0423,2.0728,2.1119,2.1554,2.1924,2.2381,2.279,2.3045,2.3348,2.3642,2.3721,2.381,2.3876,2.3768,2.3807,2.3852,2.3858,2.402,2.4229,2.4422,2.4654,2.4837,2.4955,2.5075,2.5195,2.5233,2.4282,2.3562,2.3532,2.3313,2.316,2.316,2.2431,2.195,2.1959,2.1487,2.1419,2.1927,2.1966,2.2359,2.3232,2.3251,2.3433,2.3796,2.43,2.4552,2.4533,2.5053,2.5292,2.5261,2.5198,2.5111,1.496,1.7037,1.9041,2.1952,2.1615,2.0332,1.9489,1.6995,1.4045,1.098,0.8233,0.5958,0.4671,0.507,0.6035,0.7506,0.9423,1.0712,1.073,1.0655,1.014,0.8738,0.833,0.8078,0.7978,0.8495,0.8692,0.8435,0.9176,0.9909,1.0415,1.0651,1.0769,1.0922,1.0079,0.9562,0.9413,0.9008,0.9061,0.9614,0.9865,1.0685,1.1918,1.2264,1.289,1.3658,1.4082,1.4536,1.504,1.5756,1.6471,1.7231,1.8001,1.8655,1.9176,1.9581,1.9762,1.9848,1.9833,2.0045,2.0392,2.0795,2.126,2.1702,2.2175,2.266,2.307,2.3265,2.3508,2.3732,2.3786,2.3852,2.3896,2.3816,2.3917,2.4018,2.4116,2.432,2.4543,2.4682,2.4861,2.5025,2.5103,2.522,2.5302,2.5303,2.5303,2.5293,2.5203,2.4542,2.4072,2.4072,2.3352,2.2871,2.287,2.2833,2.2814,2.2851,2.287,2.3272,2.4137,2.4156,2.455,2.5387,2.5388,2.5361,2.5284,2.5292,2.5261,2.5176,2.5106,2.5,1.7831,1.9254,2.0335,2.0869,1.983,1.8062,1.572,1.2822,0.996,0.7862,0.5321,0.3704,0.4565,0.5836,0.7432,0.9443,1.1383,1.2507,1.2227,1.1679,1.0889,0.9622,0.9065,0.8712,0.856,0.8981,0.9406,0.9777,1.012,1.062,1.1209,1.1167,1.1124,1.1074,1.0182,0.9614,0.9413,0.9113,0.9159,0.9614,1.0079,1.0889,1.1981,1.2677,1.3447,1.4283,1.4835,1.5433,1.6008,1.6587,1.7231,1.7894,1.8496,1.902,1.9457,1.9797,2.0025,2.0185,2.0342,2.0462,2.0597,2.1166,2.1628,2.2051,2.2537,2.2935,2.3265,2.3476,2.3642,2.3774,2.3792,2.3917,2.4016,2.3958,2.4095,2.4266,2.4355,2.4543,2.4697,2.4893,2.505,2.5168,2.5231,2.5273,2.5303,2.5303,2.5303,2.5284,2.5293,2.5101,2.4966,2.4966,2.4245,2.3774,2.3764,2.3178,2.3081,2.3725,2.3764,2.4149,2.4957,2.4995,2.5091,2.5332,2.5322,2.5302,2.5233,2.519,2.5122,2.5044,2.4872,2.4724,1.854,1.9017,1.9213,1.8808,1.7227,1.5087,1.2516,0.9498,0.6684,0.4969,0.3416,0.291,0.467,0.6839,0.9145,1.1534,1.3432,1.4409,1.3862,1.3194,1.2195,1.0736,1.002,0.951,0.9197,0.9465,0.9836,1.0293,1.0704,1.1157,1.1669,1.1678,1.1578,1.1477,1.0651,0.9976,0.951,0.9361,0.9517,0.9984,1.0446,1.1292,1.2463,1.3226,1.4122,1.5096,1.5676,1.6256,1.6866,1.7422,1.7933,1.8496,1.9043,1.9479,1.9818,2.0135,2.0357,2.0561,2.0893,2.1039,2.1197,2.1598,2.2039,2.2483,2.2859,2.3199,2.3471,2.3567,2.3703,2.3816,2.3837,2.3978,2.4114,2.4153,2.4303,2.4462,2.4596,2.4738,2.4879,2.5057,2.5176,2.5252,2.5292,2.5302,2.5283,2.5253,2.5283,2.5293,2.5293,2.5303,2.5303,2.5303,2.4909,2.462,2.462,2.4178,2.4101,2.4601,2.462,2.4832,2.5284,2.5303,2.5303,2.5293,2.5262,2.5231,2.5164,2.5049,2.4981,2.4917,2.4737,2.4595,1.7963,1.7434,1.6831,1.6163,1.4158,1.1792,0.9575,0.6779,0.42,0.266,0.2338,0.3071,0.5337,0.8126,1.0911,1.3508,1.5307,1.616,1.5459,1.4712,1.3591,1.1835,1.0947,1.0249,0.9614,0.9836,1.0087,1.032,1.0998,1.1528,1.1927,1.2076,1.2026,1.1769,1.1074,1.0352,0.9666,0.9666,0.9976,1.0506,1.0947,1.1882,1.315,1.3914,1.4892,1.6008,1.6544,1.7105,1.772,1.8226,1.8679,1.908,1.9551,1.9925,2.0204,2.0563,2.0778,2.0942,2.1401,2.1675,2.1899,2.2056,2.2446,2.2884,2.3168,2.3407,2.3607,2.3607,2.3725,2.3837,2.3917,2.4039,2.4192,2.4375,2.4515,2.4663,2.4776,2.4894,2.5031,2.5153,2.525,2.5282,2.5311,2.5311,2.5282,2.5212,2.5252,2.5311,2.5311,2.5293,2.5303,2.5303,2.5303,2.5303,2.5303,2.5303,2.5303,2.5303,2.5303,2.5303,2.5303,2.5303,2.5312,2.5282,2.5231,2.5145,2.5069,2.4936,2.4828,2.476,2.4626,2.451,1.7162,1.6305,1.5188,1.3588,1.1405,0.9,0.6422,0.4463,0.2996,0.2065,0.2354,0.4054,0.8102,0.9994,1.1896,1.4646,1.611,1.6733,1.6405,1.5185,1.3787,1.2501,1.1182,1.0146,0.9517,0.9681,0.9888,1.0072,1.115,1.1927,1.2224,1.2274,1.1877,1.1124,1.082,1.0454,0.9909,1.0131,1.0446,1.0905,1.1733,1.2735,1.3763,1.4835,1.5884,1.6824,1.7489,1.8054,1.8592,1.8907,1.9281,1.9681,2.0,2.0292,2.0563,2.0958,2.1183,2.1355,2.1705,2.1986,2.226,2.2517,2.2756,2.3028,2.3336,2.3517,2.3607,2.3739,2.3871,2.3976,2.4054,2.4248,2.4444,2.4478,2.4631,2.4776,2.4791,2.4856,2.4974,2.5091,2.5168,2.5239,2.5282,2.5311,2.5282,2.5212,2.5252,2.5311,2.5311,2.5293,2.5303,2.5303,2.5303,2.5303,2.5303,2.5303,2.5303,2.5303,2.5303,2.5293,2.5292,2.5292,2.5271,2.5228,2.5141,2.5069,2.4929,2.4808,2.4673,2.4545,2.4462,2.4357,1.6857,1.5587,1.4,1.2258,0.9787,0.7176,0.4792,0.3134,0.2009,0.1846,0.2817,0.4878,0.8515,1.0786,1.2961,1.554,1.6726,1.7219,1.6945,1.5964,1.4702,1.3196,1.1913,1.0805,0.9931,0.9888,0.994,1.0064,1.12,1.2026,1.2283,1.2471,1.2314,1.1792,1.156,1.1309,1.1032,1.1183,1.1484,1.203,1.2831,1.3763,1.4835,1.5772,1.6744,1.7585,1.8198,1.8717,1.9184,1.9515,1.9859,2.0208,2.0447,2.0747,2.1055,2.134,2.1556,2.1705,2.2003,2.222,2.2388,2.2668,2.2876,2.3095,2.336,2.3517,2.3607,2.3718,2.3891,2.4074,2.4134,2.4338,2.4564,2.4599,2.4679,2.4757,2.4783,2.4851,2.4942,2.5061,2.5149,2.5201,2.5241,2.5252,2.5241,2.5198,2.522,2.5252,2.5252,2.5283,2.5303,2.5303,2.5303,2.5303,2.5303,2.5303,2.5303,2.5303,2.5293,2.5273,2.5252,2.5201,2.5157,2.5094,2.5032,2.4907,2.4741,2.4639,2.4528,2.4392,2.4321,2.4247,1.6408,1.4869,1.3056,1.1301,0.8641,0.594,0.3782,0.2223,0.1342,0.1733,0.3559,0.5858,0.8431,1.1051,1.3619,1.5973,1.6962,1.7416,1.7337,1.6763,1.5666,1.4016,1.2842,1.1696,1.0591,1.0401,1.035,1.0482,1.1595,1.2363,1.251,1.2803,1.289,1.2716,1.2442,1.2255,1.2197,1.2276,1.2599,1.3236,1.3914,1.4824,1.5884,1.6744,1.7531,1.8302,1.8841,1.9303,1.9696,2.005,2.0395,2.0663,2.0926,2.1182,2.1509,2.1708,2.1857,2.2003,2.2237,2.2366,2.246,2.2712,2.2944,2.3119,2.3336,2.3476,2.3629,2.3721,2.3933,2.4134,2.4229,2.4428,2.4631,2.4682,2.4695,2.4707,2.4798,2.4851,2.4942,2.5068,2.5138,2.5201,2.5212,2.5192,2.5201,2.5195,2.5209,2.5192,2.5192,2.5243,2.5274,2.5274,2.5284,2.5303,2.5303,2.5303,2.5303,2.5303,2.5292,2.5261,2.5179,2.5115,2.505,2.4972,2.4884,2.4749,2.4559,2.4495,2.441,2.4284,2.4229,2.4209,1.5117,1.3864,1.2225,1.0321,0.7814,0.5217,0.2937,0.1633,0.112,0.1842,0.4546,0.7283,0.8951,1.0889,1.3085,1.5542,1.6418,1.7002,1.7727,1.7122,1.6149,1.5064,1.3699,1.2477,1.1535,1.1331,1.1333,1.1484,1.2691,1.342,1.3314,1.342,1.342,1.316,1.3112,1.2967,1.2716,1.3064,1.3532,1.4007,1.4982,1.5884,1.6744,1.772,1.8408,1.8855,1.9449,1.9894,2.0139,2.0429,2.0778,2.1135,2.1309,2.1509,2.1781,2.1911,2.2061,2.2197,2.2338,2.2432,2.2525,2.2738,2.2876,2.307,2.3313,2.3499,2.3638,2.3834,2.4037,2.421,2.4339,2.4534,2.4682,2.4711,2.4695,2.4729,2.4798,2.4856,2.494,2.5069,2.5149,2.5195,2.5201,2.5192,2.5192,2.5201,2.5212,2.5192,2.5192,2.5212,2.5222,2.5222,2.5264,2.5303,2.5303,2.5302,2.5292,2.5292,2.525,2.5176,2.5106,2.5044,2.494,2.4821,2.4689,2.4559,2.4424,2.4356,2.4284,2.421,2.419,2.419,1.5241,1.3921,1.2252,1.0488,0.7871,0.5225,0.3238,0.2098,0.1677,0.2504,0.4736,0.7211,0.9284,1.1437,1.3541,1.557,1.6672,1.7664,1.8776,1.8533,1.8002,1.7338,1.5806,1.444,1.3544,1.3039,1.2993,1.3638,1.4202,1.4633,1.4884,1.4504,1.4305,1.4351,1.4071,1.3931,1.3946,1.4201,1.4617,1.5231,1.6071,1.6883,1.772,1.8447,1.9087,1.9603,2.0035,2.0379,2.0663,2.0958,2.1261,2.1511,2.1661,2.1827,2.2036,2.2106,2.218,2.2282,2.2366,2.2432,2.2525,2.2738,2.2919,2.3102,2.3336,2.3522,2.3682,2.3855,2.4057,2.421,2.4321,2.4464,2.4615,2.4679,2.4695,2.4742,2.4842,2.4912,2.5012,2.5125,2.5172,2.5206,2.5201,2.5201,2.5209,2.5209,2.5209,2.5209,2.5209,2.5201,2.5192,2.5192,2.5262,2.5302,2.5302,2.5292,2.5311,2.5311,2.5248,2.516,2.5038,2.498,2.4875,2.4729,2.4663,2.4512,2.4338,2.4801,2.5004,2.4926,2.5419,2.5383,1.5266,1.4022,1.2466,1.0789,0.8159,0.5575,0.3739,0.2672,0.2287,0.3164,0.5054,0.7289,0.9614,1.1899,1.3972,1.577,1.7062,1.835,1.9824,1.9928,1.9722,1.9424,1.7893,1.6561,1.5703,1.4933,1.4859,1.5628,1.5802,1.5992,1.6326,1.5776,1.5371,1.5244,1.496,1.4858,1.5017,1.5254,1.5724,1.638,1.706,1.7814,1.8592,1.9161,1.9675,2.0185,2.053,2.0828,2.1055,2.1386,2.1631,2.1797,2.1945,2.2094,2.2242,2.2254,2.2282,2.2338,2.2432,2.2515,2.2605,2.2816,2.3028,2.3247,2.3435,2.3594,2.3768,2.3935,2.4134,2.434,2.4635,2.4798,2.4974,2.5338,2.5458,2.5499,2.5603,2.5693,2.5779,2.5888,2.5703,2.5535,2.5551,2.5348,2.5184,2.5206,2.5206,2.5206,2.5187,2.5198,2.5209,2.5209,2.525,2.528,2.5311,2.5282,2.5271,2.5271,2.5184,2.5101,2.4987,2.4898,2.4768,2.4631,2.4582,2.4592,2.4672,2.5226,2.5592,2.5768,2.6337,2.63,1.496,1.4075,1.2754,1.0931,0.8527,0.6114,0.4197,0.3226,0.2954,0.3828,0.5707,0.7834,1.0003,1.213,1.4226,1.6198,1.7573,1.9032,2.0848,2.1067,2.1087,2.1101,1.9625,1.8419,1.7846,1.7093,1.6762,1.7046,1.746,1.7575,1.7408,1.7247,1.6683,1.5647,1.5712,1.5788,1.5788,1.6256,1.6744,1.7273,1.7963,1.8592,1.9213,1.9818,2.0224,2.0514,2.0991,2.1261,2.1417,2.1691,2.1869,2.1998,2.2152,2.2225,2.231,2.2377,2.2405,2.2405,2.2569,2.2685,2.2842,2.3045,2.3271,2.3508,2.3667,2.3735,2.3837,2.4113,2.4284,2.4597,2.5467,2.5742,2.6032,2.6943,2.7215,2.7293,2.735,2.7433,2.7495,2.7561,2.689,2.63,2.6378,2.5672,2.5118,2.5187,2.5203,2.5203,2.5206,2.5203,2.5191,2.5191,2.5191,2.5225,2.5282,2.5241,2.5201,2.5198,2.5069,2.4966,2.4898,2.4768,2.4645,2.4512,2.4498,2.4837,2.55,2.55,2.5866,2.6594,2.6612,2.6612,1.5187,1.419,1.2841,1.1463,0.9291,0.7052,0.5458,0.4549,0.4278,0.514,0.6881,0.8933,1.1292,1.3596,1.5763,1.7649,1.9304,2.1068,2.2935,2.3165,2.3264,2.3739,2.1687,1.9813,1.8663,1.8619,1.8733,1.8918,1.8907,1.8824,1.8767,1.8027,1.7232,1.6374,1.6194,1.6269,1.6484,1.6854,1.7338,1.8003,1.8581,1.9221,1.9909,2.0292,2.0697,2.1119,2.1417,2.1601,2.1781,2.1991,2.2094,2.2152,2.2265,2.2366,2.2394,2.2487,2.2569,2.2632,2.2816,2.297,2.3102,2.3365,2.3531,2.3667,2.3855,2.3917,2.3976,2.4151,2.4652,2.5226,2.556,2.6116,2.6728,2.7095,2.7253,2.7318,2.7315,2.7377,2.7422,2.7392,2.7214,2.7072,2.7153,2.6892,2.6697,2.6765,2.6778,2.681,2.6911,2.6911,2.6911,2.6898,2.6911,2.6446,2.5324,2.5217,2.5195,2.5203,2.5583,2.5797,2.5716,2.6211,2.6418,2.6281,2.6282,2.6303,2.6314,2.6923,2.7561,2.8223,2.7677,2.742,1.5501,1.4422,1.3092,1.1886,0.9885,0.7864,0.6602,0.5806,0.5592,0.6382,0.7945,0.9902,1.2401,1.4763,1.6971,1.8974,2.1016,2.2895,2.4592,2.5005,2.4941,2.4581,2.288,2.1224,1.9849,1.994,2.0257,2.0547,2.0368,2.0114,1.9917,1.893,1.807,1.7437,1.6965,1.6837,1.716,1.7571,1.8094,1.8707,1.9213,1.9808,2.0454,2.0731,2.1135,2.157,2.1721,2.1886,0.0,2.2168,2.2254,2.2282,2.2394,2.246,2.2542,2.2685,2.279,2.2876,2.3102,2.3247,2.3389,2.3598,2.375,2.3876,2.4016,2.4074,2.4167,2.4537,2.5056,2.5668,2.6356,2.7009,2.7587,2.8015,2.8143,2.8177,2.8194,2.8228,2.8225,2.8209,2.7961,2.7786,2.7837,2.7554,2.7392,2.7447,2.7504,2.7578,2.7688,2.7708,2.7688,2.7631,2.7603,2.7143,2.6079,2.5761,2.559,2.5552,2.5911,2.6223,2.6427,2.6925,2.7119,2.6991,2.6991,2.7045,2.7142,2.7988,2.8584,2.8975,2.8503,2.8246,0.0,1.4789,1.3484,1.2209,1.0359,0.86,0.7676,0.6999,0.0,0.7664,0.9075,1.0913,1.3521,1.5781,1.7999,2.0348,2.2682,2.4627,2.5879,2.6611,2.6258,2.4184,2.3458,2.2558,2.1198,2.1237,2.1431,2.1793,2.1746,2.1417,2.09,1.9926,1.9154,1.8717,1.7931,1.7625,1.7828,1.8305,1.886,1.945,1.9848,2.0348,2.0941,2.1213,2.1495,2.1827,2.194,2.2089,2.2214,2.2282,2.2366,2.2405,2.2487,2.2605,2.2738,2.2944,2.307,2.3175,2.3435,2.3571,2.3638,2.3792,2.3992,2.4205,2.4262,2.4281,2.4428,2.5201,2.5536,2.6039,2.767,2.8237,2.8577,2.9382,2.9588,2.9607,2.9664,2.9626,2.9607,2.9664,2.9026,2.8482,2.8482,2.7932,2.7503,2.7562,2.768,2.7796,2.786,2.7866,2.7826,2.7695,2.7607,2.7511,2.739,2.6754,2.6294,2.6193,2.6158,2.6439,2.7065,2.714,2.7101,2.6986,2.6967,2.7294,2.8003,2.8672,2.8994,2.8994,2.9017,2.9017,1.6795,0.0,1.3732,1.2803,1.1349,0.9931,0.0,0.8646,0.8593,0.9304,1.0953,1.302,1.5488,1.8006,2.0392,2.2525,2.4565,2.6318,2.7494,2.8069,2.7534,2.5283,2.463,2.3618,2.1951,2.2077,2.2278,2.2278,2.2231,2.2067,2.1741,2.0519,1.9798,1.9661,1.889,1.8436,1.8344,1.8745,1.9199,1.9696,2.0189,2.0681,2.1229,2.1479,2.1784,2.2111,2.2123,2.2225,2.2349,2.2366,2.2432,2.2552,2.2685,2.2816,2.2952,2.3168,2.336,2.3504,2.3602,2.3732,2.3855,2.3996,2.4496,2.5107,2.5107,2.5127,2.5164,2.5348,2.6344,2.7435,2.7906,2.8542,2.9126,2.9375,2.9433,2.9471,2.9512,2.9531,2.9531,2.9531,2.942,2.9326,2.9401,2.9285,2.924,2.9285,2.9433,2.9508,2.9518,2.9541,2.9497,2.9414,2.9255,2.8854,2.8125,2.737,2.6897,2.6864,2.738,2.7755,2.7903,2.846,2.8734,2.8709,2.8606,2.8633,2.8813,2.8948,2.8994,2.8994,2.9044,2.9085,1.7297,1.6015,1.4584,1.3794,1.2609,1.1423,1.0578,1.0136,1.0049,1.0543,1.2259,1.4429,1.6931,1.9526,2.198,2.4147,2.633,2.8172,2.9365,2.9264,2.8352,2.6244,2.5431,2.4393,2.2747,2.2737,2.2783,2.2752,2.2646,2.254,2.2278,2.1018,2.0344,2.0373,1.952,1.8974,1.8784,1.9184,1.9624,2.0085,2.0481,2.0958,2.1495,2.1708,2.1961,2.2242,2.2242,2.231,2.2405,2.2432,2.2525,2.2712,2.285,2.3045,2.3217,2.3407,2.3822,2.4302,2.4357,2.4481,2.4677,2.5102,2.5307,2.5476,2.5841,2.6209,2.6484,2.6484,2.7169,2.7985,2.8439,2.8907,2.9304,2.9372,2.9392,2.9373,2.9472,2.9472,2.9472,2.9492,2.955,2.9739,3.019,3.0338,3.0407,3.0492,3.0573,3.0506,3.0057,2.9969,2.9924,2.9842,2.9663,2.9326,2.8799,2.8312,2.7884,2.7531,2.7883,2.825,2.8598,2.9003,2.9181,2.9152,2.9085,2.9044,2.9044,2.9017,2.8994,2.8994,2.9085,2.9089,1.776,1.6967,1.5947,1.4982,1.4011,1.3077,1.2271,1.176,1.1589,1.1886,1.3538,1.5747,1.8267,2.0922,2.342,2.559,2.793,2.9868,3.1103,3.0361,2.8989,2.7099,2.6107,2.4985,2.3526,2.326,2.3187,2.3127,2.3008,2.2859,2.2692,2.1456,2.0809,2.0905,2.0009,1.9442,1.931,1.9717,2.0104,2.0478,2.0828,2.1261,2.1708,2.1886,2.2077,2.231,2.231,2.2349,2.246,2.2515,2.2659,2.2893,2.307,2.3265,2.3471,2.3799,2.44,2.5125,2.5342,2.5484,2.5695,2.6374,2.6209,2.5899,2.6576,2.7368,2.7993,2.8015,2.8055,2.8264,2.9012,2.9262,2.9326,2.9392,2.9373,2.9373,2.9492,2.9472,2.947,2.968,2.9776,3.0076,3.0979,3.1241,3.1328,3.1381,3.1447,3.1181,3.0345,3.0124,2.9962,2.9775,2.9655,2.9514,2.928,2.9263,2.8946,2.8202,2.8167,2.8439,2.9071,2.9067,2.9062,2.8994,2.8994,2.9049,2.9177,2.9177,2.9255,2.9384,2.9453,2.948,1.863,1.8447,1.7933,1.6353,1.5557,1.5024,1.4383,1.3946,1.3803,1.422,1.6032,1.819,2.0367,2.3169,2.5698,2.7297,2.9176,3.0879,3.2036,3.1329,2.9945,2.7932,2.6898,2.5645,2.3874,2.361,2.3436,2.3275,2.3231,2.3187,2.3038,2.1869,2.1248,2.13,2.0518,2.0139,2.0261,2.0379,2.0548,2.0828,2.1214,2.1524,2.1797,2.2036,2.2254,2.2377,2.2377,2.2487,2.2659,2.2738,2.2919,2.3151,2.3289,2.3476,2.3746,2.4518,2.4958,2.5287,2.6109,2.6389,2.6447,2.6557,2.6979,2.7478,2.765,2.8257,2.8905,2.9034,2.899,2.8964,2.9222,2.9307,2.9332,2.9453,2.9472,2.9512,2.9645,2.9569,2.9717,3.0546,3.0735,3.1073,3.1996,3.2236,3.2288,3.2305,3.2253,3.2126,3.1789,3.1409,3.0949,3.0411,3.0498,3.0185,2.9204,2.9669,2.9701,2.8893,2.8856,2.8911,2.8998,2.9017,2.9017,2.8994,2.8994,2.9347,3.0026,3.0026,3.0375,3.1017,3.1157,3.1223,1.8997,1.9087,1.8959,1.8246,1.7505,1.6757,1.6131,1.5745,1.5584,1.5788,1.7678,1.9865,2.1688,2.4464,2.72,2.9429,3.0422,3.1286,3.2373,3.1752,3.0398,2.8322,2.7377,2.6139,2.4258,2.3925,2.3711,2.3422,2.3407,2.3363,2.3319,2.2545,2.2024,2.1847,2.1322,2.1007,2.0942,2.1087,2.115,2.115,2.1493,2.1781,2.1969,2.2163,2.2338,2.2515,2.2515,2.2605,2.2764,2.2842,2.297,2.3168,2.3336,2.3499,2.3782,2.491,2.575,2.6483,2.7523,2.7901,2.7908,2.7897,2.775,2.7699,2.8393,2.8879,2.9237,2.9381,2.9323,2.9246,2.937,2.9412,2.9472,2.9589,2.9569,2.9569,2.9626,2.9944,3.0338,3.0866,3.1393,3.2052,3.2993,3.318,3.3197,3.3143,3.3071,3.277,3.2182,3.1892,3.1598,3.1225,3.1219,3.1015,3.0457,3.068,3.032,2.9067,2.8994,2.8994,2.8994,2.9439,2.9659,2.9659,3.0081,3.0485,3.0852,3.0852,3.1035,3.1384,3.1501,3.1544,1.9251,1.9384,1.956,1.9797,1.9126,1.8282,1.7822,1.7504,1.7344,1.7464,1.9423,2.1544,2.2981,2.5651,2.845,3.0857,3.1004,3.1129,3.2005,3.1411,3.0187,2.8289,2.7437,2.6303,2.455,2.4151,2.3897,2.3596,2.3553,2.3596,2.3625,2.3205,2.2858,2.2609,2.233,2.2128,2.1907,2.1993,2.1873,2.1509,2.1768,2.1974,2.2141,2.2293,2.246,2.2659,2.2659,2.2738,2.2893,2.2927,2.3045,2.3168,2.3336,2.3754,2.4361,2.5592,2.6767,2.7785,2.8677,2.9007,2.8997,2.9003,2.8452,2.7963,2.8941,2.9283,2.9344,2.9483,2.9599,2.9639,2.9569,2.957,2.9626,2.9701,2.9664,2.9663,2.9851,3.0375,3.0977,3.1487,3.2203,3.3031,3.3937,3.4089,3.4053,3.3979,3.3866,3.3521,3.2782,3.262,3.2456,3.2121,3.213,3.2072,3.1796,3.1544,3.087,2.9641,2.9567,2.9567,2.9567,3.0155,3.0485,3.0485,3.1091,3.1476,3.1678,3.1678,3.177,3.1953,3.2047,3.2072,1.9417,1.9726,1.9833,2.0166,1.9925,1.9573,1.9498,1.9403,1.9405,1.979,2.1631,2.352,2.4628,2.7296,2.9636,3.0609,3.0374,3.0228,3.0668,3.0009,2.9023,2.7889,2.6924,2.5878,2.4692,2.4234,2.394,2.3797,2.3797,2.3867,2.4036,2.3671,2.3561,2.3768,2.351,2.3503,2.372,2.3298,2.2675,2.1869,2.2065,2.2197,2.231,2.2432,2.2596,2.279,2.2868,2.2952,2.3077,2.3144,2.3217,2.3289,2.3448,2.4531,2.6131,2.7105,2.8036,2.8795,2.8957,2.9017,2.8998,2.9067,2.9016,2.8946,2.9212,2.933,2.9427,2.9568,3.0171,3.0622,2.9888,2.9699,2.9699,2.9699,2.9701,2.9889,3.0581,3.0808,3.1374,3.3014,3.3525,3.3992,3.4864,3.4962,3.4888,3.4813,3.4695,3.4553,3.4454,3.4364,3.3948,3.3013,3.3525,3.3541,3.2596,3.1825,3.1347,3.1219,3.1219,3.1219,3.1219,3.1274,3.1311,3.1311,3.1366,3.177,3.2522,3.2522,3.2908,3.3623,3.3703,3.3729,1.9056,1.9656,2.0185,2.0579,2.0646,2.0579,2.033,2.0351,2.055,2.0955,2.2399,2.4229,2.6337,2.818,2.9613,3.0265,3.0027,2.9855,3.0166,2.9739,2.8885,2.759,2.6929,2.6046,2.4667,2.4317,2.4094,2.394,2.4051,2.4261,2.4533,2.45,2.4465,2.4337,2.4365,2.4297,2.4146,2.3569,2.311,2.2836,2.2445,2.231,2.2432,2.2515,2.2685,2.2944,2.2944,2.3045,2.3168,2.3126,2.3168,2.3318,2.4034,2.5108,2.6345,2.7123,2.8072,2.897,2.8994,2.8994,2.9017,2.9085,2.9112,2.916,2.927,3.0099,3.0966,3.0672,3.1048,3.1349,3.0621,3.0487,3.0483,3.0396,2.9983,2.9776,3.0579,3.1218,3.2031,3.3318,3.4093,3.4677,3.5089,3.5111,3.5038,3.4964,3.4889,3.4811,3.4791,3.5139,3.5008,3.4098,3.4006,3.3854,3.3385,3.3073,3.2889,3.2889,3.1935,3.1384,3.1384,3.188,3.2155,3.2155,3.2632,3.3036,3.3348,3.3348,3.3495,3.3807,3.3834,3.386,1.9114,1.9851,2.0512,2.0926,2.1198,2.1293,2.1071,2.1198,2.1495,2.1899,2.3106,2.4871,2.7383,2.8387,2.8941,2.9343,2.9032,2.8782,2.882,2.8418,2.7826,2.6936,2.6433,2.5711,2.4626,2.4359,2.4219,2.4151,2.4343,2.4614,2.4974,2.5169,2.525,2.5127,2.5287,2.5262,2.5027,2.4351,2.3924,2.3731,2.3033,2.2615,2.2515,2.2605,2.2764,2.297,2.3045,2.3102,2.3168,2.3193,2.3265,2.3472,2.4718,2.5687,2.6449,2.7442,2.8296,2.8994,2.8994,2.8994,2.9053,2.9402,2.9599,2.9776,3.0033,3.0993,3.1915,3.1526,3.1787,3.2064,3.1661,3.1411,3.1167,3.0823,3.0502,3.0409,3.0988,3.1877,3.2842,3.3866,3.4584,3.5091,3.5215,3.5162,3.5091,3.5037,3.5192,3.5306,3.5306,3.5903,3.6032,3.531,3.473,3.4352,3.4174,3.3954,3.3807,3.3807,3.2761,3.2155,3.2155,3.2687,3.2981,3.2981,3.377,3.4192,3.4192,3.4192,3.4192,3.4174,3.3917,3.3807,1.9778,2.0413,2.0797,2.1197,2.1521,2.1761,2.1882,2.2057,2.2315,2.2718,2.3981,2.5604,2.7588,2.7877,2.7769,2.7688,2.7229,2.6756,2.6353,2.5763,2.5497,2.577,2.5291,2.4799,2.4539,2.4261,2.4219,2.4498,2.467,2.4974,2.5378,2.5589,2.5848,2.6206,2.633,2.6469,2.6606,2.5932,2.5236,2.4506,2.382,2.3147,2.2515,2.2712,2.2842,2.2919,2.3119,2.3168,2.3119,2.333,2.3539,2.3862,2.5474,2.6227,2.6607,2.8278,2.8929,2.8994,2.8994,2.8994,2.9145,3.0097,3.0627,3.1043,3.1715,3.1957,3.2028,3.1942,3.23,3.2743,3.2953,3.2414,3.1622,3.0825,3.1272,3.1912,3.2004,3.2805,3.3791,3.481,3.5105,3.5226,3.5277,3.5193,3.5105,3.5124,3.5723,3.6196,3.6215,3.6788,3.7052,3.6644,3.5843,3.5237,3.5037,3.4284,3.3807,3.3807,3.3807,3.3807,3.3807,3.3807,3.3825,3.3825,3.4614,3.5009,3.5009,3.5009,3.5009,3.499,3.4211,3.3825,1.9717,2.0653,2.1505,2.1832,2.2136,2.2337,2.2381,2.2371,2.249,2.3038,2.4139,2.5208,2.5847,2.6414,2.6731,2.6483,2.6053,2.581,2.5884,2.5494,2.5273,2.5508,2.5153,2.4799,2.4539,2.4482,2.4533,2.4759,2.513,2.5492,2.5791,2.5994,2.6225,2.6468,2.6537,2.6589,2.6674,2.5948,2.549,2.5253,2.4105,2.3187,2.2515,2.2659,2.279,2.2919,2.3003,2.3144,2.33,2.4129,2.4527,2.4765,2.6444,2.7177,2.7442,2.8503,2.8929,2.8994,2.8994,2.9384,2.9898,3.0212,3.1075,3.1991,3.2247,3.2855,3.3478,3.3459,3.3589,3.3799,3.3873,3.3729,3.3361,3.2627,3.2227,3.2236,3.2977,3.3393,3.3938,3.4952,3.5174,3.5226,3.5277,3.5231,3.5354,3.5854,3.6046,3.6476,3.7427,3.7178,3.7044,3.7341,3.6593,3.603,3.5917,3.5147,3.4651,3.4651,3.4651,3.4651,3.4651,3.4651,3.4945,3.555,3.5789,3.5917,3.5917,3.5917,3.5917,3.5917,3.5661,3.555,2.0379,2.1275,2.2091,2.2402,2.2607,2.2747,2.2659,2.2598,2.2686,2.3102,2.3791,2.4455,2.4892,2.5384,2.5641,2.5434,2.5015,2.4728,2.472,2.458,2.4582,2.4858,2.4877,2.4815,2.467,2.4751,2.4934,2.5253,2.5594,2.5957,2.6243,2.6383,2.6538,2.6708,2.6674,2.664,2.6691,2.6301,2.5946,2.5624,2.494,2.4207,2.3481,2.2961,2.279,2.2868,2.302,2.3417,2.3975,2.4644,2.5204,2.5717,2.7055,2.7634,2.7834,2.8659,2.897,2.9049,2.9384,2.9787,3.032,3.1017,3.1863,3.2631,3.3013,3.361,3.4147,3.4165,3.4232,3.4279,3.4292,3.4364,3.422,3.3428,3.3193,3.324,3.3601,3.3995,3.4445,3.5078,3.5209,3.5209,3.5226,3.5429,3.574,3.616,3.6627,3.7318,3.8364,3.8018,3.7792,3.8087,3.7385,3.6849,3.6791,3.6009,3.5532,3.5532,3.5532,3.5679,3.5991,3.5697,3.5771,3.6285,3.6597,3.678,3.678,3.678,3.678,3.6762,3.645,3.6303,2.1483,2.2107,2.2599,2.2876,2.2952,2.2927,2.2738,2.2738,2.2816,2.2944,2.3144,2.3573,2.4492,2.4593,2.4563,2.4455,2.4051,2.3642,2.3308,2.3375,2.3668,2.4127,2.4571,2.4855,2.4958,2.5075,2.5362,2.5815,2.6033,2.6315,2.6691,2.6742,2.6775,2.6893,2.6775,2.6691,2.6691,2.6842,2.6536,2.5822,2.6021,2.5759,2.5063,2.3586,2.2946,2.2972,2.332,2.4035,2.5036,2.5177,2.5786,2.6713,2.75,2.7852,2.7989,2.8741,2.9049,2.9195,2.9953,3.0301,3.0668,3.2194,3.2803,3.3062,3.3877,3.4173,3.4221,3.4293,3.4371,3.4405,3.4336,3.4466,3.4434,3.3633,3.4124,3.4582,3.4052,3.4542,3.5127,3.5193,3.5174,3.5157,3.5088,3.5685,3.6196,3.6249,3.7404,3.8469,3.9008,3.9036,3.8921,3.8822,3.8147,3.7676,3.7617,3.6853,3.6413,3.6413,3.6413,3.6725,3.7489,3.6798,3.6431,3.6523,3.7221,3.7606,3.7606,3.7606,3.7606,3.7569,3.6853,3.6523,2.214,2.252,2.291,2.3028,2.2917,2.273,2.2579,2.2542,2.2613,2.2816,2.3095,2.3342,2.3501,2.3608,2.356,2.3222,2.2875,2.288,2.357,2.3486,2.3719,2.478,2.4973,2.5091,2.5301,2.5476,2.5721,2.6173,2.6365,2.6589,2.6842,2.6842,2.6876,2.6893,2.6775,2.6691,2.6691,2.6842,2.6841,2.6719,2.6337,2.6137,2.5988,2.4503,2.3911,2.4108,2.4942,2.556,2.5986,2.68,2.7277,2.76,2.8407,2.8718,2.8778,2.892,2.9402,2.9971,3.0136,3.1035,3.2155,3.258,3.3172,3.3802,3.4093,3.4269,3.4363,3.445,3.4502,3.4572,3.4595,3.4714,3.4793,3.4737,3.4812,3.4904,3.4842,3.4973,3.5088,3.5105,3.5054,3.4964,3.4964,3.5471,3.6273,3.7349,3.8263,3.885,3.8873,3.8833,3.8822,3.8719,3.8573,3.8481,3.8432,3.7698,3.7221,3.7221,3.7221,3.7312,3.7477,3.7342,3.7533,3.8175,3.8358,3.8432,3.8432,3.8432,3.8432,3.8432,3.8267,3.8193,2.2886,2.2972,2.2977,2.2952,2.2816,2.2599,2.247,2.2439,2.2483,2.2596,2.2816,2.302,2.302,2.307,2.3003,2.2764,2.2463,2.2428,2.2747,2.316,2.3616,2.4159,2.4906,2.5476,2.568,2.5848,2.6137,2.6555,2.6674,2.6859,2.7089,2.6992,2.6959,2.6959,2.6825,2.6792,2.6792,2.6957,2.7055,2.707,2.7031,2.6865,2.6639,2.5429,2.4978,2.5198,2.5745,2.6315,2.6923,2.7474,2.7962,2.8429,2.8851,2.9232,2.9586,2.9586,3.0081,3.0834,3.1219,3.1916,3.2669,3.3132,3.364,3.4074,3.4197,3.4363,3.4517,3.458,3.4649,3.4713,3.4791,3.4793,3.4775,3.4832,3.4907,3.4962,3.5,3.4982,3.4945,3.487,3.4792,3.473,3.4628,3.5483,3.6663,3.8109,3.8662,3.8881,3.878,3.875,3.875,3.8707,3.8707,3.8707,3.8707,3.8322,3.8065,3.8065,3.8065,3.8065,3.8065,3.8065,3.8267,3.8689,3.8707,3.8707,3.8707,3.8707,3.8707,3.8707,3.8707,3.8707,2.3687,2.349,2.305,2.2799,2.2624,2.25,2.2405,2.2372,2.2361,2.2366,2.2525,2.2685,2.2738,2.2764,2.2712,2.2552,2.2371,2.2168,2.1889,2.272,2.3418,2.3557,2.4753,2.5717,2.603,2.6225,2.6521,2.6893,2.6893,2.6992,2.7235,2.7089,2.6975,2.7007,2.6959,2.6926,2.6942,2.7152,2.7244,2.7276,2.7672,2.7708,2.7338,2.655,2.6218,2.6249,2.6453,2.7053,2.7835,2.7899,2.8347,2.8994,2.914,2.9622,3.0228,3.0356,3.0925,3.1696,3.2375,3.2706,3.2926,3.3692,3.3998,3.4124,3.4293,3.445,3.462,3.4835,3.486,3.4845,3.5054,3.483,3.4585,3.4771,3.481,3.4812,3.4831,3.4792,3.4711,3.4583,3.4517,3.4487,3.445,3.5625,3.7036,3.835,3.87,3.8762,3.8707,3.8707,3.8707,3.8707,3.8707,3.8707,3.8707,3.8707,3.8707,3.8707,3.8707,3.8707,3.8707,3.8707,3.8707,3.8707,3.8707,3.8707,3.8707,3.8707,3.8707,3.8707,3.8707,3.8707,2.4365,2.3972,2.3412,2.2641,2.2343,2.2243,2.2225,2.2242,2.2242,2.231,2.2487,2.2605,2.2569,2.2579,2.2552,2.2304,2.213,2.2145,2.244,2.2606,2.3194,2.447,2.4905,2.5425,2.6264,2.6486,2.664,2.6893,2.6893,2.6959,2.7057,2.6959,2.6959,2.7007,2.6975,2.699,2.707,2.7324,2.7496,2.7539,2.794,2.8246,2.8399,2.8265,2.7857,2.7272,2.8076,2.8554,2.874,2.8805,2.8883,2.9067,2.9769,3.0118,3.0283,3.098,3.1751,3.2467,3.2577,3.3073,3.3687,3.391,3.4049,3.4148,3.4404,3.4495,3.4689,3.5509,3.5293,3.4974,3.5741,3.5096,3.447,3.5418,3.4988,3.4431,3.4604,3.4583,3.4517,3.4381,3.4245,3.4365,3.4969,3.5818,3.6711,3.7544,3.8279,3.8707,3.8707,3.8707,3.8707,3.8707,3.8707,3.8707,3.8707,3.8707,3.8707,3.8707,3.8707,3.8707,3.8707,3.8707,3.8707,3.8707,3.8707,3.8707,3.8707,3.8707,3.8707,3.8707,3.8707,3.8707,2.4568,2.4299,2.3888,2.3013,2.2726,2.2529,2.2144,2.2065,2.2111,2.2225,2.2338,2.2432,2.2377,2.2405,2.2377,2.2225,2.2152,2.212,2.2198,2.2595,2.3272,2.4282,2.4913,2.5581,2.6454,2.6589,2.6725,2.6893,2.6893,2.6926,2.6992,2.6992,2.6975,2.7055,2.7152,2.7279,2.7386,2.7647,2.7882,2.8035,2.8273,2.8484,2.8712,2.8761,2.8585,2.8257,2.8669,2.8881,2.8952,2.8994,2.925,2.9714,3.0063,3.076,3.1604,3.1953,3.2577,3.3275,3.3275,3.3495,3.3834,3.3921,3.3998,3.4074,3.4269,3.434,3.4573,3.5441,3.5848,3.6136,3.6621,3.6752,3.6714,3.6608,3.6055,3.5583,3.5609,3.4915,3.437,3.4747,3.4718,3.4999,3.6268,3.6783,3.7298,3.8046,3.8469,3.8707,3.8707,3.8707,3.8707,3.8707,3.8707,3.8707,3.8707,3.8707,3.8707,3.8707,3.8707,3.8707,3.8707,3.8707,3.8707,3.8707,3.8707,3.8707,3.8707,3.8707,3.8707,3.8707,3.9166,3.9368,2.4839,2.4637,2.4309,2.3416,2.3145,2.2926,2.2424,2.2282,2.2249,2.2437,2.2389,2.231,2.231,2.231,2.2282,2.2214,2.2214,2.214,2.1957,2.2454,2.3204,2.4061,2.4792,2.5612,2.6539,2.6674,2.6742,2.6842,2.6893,2.6926,2.6992,2.7007,2.7055,2.7166,2.7355,2.7557,2.7736,2.7996,2.8246,2.8484,2.8536,2.8644,2.8834,2.9082,2.9222,2.9222,2.9222,2.9263,2.9305,2.9549,2.9971,3.0522,3.0742,3.1549,3.2632,3.2834,3.3293,3.3807,3.3807,3.3807,3.3807,3.3868,3.3921,3.3998,3.4124,3.4197,3.4426,3.533,3.6236,3.6998,3.7551,3.8191,3.8478,3.7507,3.6888,3.6509,3.6426,3.5459,3.4829,3.5358,3.5395,3.5734,3.6964,3.7379,3.7679,3.8303,3.8579,3.8707,3.8707,3.8707,3.8707,3.8707,3.8707,3.8707,3.8707,3.8707,3.8707,3.8707,3.8707,3.8707,3.8707,3.8707,3.8707,3.8707,3.8909,3.8909,3.8707,3.8909,3.9001,3.9019,3.9827,4.0194,2.543,2.5028,2.457,2.3697,2.3339,2.3242,2.3455,2.3104,2.2853,2.3173,2.2743,2.231,2.231,2.231,2.2282,2.2214,2.2214,2.2152,2.1998,2.214,2.2786,2.42,2.4478,2.5118,2.6556,2.6691,2.6691,2.6691,2.6842,2.6893,2.6893,2.7023,2.7166,2.7373,2.76,2.7806,2.8071,2.8353,2.8543,2.8669,2.8694,2.8743,2.8923,2.9673,3.007,3.0136,3.0136,3.0136,3.021,3.0962,3.1292,3.1403,3.2192,3.254,3.2706,3.3458,3.3752,3.3807,3.3807,3.3807,3.3807,3.3868,3.3895,3.3921,3.4074,3.4074,3.4282,3.552,3.6187,3.6869,3.8343,3.8722,3.849,3.7684,3.6883,3.6332,3.637,3.6287,3.6203,3.6229,3.6229,3.6266,3.634,3.6982,3.7496,3.7581,3.8212,3.8707,3.8707,3.8707,3.8707,3.8707,3.8707,3.8707,3.8707,3.8707,3.8707,3.8707,3.8707,3.8707,3.8707,3.8707,3.8707,3.8707,3.9441,3.946,3.8707,3.946,3.9827,3.9845,4.0671,4.1056,2.6438,2.6106,2.5512,2.4767,2.4431,2.4159,2.3608,2.344,2.3321,2.3143,2.2966,2.2706,2.231,2.2254,2.2282,2.2254,2.2254,2.2254,2.2192,2.2642,2.3346,2.4343,2.4915,2.5592,2.659,2.6691,2.6691,2.6691,2.6825,2.6926,2.6959,2.7215,2.7417,2.76,2.7876,2.8146,2.8335,2.8543,2.8644,2.8694,2.8791,2.9113,2.9698,3.0015,3.0461,3.0999,3.1531,3.1458,3.098,3.1274,3.1696,3.221,3.2504,3.2926,3.3421,3.3697,3.3807,3.3807,3.3807,3.3807,3.3788,3.3834,3.386,3.3842,3.3895,3.3895,3.4126,3.5303,3.6232,3.7161,3.8419,3.8732,3.8609,3.8322,3.8046,3.7845,3.7875,3.7066,3.645,3.6964,3.7055,3.7221,3.7753,3.8083,3.8267,3.8267,3.8524,3.8707,3.8707,3.8707,3.8707,3.8707,3.8707,3.8707,3.8707,3.8707,3.8707,3.8707,3.8707,3.8707,3.8707,3.8707,3.8946,3.946,3.9753,3.9753,3.946,4.0286,4.0671,4.0689,4.1497,4.1897,2.6647,2.6596,2.619,2.5648,2.5576,2.5449,2.4611,2.443,2.4279,2.3833,2.3594,2.3271,2.2627,2.2752,2.2798,2.2367,2.231,2.231,2.231,2.2936,2.3663,2.4421,2.5152,2.5896,2.6623,2.6691,2.6742,2.6742,2.6892,2.704,2.7169,2.7448,2.7719,2.7933,2.8201,2.8414,2.8587,2.8694,2.8767,2.8767,2.9137,2.963,3.0161,3.0736,3.1311,3.1843,3.2651,3.2559,3.1825,3.2082,3.2522,3.2999,3.2999,3.333,3.3807,3.3807,3.3807,3.3807,3.3807,3.3807,3.3807,3.3807,3.3807,3.3807,3.3807,3.399,3.4431,3.5457,3.6413,3.7371,3.8414,3.8707,3.8707,3.8707,3.8707,3.8707,3.8707,3.7863,3.7257,3.779,3.79,3.8065,3.8615,3.8707,3.8707,3.8707,3.8707,3.8707,3.8707,3.8707,3.8707,3.8707,3.8707,3.8707,3.8707,3.8707,3.8707,3.8707,3.8707,3.8707,3.8707,3.8964,3.935,3.9882,4.0432,4.0708,4.0708,4.124,4.1515,4.1534,4.2356,4.2791,0.0,0.0,0.0,2.6261,2.6681,2.7009,2.6631,2.6173,2.5697,2.5311,2.4679,2.3993,2.324,2.3708,2.3773,2.2558,2.235,2.2378,2.2378,2.3004,2.3714,2.4455,2.5169,2.593,2.6623,2.6691,2.6742,2.6893,2.7023,2.723,2.7496,2.7701,2.7989,2.838,2.8536,2.8637,2.8694,2.8834,2.8905,2.8942,2.98,3.0228,3.032,3.1898,3.2614,3.2687,3.3458,3.3366,3.2706,3.3476,3.3807,3.3807,3.3807,3.3807,3.3807,3.3807,3.3807,3.3807,3.3807,3.3807,3.3807,3.3807,3.3807,3.3807,3.3807,3.4376,3.5174,3.6046,3.6677,3.7356,3.8432,3.8707,3.8707,3.8707,3.8707,3.8707,3.8707,3.8707,3.8707,3.8707,3.8707,3.8707,3.8707,3.8726,3.8744,3.8744,3.8762,3.8781,3.8781,3.8781,3.8781,3.8781,3.8762,3.8744,3.8744,3.8707,3.8707,3.8707,3.8707,3.8707,3.8726,3.9478,3.9918,3.9955,4.1497,4.2304,4.2341,4.2341,4.2341,4.2359,4.3232,4.3716,2.5806,0.0,0.0,0.0,0.0,0.0,2.7462,2.6987,2.6367,2.5806,2.505,2.4277,2.3654,2.3687,2.3753,2.3518,2.3656,2.3857,2.3883,2.4526,2.5067,2.527,2.5947,2.6521,2.6825,2.6842,2.6892,2.7038,2.7198,2.7417,2.7642,2.8035,2.8327,2.8536,2.8587,2.8612,2.8637,2.8761,2.9126,2.9691,3.0051,3.0815,3.1953,3.2412,3.2926,3.3476,3.3697,3.3678,3.3495,3.3715,3.3807,3.3807,3.3807,3.3807,3.3807,3.3807,3.3807,3.3807,3.3807,3.3807,3.3807,3.3807,3.3807,3.378,3.3817,3.4348,3.5174,3.6033,3.6842,3.7588,3.8469,3.8707,3.8707,3.8707,3.8707,3.8707,3.8707,3.8707,3.8707,3.8707,3.8707,3.8707,3.8707,3.9184,3.957,3.957,4.0065,4.0451,4.0451,4.0451,4.0451,4.0451,3.9918,3.957,3.957,3.9038,3.8707,3.8707,3.8707,3.8964,3.9533,3.9772,4.0451,4.1607,4.2066,4.2598,4.3167,4.3167,4.3167,4.3167,4.3575,4.3851,2.5013,2.5389,2.581,2.7006,0.0,0.0,2.8347,2.7793,2.7075,2.6319,2.5512,2.4709,2.4045,2.4142,2.4275,2.4176,2.4842,2.5129,2.4423,2.5039,2.5544,2.5544,2.6268,2.6825,2.6926,2.7007,2.712,2.7293,2.7448,2.763,2.7893,2.8255,2.851,2.8562,2.8612,2.8637,2.8637,2.8785,2.9259,3.0045,3.0491,3.1366,3.2614,3.2963,3.3366,3.3807,3.3807,3.3807,3.3807,3.3807,3.3807,3.3807,3.3807,3.3807,3.3807,3.3807,3.3807,3.3807,3.3807,3.3807,3.3807,3.3807,3.3807,3.3899,3.4376,3.4981,3.5807,3.6982,3.7643,3.8175,3.8982,3.8946,3.8781,3.9129,3.8946,3.8799,3.9129,3.9203,3.9093,3.8781,3.8964,3.9203,3.9203,3.9863,4.0396,4.0396,4.0799,4.1111,4.1111,4.1111,4.1111,4.1111,4.0689,4.0267,3.9918,3.946,3.9203,3.9203,3.9203,3.9551,4.0377,4.0726,4.1332,4.2286,4.2635,4.302,4.3497,4.3497,4.3532,4.3652,4.3738,4.3883,2.3938,2.4979,2.6049,2.6772,2.7991,0.0,2.9091,2.8519,2.7761,2.6913,2.6101,2.531,2.4573,2.4939,2.5185,2.4799,2.5885,2.6281,2.4663,2.5246,2.5832,2.5748,2.6505,2.7011,2.7024,2.7135,2.7324,2.7569,2.7719,2.7893,2.8182,2.8458,2.8587,2.8518,2.8644,2.8694,2.8694,2.8834,2.9308,3.0124,3.0986,3.1836,3.2753,3.345,3.3788,3.3807,3.3807,3.3807,3.3807,3.3807,3.3807,3.3807,3.3807,3.3807,3.3807,3.3807,3.3807,3.3807,3.3807,3.3807,3.3807,3.3807,3.3862,3.4137,3.5193,3.5946,3.6754,3.8276,3.875,3.9001,3.9698,3.9386,3.9056,3.9735,3.9386,3.9074,3.9753,3.9918,3.9753,3.9093,3.9533,4.0029,4.0029,4.0708,4.124,4.124,4.1313,4.1387,4.1387,4.1387,4.1387,4.1387,4.1295,4.0946,4.023,4.0065,4.0029,4.0029,4.0029,4.0396,4.1203,4.1919,4.2341,4.2433,4.313,4.3497,4.3497,4.3497,4.36,4.3771,4.3771,4.3934,2.3338,2.3976,2.483,2.6197,2.7553,0.0,2.9083,2.8911,2.8446,2.7917,2.7028,2.6264,2.6037,2.6072,2.6162,2.6182,2.6583,2.6807,2.6627,2.7414,2.7827,2.733,2.7571,2.7589,2.7139,2.723,2.7448,2.7672,2.7922,2.8126,2.82,2.8458,2.8587,2.8587,2.8712,2.8761,2.8694,2.8785,2.9289,3.0267,3.0917,3.2044,3.3506,3.3652,3.3753,3.3807,3.3807,3.3807,3.3807,3.3807,3.3807,3.3807,3.3807,3.3807,3.3807,3.3807,3.3807,3.3807,3.3807,3.3807,3.3807,3.3807,3.4247,3.4844,3.5347,3.6329,3.7489,3.8444,3.9148,3.9698,3.9845,3.9942,3.9983,3.9918,3.996,3.9983,3.9918,4.007,4.0313,4.0565,4.0763,4.0873,4.0873,4.1534,4.2066,4.2066,4.2616,4.302,4.302,4.302,4.302,4.302,4.2451,4.2011,4.1846,4.124,4.0873,4.0873,4.0873,4.124,4.2029,4.2213,4.2598,4.324,4.3406,4.3497,4.3497,4.3497,4.3566,4.3634,4.3634,4.3767,2.2721,2.3526,2.4557,2.5715,2.7253,0.0,0.0,2.8925,2.856,2.8034,2.7128,2.6408,2.6244,2.6198,2.6244,2.6334,2.71,2.78,2.8098,2.824,2.8207,2.7923,2.8275,2.8458,2.8185,2.8449,2.8722,2.889,2.8805,2.8742,2.8792,2.8604,2.8546,2.8634,2.8724,2.8718,2.8694,2.905,2.9715,3.064,3.1374,3.2384,3.3643,3.3671,3.3726,3.3807,3.3807,3.3807,3.3807,3.3807,3.3807,3.3807,3.3807,3.3807,3.3807,3.3807,3.3807,3.3807,3.3807,3.3807,3.3862,3.4284,3.4688,3.5192,3.6201,3.7246,3.8175,3.8597,3.9001,3.9423,3.996,4.0093,4.0364,4.1452,4.1185,4.0785,4.1038,4.1189,4.1519,4.2176,4.2304,4.2176,4.1772,4.2378,4.2892,4.2892,4.3222,4.3497,4.3497,4.3497,4.3497,4.3497,4.313,4.2745,4.2323,4.1937,4.1699,4.1699,4.1699,4.2066,4.2873,4.2892,4.3075,4.3479,4.3497,4.3497,4.3497,4.3497,4.3513,4.3582,4.3582,4.3701,2.2338,2.3376,2.4659,2.5236,2.7009,2.8682,0.0,0.0,0.0,2.8042,2.7241,2.6642,2.6396,2.6364,2.6349,2.6365,2.7592,2.8664,2.9046,2.8798,2.8632,2.8714,2.9281,2.9593,2.9379,2.9678,2.9907,3.0004,2.9637,2.9373,2.9324,2.8852,2.8604,2.8673,2.8692,2.8785,2.896,2.9411,3.0216,3.1327,3.187,3.2643,3.3549,3.3643,3.3726,3.3807,3.3807,3.3807,3.3807,3.3807,3.3807,3.3807,3.3807,3.3807,3.3807,3.3807,3.3807,3.3807,3.3807,3.3899,3.4137,3.477,3.521,3.5771,3.7257,3.8175,3.8707,3.8707,3.8817,3.9184,4.0203,4.051,4.1034,4.2846,4.2375,4.1666,4.2161,4.2399,4.2711,4.3334,4.3463,4.3277,4.2635,4.3057,4.3497,4.3497,4.3463,4.3463,4.3463,4.3463,4.3463,4.3463,4.3497,4.3222,4.2598,4.2525,4.2525,4.2525,4.2525,4.2818,4.3461,4.3497,4.3497,4.3497,4.3497,4.3497,4.3497,4.3497,4.3532,4.3582,4.3582,4.3634,2.231,2.3376,2.4523,2.4594,2.6622,2.8548,2.8289,0.0,2.9326,2.8701,0.0,2.8069,2.7678,0.0,0.0,2.745,2.8167,2.8855,2.9158,3.011,3.0846,3.1002,3.145,3.1314,3.0099,2.9781,2.9642,2.9676,2.9719,2.954,2.9071,2.9195,2.9052,2.8533,2.8641,2.908,2.9836,2.9565,3.0449,3.2486,3.2056,3.2391,3.3422,3.3549,3.3671,3.3807,3.3807,3.3807,3.3807,3.3807,3.3807,3.3807,3.3807,3.3807,3.3807,3.3807,3.3807,3.3807,3.3807,3.4284,3.4862,3.4954,3.6009,3.7367,3.8285,3.8634,3.8707,3.8707,3.9203,3.9955,4.0785,4.2026,4.2975,4.254,4.2732,4.2882,4.2315,4.2737,4.3232,4.3376,4.3375,4.332,4.3369,4.3424,4.3463,4.3411,4.3411,4.3376,4.3251,4.334,4.3411,4.3411,4.3463,4.3442,4.3369,4.3351,4.3351,4.3351,4.3351,4.3387,4.3497,4.3497,4.3497,4.3497,4.3497,4.3497,4.3497,4.3497,4.3479,4.3532,4.3532,4.3532,2.231,2.3376,2.4506,2.4506,2.664,2.8624,2.8285,2.9083,2.9722,2.909,0.0,0.0,0.0,0.0,0.0,0.0,2.865,2.9605,2.9863,3.1342,3.2183,3.1686,3.2144,3.237,3.2116,3.1619,3.1342,3.1342,3.0733,3.0472,3.0625,3.019,2.9882,2.9822,2.9808,2.9952,3.0288,3.0439,3.0987,3.1874,3.2115,3.2541,3.3226,3.3459,3.3613,3.3753,3.3753,3.378,3.3807,3.3807,3.3807,3.3807,3.3807,3.3807,3.3807,3.3807,3.3807,3.3862,3.4339,3.4715,3.5155,3.6138,3.7239,3.8267,3.8597,3.8707,3.8707,3.8707,3.8951,3.9401,4.0284,4.129,4.2187,4.2557,4.2923,4.3087,4.2668,4.2905,4.3178,4.3269,4.3322,4.3393,4.3446,4.3446,4.3411,4.3286,4.3286,4.3251,4.3214,4.3251,4.3305,4.3394,4.3411,4.3481,4.3497,4.3497,4.3497,4.3497,4.3497,4.3497,4.3497,4.3497,4.3497,4.3497,4.3497,4.3497,4.3497,4.3497,4.3497,4.3497,4.3497,4.3497,2.2338,2.3405,2.4523,2.4506,2.6674,2.8736,2.8472,2.9345,3.0044,2.9393,2.9028,0.0,0.0,0.0,2.774,2.7575,0.0,3.0068,3.0381,3.2097,3.3069,3.2433,3.2744,3.3173,3.3566,3.3059,3.2615,3.2468,3.1734,3.1443,3.1742,3.0966,3.0606,3.0772,3.0588,3.0528,3.0637,3.1012,3.13,3.1528,3.2137,3.2666,3.3055,3.334,3.3546,3.3671,3.3698,3.3726,3.3807,3.3807,3.3807,3.3807,3.3807,3.3935,3.4137,3.4137,3.3982,3.3963,3.499,3.5514,3.5936,3.7349,3.8212,3.8707,3.8707,3.8854,3.9038,3.9038,3.9158,3.9502,4.0385,4.0937,4.1541,4.2595,4.2864,4.288,4.2824,4.288,4.3012,4.3105,4.3233,4.3269,4.3214,4.3286,4.3305,4.3123,4.3087,4.3105,4.3105,4.3105,4.3178,4.334,4.3394,4.3411,4.3479,4.3497,4.3497,4.3497,4.3497,4.3497,4.3497,4.3497,4.3497,4.3497,4.3497,4.3497,4.3497,4.3497,4.3497,4.3497,4.3497,4.3497,2.2422,2.3464,2.4571,2.4523,2.6674,2.8774,2.8607,2.949,3.0225,2.9837,2.9393,2.8889,2.8222,2.791,2.769,2.7452,2.8749,0.0,0.0,3.2097,3.3435,3.3783,3.3681,3.365,3.3756,3.3301,3.2756,3.2152,3.2377,3.2261,3.1642,3.1272,3.0951,3.0703,3.0356,3.0466,3.0974,3.0941,3.129,3.2073,3.223,3.2517,3.2916,3.3244,3.3481,3.3605,3.3671,3.3726,3.3807,3.3807,3.3807,3.3807,3.3807,3.4284,3.4954,3.4954,3.4458,3.4036,3.5687,3.6762,3.7551,3.8395,3.8689,3.8707,3.8707,3.9239,3.9845,3.9845,4.0331,4.0982,4.1754,4.1814,4.1849,4.2551,4.2537,4.2436,4.2591,4.2609,4.267,4.2844,4.2994,4.3012,4.275,4.2995,4.3123,4.2938,4.2842,4.2822,4.2822,4.288,4.2975,4.3178,4.334,4.3411,4.3479,4.3497,4.3497,4.3497,4.3497,4.3497,4.3497,4.3497,4.3497,4.3497,4.3497,4.3497,4.3497,4.3497,4.3497,4.3497,4.3497,4.3497,0.0,2.3493,2.4571,2.4523,2.632,2.8089,2.7908,2.851,2.8973,2.8501,2.8387,2.8198,2.7547,2.7557,2.7625,2.7524,2.858,2.972,0.0,3.2376,3.3607,3.3658,3.379,3.3942,3.3974,3.37,3.3461,3.3378,3.328,3.273,3.1521,3.1987,3.2053,3.1429,3.1446,3.1515,3.1584,3.1672,3.1812,3.2039,3.2248,3.2517,3.2777,3.3104,3.3382,3.352,3.3605,3.3698,3.3807,3.3807,3.3807,3.3844,3.4394,3.4752,3.499,3.499,3.5192,3.5604,3.6707,3.7606,3.834,3.8615,3.8707,3.8799,3.9331,3.968,3.9992,4.0441,4.0928,4.1356,4.1597,4.1663,4.1737,4.2109,4.2038,4.1902,4.211,4.231,4.2512,4.267,4.2786,4.2768,4.267,4.2631,4.2591,4.2573,4.2649,4.2706,4.2783,4.288,4.2975,4.316,4.3251,4.3322,4.3497,4.3497,4.3497,4.3497,4.3497,4.3497,4.3497,4.3497,4.3497,4.3497,4.3497,4.3497,4.3497,4.3497,4.3497,4.3497,4.3497,4.3497,2.2569,2.3374,0.0,2.4133,2.5745,2.7331,2.7138,2.7761,2.8268,2.781,2.7817,2.7717,2.7116,2.7308,2.7524,2.7575,2.8571,2.9859,0.0,3.2618,3.332,3.3419,3.3694,3.3899,3.4,3.4103,3.4147,3.4113,3.4126,3.3554,3.2275,3.2642,3.2662,3.209,3.2014,3.1929,3.1785,3.2001,3.2109,3.2109,3.2368,3.2601,3.2809,3.314,3.334,3.3491,3.3559,3.3652,3.3807,3.3807,3.3807,3.388,3.4679,3.5174,3.5514,3.5789,3.6431,3.7221,3.7734,3.8267,3.8707,3.8707,3.8707,3.8854,3.9662,4.0084,4.0404,4.1092,4.1611,4.1905,4.1785,4.1667,4.1629,4.1692,4.163,4.1621,4.1856,4.2127,4.2391,4.2512,4.2534,4.2494,4.2391,4.2228,4.2187,4.2351,4.245,4.257,4.2783,4.288,4.3013,4.3251,4.3251,4.3322,4.3497,4.3497,4.3497,4.3497,4.3497,4.3497,4.3497,4.3497,4.3497,4.3497,4.3497,4.3497,4.3497,4.3497,4.3497,4.3497,4.3497,4.3497]}]]